GFSGL_925_temp_000.txt.gz
Temp
25 25 24 24 23 24 24 23 23 22 22 22 21 21 20 20 20 20 20 20 20 20 20 19 19 19 19 18 17 17 16 15 13 15 14 16 16 16 16 17 16 16 16
24 24 24 24 24 24 24 23 23 22 22 22 21 21 20 20 20 20 20 20 20 20 20 20 20 19 18 18 17 17 16 16 14 14 15 14 15 16 16 16 16 15 15
23 23 23 23 24 24 24 24 23 22 22 21 21 21 20 20 20 20 20 21 20 20 20 20 20 19 19 19 18 17 17 16 15 13 13 14 13 14 14 15 15 14 14
22 22 22 23 24 24 23 23 23 22 22 22 21 21 21 21 21 21 21 21 21 21 20 20 20 19 19 19 18 18 18 16 15 13 13 13 13 14 13 13 13 14 13
22 21 22 23 22 20 22 22 23 22 22 22 21 21 21 21 21 21 21 21 21 21 21 20 20 19 19 18 18 18 17 16 15 13 13 14 14 14 14 14 13 13 13
22 21 21 20 19 19 18 19 21 22 22 22 21 21 21 21 21 21 21 21 21 21 20 20 20 19 19 18 17 17 17 16 15 13 14 13 14 13 13 12 13 13 14
21 20 20 19 18 19 19 18 19 22 22 22 21 21 21 21 21 21 21 20 20 20 20 19 19 19 18 18 18 17 17 16 15 14 13 13 13 13 12 12 12 12 12
20 20 19 20 19 20 21 19 19 22 21 21 21 21 21 21 22 21 20 21 20 20 19 18 18 18 18 16 16 16 16 16 15 14 13 13 13 12 11 11 11 11 11
19 19 19 19 20 20 21 21 19 19 20 20 21 21 21 22 22 21 20 20 19 19 19 17 17 17 16 16 15 14 15 15 15 14 13 13 13 13 13 11 11 11 11
19 19 19 19 19 20 19 18 18 19 19 18 18 18 17 16 20 19 19 19 19 18 18 17 16 15 15 15 14 13 13 14 13 13 13 11 10 11 13 11 11 11 11
19 19 19 19 18 17 17 18 18 19 18 18 18 20 21 18 16 17 18 18 18 17 17 16 15 15 14 14 13 13 12 12 11 10 9 9 9 9 10 13 13 10 10
18 18 17 18 18 18 18 18 18 19 20 21 21 20 20 18 15 17 18 18 17 16 16 15 15 14 13 12 12 11 11 10 10 10 9 9 9 9 10 11 13 10 10
18 18 18 18 19 19 18 18 18 19 20 21 19 19 18 15 15 17 18 17 16 15 14 14 14 14 13 11 11 10 10 10 9 8 8 8 9 10 10 11 11 10 11
18 17 17 17 17 18 17 18 18 18 19 20 18 16 15 16 16 16 15 14 14 14 13 13 13 12 11 10 11 10 10 9 9 8 9 9 10 9 9 10 8 9 10
18 18 18 17 17 17 19 19 19 19 18 18 17 17 16 15 16 14 14 14 13 13 13 12 11 10 10 10 10 9 9 9 9 9 9 9 9 9 9 10 8 9 9
18 17 17 17 17 17 16 15 17 18 16 16 16 16 16 15 15 14 14 14 13 12 11 10 9 9 9 8 8 8 9 8 8 8 9 8 8 8 8 9 8 8 9
19 19 18 18 18 16 15 15 14 14 15 15 15 15 15 15 15 14 13 13 12 11 10 9 9 8 8 8 7 7 7 7 7 8 8 8 8 8 7 8 8 8 8
20 20 20 18 16 15 15 14 14 13 12 13 14 14 13 13 12 12 11 11 10 10 10 9 8 8 7 7 7 7 7 7 7 7 8 8 8 7 6 7 7 7 7
20 19 18 17 16 15 14 14 14 13 12 12 11 11 11 11 11 11 10 10 10 9 8 8 8 7 7 7 7 7 6 6 6 7 7 7 8 7 7 7 8 8 8
18 18 18 18 17 16 14 13 13 12 12 12 11 11 10 10 10 10 10 10 9 8 8 8 7 7 7 7 7 6 6 6 6 7 7 7 8 8 7 7 7 8 8
18 19 19 17 16 16 15 14 14 13 11 11 12 12 12 11 11 10 10 9 9 8 8 8 8 7 7 7 7 6 6 6 6 6 7 7 8 8 8 7 7 8 8
18 18 17 17 16 15 14 13 13 13 12 12 12 12 11 11 11 10 9 9 9 8 8 8 8 7 7 6 6 6 6 6 6 6 7 7 8 8 8 7 7 8 8
17 16 15 15 15 14 13 13 13 13 13 12 12 12 12 12 11 11 9 9 9 9 8 8 7 7 6 6 6 6 6 6 6 6 6 7 7 7 8 7 7 7 7
15 15 15 14 14 13 13 14 14 14 13 12 12 11 11 12 11 11 9 9 9 9 8 8 7 7 6 6 6 6 6 6 6 6 6 6 7 7 8 7 7 7 7
14 14 14 13 13 12 12 12 12 12 12 12 12 11 11 11 10 10 10 9 9 8 8 8 7 6 6 6 6 6 6 6 6 6 6 6 6 7 7 7 7 6 7
14 14 14 13 13 13 13 13 12 12 13 12 12 11 11 10 10 10 10 10 9 9 8 8 7 6 6 6 6 6 6 5 6 6 6 6 6 6 7 7 7 6 6

GFSGL_925_temp_006.txt.gz
Temp
27 27 26 26 26 25 25 24 24 23 22 22 22 22 22 21 21 20 21 22 21 21 21 21 21 21 21 22 23 22 22 22 22 22 22 22 21 20 19 19 19 19 19
29 27 27 26 26 25 24 24 22 22 22 21 21 21 21 22 21 21 21 22 21 21 21 21 21 22 21 21 21 21 22 21 21 21 20 20 21 21 20 19 19 19 19
29 28 27 27 26 26 24 23 22 21 23 22 23 22 20 21 21 21 21 21 21 21 21 21 21 21 21 21 21 21 22 22 21 21 21 21 21 20 21 20 20 20 19
31 29 28 27 27 25 24 21 22 23 23 22 24 22 21 20 21 21 21 21 21 21 21 21 21 21 21 21 21 20 20 20 21 20 21 21 21 21 21 20 21 21 21
31 30 29 27 26 24 22 21 22 23 22 24 24 22 21 20 20 21 21 21 21 21 21 21 21 21 21 21 21 21 20 20 21 21 21 22 21 20 20 20 20 21 20
30 29 29 27 25 24 21 20 20 21 22 23 23 21 19 19 21 22 21 21 21 21 21 21 20 20 20 20 20 19 18 18 18 19 19 20 19 18 20 20 19 19 20
28 28 27 25 24 22 21 20 20 20 19 20 20 19 19 19 21 21 21 21 21 21 20 20 19 20 20 19 19 18 18 18 17 16 17 18 17 18 18 16 17 17 17
27 26 26 24 23 22 21 20 20 20 20 20 19 19 19 20 20 20 20 19 20 20 19 19 19 18 19 19 18 19 18 18 18 17 17 17 17 16 15 15 15 15 15
26 25 24 23 22 21 21 20 20 20 20 21 20 20 19 20 20 20 19 21 21 19 20 20 21 20 17 18 16 17 18 18 18 17 15 14 14 14 13 13 15 16 16
26 25 24 23 23 21 21 21 20 20 20 21 21 20 20 20 20 20 21 21 20 19 19 19 19 18 17 16 16 17 17 18 17 16 16 16 16 16 15 14 13 13 13
26 25 23 22 22 22 21 20 20 19 20 20 20 20 20 20 20 20 20 19 21 19 19 18 18 16 16 16 16 16 16 14 15 15 17 17 17 17 17 17 15 15 16
24 23 22 21 21 21 20 19 18 19 19 20 19 19 19 20 19 19 18 18 19 19 18 21 17 16 15 15 15 14 14 13 15 17 17 17 17 17 17 16 14 14 14
22 21 20 20 20 19 19 18 19 19 20 20 19 20 19 20 18 17 17 17 18 18 20 17 16 15 14 14 14 13 12 14 16 16 17 17 16 16 15 15 16 15 15
21 21 20 19 19 19 19 19 20 21 20 20 21 19 20 18 18 16 16 16 16 17 16 15 14 14 14 14 13 12 14 15 15 15 15 15 15 15 16 16 16 16 16
20 20 20 20 19 19 19 19 21 20 21 21 20 19 19 19 20 19 19 19 19 18 16 17 17 17 18 17 16 16 15 15 15 15 15 15 15 15 15 15 15 16 16
21 21 22 22 21 21 19 18 18 18 18 18 18 19 18 19 18 17 16 16 16 15 16 18 19 18 18 17 17 16 16 15 14 14 14 14 14 15 15 14 15 15 15
23 22 23 23 23 23 22 21 21 16 16 16 16 17 16 17 17 15 15 15 14 14 17 19 18 17 17 16 16 15 15 15 12 13 14 14 14 14 14 14 15 15 15
22 21 23 23 23 23 22 21 22 22 21 17 15 15 15 15 15 14 14 14 15 15 17 18 17 16 15 15 15 15 14 14 14 13 13 14 14 14 14 14 15 15 15
22 22 23 23 22 22 21 21 22 22 22 20 13 11 12 13 13 13 14 16 18 18 17 17 16 15 15 14 14 13 12 13 12 12 13 13 14 14 14 14 15 15 14
21 22 22 23 21 21 21 21 21 21 21 20 19 19 14 13 15 16 15 16 17 17 16 16 15 14 14 13 12 12 12 13 13 13 13 13 13 13 14 14 15 15 15
23 20 21 21 22 21 22 22 22 22 21 21 21 20 17 17 19 18 17 16 16 16 15 14 14 13 12 12 12 12 12 13 13 12 12 13 13 13 14 14 15 15 16
22 21 22 22 22 21 21 21 21 21 21 21 21 16 15 15 17 17 17 16 16 15 14 14 13 13 13 12 11 12 12 12 12 12 12 12 13 13 13 14 15 15 15
21 21 21 21 21 20 20 21 21 21 21 20 20 18 14 16 17 17 16 15 15 14 13 13 13 13 12 11 11 11 12 12 11 10 11 11 12 13 13 14 14 15 15
21 21 21 21 20 21 21 21 20 19 19 18 17 17 17 17 17 16 15 14 14 14 13 12 12 12 11 10 10 10 10 10 9 10 9 11 12 12 13 13 14 14 14
21 20 20 20 20 20 20 20 20 20 19 19 19 18 17 16 15 14 13 14 14 13 13 12 12 11 10 10 11 10 9 7 7 7 8 10 11 11 12 13 12 14 14
20 19 19 19 19 19 19 19 19 19 19 19 18 18 18 17 17 15 15 15 14 14 13 12 12 11 10 9 9 8 7 7 6 7 7 9 11 12 11 12 12 13 13

GFSGL_925_temp_009.txt.gz
Temp
28 28 27 27 27 26 26 27 26 26 26 25 24 24 23 23 22 21 22 22 22 22 21 22 22 22 22 23 24 24 24 24 23 23 23 23 21 21 21 21 20 21 20
29 28 28 27 27 27 26 26 26 25 25 24 23 23 23 22 22 22 21 22 22 22 22 21 22 22 21 21 22 23 23 22 22 22 22 22 22 22 21 21 21 21 21
30 29 28 28 27 27 26 26 25 25 24 24 23 22 22 22 22 22 22 21 22 22 22 22 22 22 22 22 22 22 22 22 22 22 22 22 21 21 21 21 21 20 20
32 31 30 28 28 27 27 26 26 24 24 23 23 21 21 22 22 22 22 21 22 22 22 22 22 22 21 21 21 21 21 21 22 22 22 21 21 21 21 22 20 20 20
33 32 31 29 28 28 27 26 25 24 23 22 22 21 21 22 22 22 22 22 21 22 22 22 21 21 21 21 21 21 21 21 22 22 22 22 22 22 20 20 20 20 20
33 33 32 30 28 28 27 26 24 23 23 22 22 21 21 22 23 23 22 22 22 22 21 21 22 22 21 21 21 20 19 19 18 19 20 20 20 19 19 18 18 19 20
33 32 32 30 28 27 26 25 23 22 22 22 21 20 20 21 21 21 21 22 22 22 21 21 21 22 21 20 19 19 19 19 18 18 18 18 17 17 17 17 18 17 17
31 31 30 29 28 26 25 23 22 22 21 21 20 21 21 21 21 21 21 21 22 22 22 21 21 21 20 19 19 19 18 19 19 18 18 17 17 17 16 16 15 15 16
30 29 29 28 27 26 24 23 22 21 21 21 20 21 21 21 21 20 20 21 20 21 21 21 21 19 19 19 19 19 18 18 18 19 18 17 17 16 16 15 16 18 18
29 28 28 27 26 25 24 22 22 22 21 21 21 21 21 21 21 20 20 20 20 21 21 20 19 19 18 18 18 17 18 18 19 19 18 17 17 17 17 16 16 17 17
29 28 27 26 25 25 23 22 22 21 21 20 21 21 21 21 21 21 20 20 22 23 21 20 19 19 17 17 16 16 17 17 17 17 17 18 19 19 19 19 17 16 17
28 27 26 25 25 23 22 22 21 20 20 21 21 21 22 20 20 20 20 19 20 20 20 21 20 18 16 17 17 16 15 15 16 17 18 19 19 19 19 18 16 16 16
26 26 24 23 22 22 22 20 20 20 20 21 21 22 21 19 18 18 18 18 19 19 18 19 17 16 16 16 16 14 14 15 16 18 19 19 18 18 17 17 17 17 17
23 22 21 21 21 20 20 20 20 20 21 22 22 20 20 19 19 17 17 16 18 18 16 17 16 16 16 16 15 15 14 16 17 17 17 17 17 17 17 17 17 17 17
24 22 21 21 21 19 19 19 20 19 21 22 23 21 21 20 19 19 18 17 18 19 19 19 18 19 19 18 17 17 16 17 17 17 17 17 17 17 17 17 16 16 17
23 23 22 22 21 20 19 17 18 19 19 21 21 21 19 20 19 18 19 18 19 18 18 19 21 21 21 20 20 19 18 18 17 16 16 16 16 16 16 16 16 16 16
25 25 25 25 25 24 24 23 21 17 18 19 19 18 18 18 18 18 18 18 18 17 18 21 21 20 20 19 19 18 18 17 15 15 16 16 16 16 16 16 16 16 16
25 24 25 26 26 26 25 24 24 22 21 18 15 16 17 17 17 17 17 16 16 16 18 20 20 20 19 18 17 17 17 16 16 16 15 15 16 16 16 16 16 16 16
24 25 26 26 26 25 25 24 25 25 24 20 14 13 14 15 14 15 15 16 20 21 21 20 19 18 18 17 16 16 15 15 14 13 14 15 15 15 16 16 16 16 16
24 24 25 25 24 24 24 24 25 25 24 20 19 18 14 13 14 15 15 18 19 20 20 19 18 17 16 16 15 15 14 15 15 15 15 15 15 15 16 16 16 16 17
25 24 24 25 25 25 25 25 25 25 25 24 22 20 17 17 20 20 20 19 18 19 18 18 17 16 15 15 14 14 14 15 15 15 14 15 14 15 15 16 16 17 17
25 24 24 25 25 24 24 24 24 24 24 24 19 18 18 19 20 20 20 18 18 18 18 17 16 16 16 15 14 14 14 15 15 14 14 14 14 15 15 15 16 16 17
24 25 24 24 23 22 23 24 24 23 23 21 18 17 18 19 20 19 18 18 17 17 17 16 16 15 15 14 13 13 14 15 14 13 12 13 14 14 14 15 16 16 16
23 24 23 23 22 23 24 23 22 21 22 22 21 19 19 19 18 18 18 17 17 16 16 15 15 15 15 13 13 13 13 12 11 12 11 12 13 13 13 14 15 15 16
23 22 22 22 23 22 23 23 22 22 21 20 19 18 18 17 17 18 17 15 14 15 15 15 15 14 13 12 13 12 11 10 9 9 9 11 12 13 14 14 14 15 15
22 22 22 22 22 22 22 22 22 21 20 19 20 19 18 18 17 17 16 15 15 15 15 16 14 14 13 12 11 11 10 9 8 8 8 9 12 13 12 13 14 14 15

GFSGL_925_temp_012.txt.gz
Temp
27 27 26 26 26 26 27 27 27 28 27 26 25 24 23 23 23 22 22 22 22 22 22 22 22 22 22 22 22 22 23 23 22 22 23 22 22 22 22 22 21 21 21
27 27 27 26 26 26 26 26 27 27 27 27 25 24 23 23 23 22 22 22 22 21 21 21 22 22 22 22 22 22 22 22 22 21 22 22 22 22 21 21 21 21 21
28 28 27 27 26 26 26 26 26 26 26 26 25 24 23 23 23 22 22 22 22 22 22 22 22 21 21 21 21 21 21 21 21 21 21 22 22 22 22 21 21 21 21
29 28 28 27 27 27 26 26 26 26 25 25 24 23 23 23 22 22 21 21 22 22 22 22 22 22 21 21 21 21 21 20 20 20 20 21 21 22 22 20 20 20 20
30 30 29 28 27 27 27 26 26 26 25 25 24 23 23 22 22 22 22 21 21 21 22 22 22 22 21 21 21 20 20 20 20 19 19 20 20 20 19 19 19 18 18
32 30 30 29 28 27 27 27 26 26 25 24 23 23 22 21 22 22 21 21 22 21 21 22 22 22 22 21 21 21 20 20 20 19 18 18 19 19 18 17 17 17 17
32 31 31 30 28 28 27 27 27 26 25 23 23 23 22 21 22 23 22 22 22 21 22 21 21 21 21 21 20 20 20 20 20 19 19 17 17 18 17 17 16 16 16
33 31 31 30 28 28 27 27 26 25 24 23 23 22 21 20 21 21 21 21 22 22 21 21 21 21 21 21 20 20 20 20 19 19 19 18 18 18 17 16 16 16 16
32 31 31 30 28 28 27 26 25 24 23 22 22 21 20 20 20 20 21 20 21 21 21 21 21 21 20 20 20 19 19 18 18 18 18 18 18 18 18 17 16 15 16
32 31 31 30 28 27 26 24 23 22 22 22 21 20 20 20 21 20 20 20 20 21 21 21 21 20 20 20 19 18 17 17 18 18 18 18 17 18 18 17 17 15 16
31 29 29 28 28 27 25 24 23 22 22 21 21 21 20 20 21 20 20 20 20 20 20 20 20 20 20 20 19 17 17 17 17 17 17 17 17 18 18 18 17 15 15
29 28 27 26 26 25 24 23 22 22 21 21 21 21 21 21 20 20 20 20 19 19 20 19 19 20 20 18 17 16 16 16 16 16 16 17 18 19 18 18 17 17 17
27 26 26 25 25 24 23 23 22 21 21 21 20 21 20 20 19 19 19 19 19 18 18 20 19 19 18 16 16 17 16 16 15 16 16 17 17 17 17 17 17 17 17
25 24 23 23 22 22 22 22 21 21 21 22 22 21 20 19 18 19 18 18 18 17 17 17 17 17 17 17 17 17 16 16 16 17 17 17 17 17 17 17 17 16 16
23 22 21 21 21 21 21 21 21 20 22 22 22 21 22 21 20 19 18 18 17 18 18 17 17 17 17 17 16 16 17 16 16 16 17 16 16 16 16 16 16 16 16
22 21 21 21 20 19 18 18 19 20 20 21 22 22 21 21 21 19 19 18 18 18 18 19 19 20 20 20 16 17 17 17 17 16 16 16 16 16 16 16 16 16 16
22 22 22 21 22 20 20 19 18 17 19 19 20 20 20 20 19 19 18 18 18 18 19 19 19 21 20 19 19 19 18 18 17 16 16 16 16 15 16 16 16 16 16
25 24 24 24 24 23 23 22 22 19 19 17 18 18 18 17 17 17 17 17 18 18 18 19 20 20 19 19 18 17 17 16 16 15 14 14 15 16 15 16 16 16 16
25 25 26 26 26 24 25 25 23 22 21 17 15 15 16 16 16 17 17 17 18 20 19 20 20 19 18 18 17 16 15 15 15 14 14 14 15 15 15 15 16 16 16
25 25 25 26 26 25 25 25 25 24 19 17 17 16 14 15 15 16 16 17 18 19 20 20 19 18 17 16 16 15 15 15 15 15 15 15 15 15 15 15 16 16 16
25 24 24 26 25 25 25 25 26 25 23 20 20 17 18 17 17 17 18 17 19 19 19 19 18 17 16 16 15 14 14 15 15 15 15 14 14 14 15 15 15 16 16
25 25 25 25 25 25 25 25 25 25 23 21 22 19 19 18 20 21 20 19 19 18 18 18 17 17 17 16 15 14 14 15 15 14 14 14 14 14 14 14 15 16 16
26 25 25 24 23 23 24 24 23 23 20 21 21 17 17 18 20 20 20 18 18 18 17 17 17 16 16 15 14 14 14 14 14 13 13 13 13 14 14 14 15 15 15
24 23 23 22 22 22 23 22 20 22 20 20 19 18 18 20 19 19 18 18 18 17 17 16 16 16 15 14 14 14 14 13 12 11 11 11 12 13 13 14 15 14 15
22 22 20 21 22 22 22 22 21 23 22 22 20 20 19 19 19 17 17 17 17 16 16 16 15 15 15 14 13 12 12 12 11 11 10 10 11 12 13 13 14 14 15
22 21 21 22 22 22 22 22 22 22 21 22 21 21 20 19 19 18 17 17 16 16 16 15 15 15 15 13 13 12 11 11 10 10 10 10 10 12 12 12 13 14 14

GFSGL_925_temp_015.txt.gz
Temp
25 25 25 25 25 25 25 26 27 27 27 27 26 25 24 23 23 23 22 22 22 22 22 22 22 22 22 22 22 22 22 22 20 22 22 22 22 22 22 22 21 21 21
25 25 25 24 24 24 25 26 27 27 27 27 26 25 24 24 23 23 22 22 22 21 22 22 21 21 22 22 22 22 21 21 21 20 21 22 22 22 22 21 21 21 21
26 25 25 25 25 24 25 25 26 27 27 26 26 25 24 24 24 23 23 22 22 22 22 22 21 21 21 22 22 21 21 21 21 21 20 21 21 21 21 21 21 20 20
26 26 25 25 25 25 24 25 25 26 26 27 26 25 24 24 23 23 23 22 22 22 21 21 21 21 21 21 21 21 21 21 21 20 20 20 20 20 20 20 20 19 19
27 26 26 25 25 25 25 24 25 25 25 26 25 24 24 23 23 22 23 22 22 22 21 21 21 22 21 21 21 21 21 21 20 20 19 19 19 19 19 19 18 18 18
27 27 26 26 25 25 25 25 24 25 25 25 25 24 23 23 23 23 22 22 21 21 21 21 21 22 21 21 21 21 21 21 20 19 19 18 18 18 18 18 17 16 15
29 27 27 26 26 25 25 25 25 24 24 25 24 24 23 23 22 22 21 21 21 21 21 21 21 21 21 21 21 21 21 21 20 20 20 19 18 19 18 17 17 16 16
29 28 27 27 26 26 25 25 25 25 25 25 24 23 23 23 21 20 21 21 21 21 21 21 21 21 21 21 21 20 20 19 19 19 19 18 18 18 18 17 17 16 16
28 28 28 27 26 26 25 25 25 25 25 24 24 24 22 21 20 20 21 21 21 21 21 21 21 20 21 21 20 20 20 20 19 19 18 18 18 18 18 17 17 15 14
30 28 28 28 27 26 26 25 25 25 25 24 23 22 21 21 20 20 20 21 21 21 20 20 21 20 20 20 19 19 19 19 18 17 17 17 17 17 17 17 17 15 14
30 29 28 28 26 26 25 26 25 24 24 22 22 21 21 21 20 20 20 20 20 19 20 20 20 20 20 20 19 19 19 18 17 17 17 17 17 17 17 17 17 17 16
29 29 27 26 25 25 26 24 23 23 22 21 21 21 21 21 20 20 20 20 20 19 20 20 20 20 20 19 19 19 17 17 17 17 16 16 16 17 17 17 17 17 16
28 26 26 25 24 24 22 22 22 22 21 20 20 20 20 20 20 20 20 20 19 19 19 19 19 20 20 19 18 17 17 17 17 16 15 16 16 17 16 17 16 16 16
24 23 24 23 23 23 22 22 21 20 20 20 21 20 20 20 20 19 19 18 18 18 18 17 18 18 18 18 17 18 17 17 17 16 16 16 16 16 16 16 16 16 16
22 21 21 21 21 21 21 20 21 21 22 22 21 21 20 19 19 19 19 18 18 18 17 17 16 17 17 17 17 16 17 17 16 16 15 15 16 16 16 15 16 15 15
20 20 20 19 19 19 19 18 20 21 21 21 22 21 21 21 20 19 19 19 18 17 16 16 17 17 17 17 17 17 16 16 16 15 16 16 15 15 15 15 15 15 15
20 20 20 19 19 19 19 19 16 17 19 20 21 20 21 21 20 20 19 18 18 17 17 18 18 19 18 18 18 17 16 16 15 15 15 15 15 15 15 15 15 15 15
21 20 20 20 20 20 20 19 19 18 18 18 19 20 20 20 19 18 18 18 17 18 18 19 19 19 18 18 18 17 16 15 15 15 15 15 15 14 14 15 15 15 15
22 21 21 21 20 20 19 19 19 19 18 18 18 17 18 18 18 17 17 17 18 18 19 19 18 18 17 17 16 16 15 15 15 15 15 15 14 14 14 15 15 15 15
23 23 23 23 22 21 21 21 19 18 18 18 16 16 15 16 16 16 17 17 18 18 19 18 18 18 17 16 16 15 15 15 15 15 15 14 14 14 14 14 14 14 15
24 23 24 23 21 22 24 23 20 19 18 18 17 18 19 18 17 17 17 18 18 19 19 18 17 17 17 16 16 15 14 14 15 14 14 14 14 14 14 14 14 14 14
24 24 24 24 24 23 24 25 22 20 18 18 18 17 18 18 17 18 18 18 19 18 19 18 17 17 16 16 15 14 14 14 14 13 13 13 13 13 13 14 14 14 14
23 24 23 24 24 23 22 22 22 20 20 19 20 18 17 17 18 18 19 18 18 19 18 17 17 16 16 15 15 14 14 13 13 13 13 12 12 12 12 13 13 13 14
23 23 22 22 22 21 21 20 20 21 21 21 20 19 17 18 18 19 19 19 18 18 18 17 16 16 15 14 14 14 13 13 13 13 12 12 12 12 12 12 13 13 13
22 21 20 20 20 21 20 20 21 20 20 20 19 19 19 19 18 18 18 18 17 17 17 17 16 15 15 15 14 13 13 12 12 12 11 11 11 11 11 12 12 13 13
21 21 21 20 20 21 21 21 21 20 20 19 19 19 19 19 19 18 18 18 17 16 16 16 15 15 15 14 14 13 12 12 11 11 11 11 11 11 11 12 12 12 13

GFSGL_925_temp_018.txt.gz
Temp
24 24 24 24 25 25 26 26 26 26 26 25 25 25 25 24 24 23 23 22 22 22 22 21 21 22 22 21 22 22 22 21 19 21 21 22 22 21 22 22 21 21 21
25 24 24 24 24 24 25 26 26 26 26 25 25 25 25 24 24 23 23 22 22 22 22 21 21 21 22 21 21 21 21 21 21 20 21 21 21 22 21 21 21 21 20
25 24 24 24 24 23 24 25 25 26 26 26 26 25 24 24 24 23 23 23 22 22 22 22 21 21 21 21 21 21 21 21 21 20 21 21 21 21 21 21 20 20 20
25 25 24 24 24 24 24 24 25 25 25 26 26 25 25 24 24 24 23 23 23 22 22 22 22 21 21 21 21 21 21 21 20 20 20 20 20 20 20 19 19 19 19
25 25 24 24 24 24 23 24 24 24 24 25 25 25 24 24 24 23 23 23 22 22 22 22 22 21 21 21 21 21 21 21 20 19 19 19 19 19 19 18 18 18 18
26 25 25 24 24 24 23 23 23 23 24 24 25 24 24 24 24 24 24 23 22 21 21 22 22 22 21 21 21 21 21 21 20 17 16 18 19 19 19 18 17 16 15
26 26 25 24 24 24 24 23 23 23 23 24 24 24 24 24 24 24 23 22 22 21 21 22 21 21 21 21 21 21 21 20 20 19 17 18 19 19 18 17 17 16 16
26 26 25 25 24 24 24 23 23 23 23 23 24 24 24 24 24 24 22 21 20 21 21 21 21 21 21 21 20 20 20 20 20 19 19 19 18 18 17 17 16 16 16
27 26 25 25 24 24 24 23 23 23 23 23 24 23 24 25 23 23 21 20 20 20 20 21 21 21 21 20 20 19 20 20 19 19 18 18 17 17 17 16 16 15 14
28 27 26 25 25 24 24 23 24 23 23 23 22 23 25 24 23 21 20 19 19 20 20 20 20 20 20 20 19 19 19 20 19 18 18 17 17 17 17 17 16 15 14
28 28 26 26 25 25 24 24 23 23 23 22 22 22 22 22 21 20 20 20 20 20 21 20 20 20 20 20 20 20 19 19 18 18 17 17 17 16 17 17 17 16 15
28 27 26 26 25 24 24 23 23 23 22 21 21 20 21 21 21 21 20 20 20 20 20 19 20 19 20 20 20 19 19 18 17 17 17 17 16 16 16 16 16 16 16
27 26 25 25 25 23 22 22 21 22 20 19 19 20 20 21 20 20 20 20 19 19 19 19 19 19 20 20 20 19 19 17 17 16 16 16 16 16 16 16 16 16 15
26 24 23 23 22 22 21 21 21 20 19 19 19 19 20 20 20 19 19 19 19 18 18 18 18 18 19 19 18 18 17 16 16 16 16 16 15 16 16 16 15 15 15
23 22 22 21 20 19 19 19 19 21 22 21 21 22 20 19 19 20 19 19 19 18 18 17 17 17 17 17 17 16 16 16 16 15 16 15 15 15 15 15 15 15 14
21 20 18 17 16 16 17 18 20 21 22 23 22 22 21 21 20 19 19 19 18 17 16 16 16 17 17 17 17 16 16 16 16 15 15 15 15 15 15 15 15 14 14
20 18 17 17 17 17 17 17 14 19 21 21 21 21 21 21 20 19 19 18 17 17 17 17 17 17 17 17 17 17 17 16 15 14 15 15 14 14 14 14 14 14 14
19 18 18 18 18 17 17 17 17 16 16 17 19 20 21 20 19 19 19 18 16 16 17 17 17 18 17 18 17 17 16 16 15 15 15 14 14 14 14 14 14 13 13
19 19 18 18 18 18 18 17 17 18 18 18 19 19 19 19 18 18 18 18 17 17 17 17 18 17 17 17 16 15 15 15 14 14 14 14 14 14 14 14 14 14 13
21 20 19 18 18 18 17 17 18 18 18 17 17 18 17 17 17 17 18 17 17 18 18 18 17 17 17 17 16 16 15 14 14 14 14 14 14 13 13 13 13 13 13
21 21 21 20 20 20 19 18 18 17 17 18 17 18 19 19 18 18 17 17 18 18 18 18 17 17 17 17 16 15 15 15 14 14 14 14 13 13 13 13 13 13 13
22 22 22 21 20 19 19 20 19 18 18 17 16 17 18 18 18 18 17 19 18 18 18 18 18 18 17 16 16 15 15 14 14 14 13 13 13 13 12 12 12 13 13
22 22 21 20 20 20 20 20 18 17 17 18 17 17 16 17 17 17 19 19 19 18 17 17 17 17 17 16 16 15 15 14 14 13 13 13 12 12 12 12 12 12 12
22 21 21 21 21 21 21 19 19 18 17 17 18 18 18 17 18 18 19 18 19 18 18 18 17 17 16 15 15 14 14 14 13 13 13 12 12 12 12 12 12 12 12
21 21 20 20 19 19 20 20 21 20 20 19 19 18 18 18 18 18 19 20 19 18 17 17 17 16 16 15 15 14 14 13 12 12 12 12 12 11 11 11 11 11 12
19 19 20 20 19 19 19 19 19 19 19 19 19 20 19 18 18 18 18 18 18 18 17 17 16 16 15 15 15 14 13 12 12 12 11 11 11 11 11 11 11 11 12

GFSGL_925_temp_021.txt.gz
Temp
24 24 24 24 24 24 25 26 26 26 25 25 25 25 24 24 23 23 23 23 22 22 22 21 21 21 21 21 21 21 21 21 19 21 21 22 22 22 21 21 21 21 21
25 24 24 24 23 23 24 26 26 26 25 25 25 24 25 24 24 23 23 23 22 22 22 21 21 21 21 21 21 21 21 21 20 20 21 21 21 21 21 21 21 21 20
25 24 24 24 23 23 24 25 25 25 25 25 25 25 25 24 24 23 23 23 23 23 22 22 22 21 21 21 21 21 21 21 20 19 20 20 20 20 21 21 20 20 20
25 24 24 24 23 23 24 24 24 24 25 25 25 25 25 25 24 24 23 23 23 23 22 22 22 21 21 21 21 21 21 20 20 19 19 19 19 19 19 20 20 20 19
25 24 24 24 24 23 23 24 24 24 23 24 24 24 24 24 24 24 23 23 23 23 21 21 22 21 22 21 21 21 21 20 19 18 17 17 18 19 17 17 18 18 18
25 25 24 24 24 23 23 23 23 23 23 23 23 24 24 24 24 25 24 23 23 22 21 22 21 21 21 21 21 21 21 20 19 18 18 18 19 18 17 17 16 16 15
25 25 25 24 24 23 23 22 22 22 22 23 23 23 23 24 25 25 24 23 22 21 21 21 21 21 21 21 21 21 20 20 19 19 19 19 18 18 17 16 16 15 15
25 25 25 24 24 23 23 22 22 22 22 22 22 23 24 25 25 24 24 22 21 21 21 21 21 21 21 21 21 20 20 20 19 19 19 19 18 18 17 16 16 15 15
25 25 25 24 24 23 23 22 22 22 21 21 22 23 24 23 24 24 23 20 19 20 20 20 20 20 20 21 20 20 20 19 19 19 19 19 18 17 16 16 16 15 13
26 25 25 24 24 23 23 23 22 22 22 21 22 23 23 23 24 24 23 20 18 19 21 20 20 20 20 20 20 20 19 19 19 19 19 18 17 17 16 16 16 14 13
26 26 25 25 24 24 23 23 22 22 22 22 22 22 23 24 24 22 21 20 20 20 20 20 20 20 20 20 20 19 19 20 19 18 17 17 17 16 16 16 16 16 15
27 26 26 25 24 24 23 22 22 22 22 22 21 21 22 23 23 21 21 20 20 20 20 20 20 20 20 19 19 19 19 19 18 17 16 17 16 16 16 16 16 16 16
27 27 25 25 24 24 22 22 22 22 22 21 20 20 19 20 20 21 21 20 19 19 20 19 19 19 19 19 19 18 17 18 17 17 17 17 16 16 16 16 16 15 15
27 26 26 24 24 23 23 22 22 22 21 20 20 19 18 19 20 19 20 19 19 19 19 18 18 18 18 18 18 16 16 16 17 17 16 16 15 15 15 15 15 15 15
26 26 25 24 24 22 22 22 22 21 20 20 19 19 18 17 19 21 20 20 19 19 18 17 17 17 17 16 16 16 16 16 17 16 16 15 15 15 15 15 14 14 13
25 23 23 22 18 17 17 17 19 19 19 19 20 20 20 20 21 21 20 19 19 18 16 16 16 16 17 17 17 17 17 16 16 15 15 14 15 15 14 14 14 13 13
23 20 19 18 17 18 18 18 17 19 17 19 20 21 22 21 20 19 19 18 17 17 17 16 17 17 17 17 17 17 16 16 16 15 14 14 14 14 13 13 13 13 13
18 18 18 18 18 18 18 17 16 16 16 15 20 21 20 20 19 18 18 17 15 15 17 17 17 17 17 18 17 17 16 16 16 14 14 14 14 13 13 13 13 12 12
19 18 18 18 18 16 16 16 16 16 15 15 18 19 19 19 19 19 18 19 16 16 16 17 17 17 18 17 17 17 17 16 15 15 14 14 14 13 13 13 13 12 12
16 17 17 16 16 16 16 16 16 16 15 16 16 16 16 17 16 16 17 18 17 17 17 17 17 17 17 17 17 16 16 15 14 14 14 14 13 13 13 13 12 12 12
17 17 17 17 16 16 16 17 16 15 15 15 17 18 18 17 16 17 17 18 18 17 18 18 17 17 17 17 16 16 15 14 14 14 14 14 13 13 12 12 12 12 12
18 18 18 18 17 17 16 17 17 16 16 16 16 17 17 18 17 18 17 17 18 18 19 19 19 18 18 17 16 16 15 15 15 14 14 13 13 12 12 12 12 12 12
20 20 19 18 19 18 18 18 17 17 16 15 16 16 15 17 17 17 18 18 18 18 18 19 19 18 17 17 17 16 16 15 15 14 14 13 12 12 12 11 11 12 12
20 19 18 18 18 17 17 18 17 17 16 16 16 17 17 17 17 18 19 18 18 17 17 18 18 17 17 16 16 15 15 15 14 13 13 13 12 12 12 11 11 11 11
21 20 19 19 18 18 18 17 16 16 16 17 17 17 17 19 18 18 19 18 18 18 18 17 17 17 17 17 16 15 14 14 14 13 12 12 12 11 11 11 11 11 11
19 19 19 20 20 20 19 18 18 18 17 17 18 18 17 17 18 18 18 18 18 18 17 17 17 17 16 16 15 15 14 14 13 12 12 11 11 11 10 10 11 11 11

GFSGL_925_temp_024.txt.gz
Temp
23 23 23 23 23 23 23 25 26 26 26 25 25 25 25 24 24 23 23 22 22 22 21 21 21 21 21 21 21 21 21 21 20 21 21 21 21 22 21 21 20 20 21
23 23 23 23 22 22 23 24 26 26 25 25 25 25 25 25 24 24 23 22 22 22 22 21 21 21 21 21 21 20 21 21 20 20 21 21 21 21 21 21 20 20 20
24 23 23 23 22 22 23 24 25 25 26 25 25 25 25 24 24 24 24 23 23 23 22 22 22 21 21 20 20 20 20 20 20 19 20 20 20 20 20 20 20 20 20
25 23 23 23 23 23 23 24 24 25 25 25 25 25 25 25 24 24 24 23 23 23 22 22 22 21 21 21 20 20 20 20 19 19 18 19 18 19 19 19 19 19 19
25 24 24 23 23 23 22 23 24 24 25 25 25 24 24 25 25 24 24 24 23 23 22 22 22 21 21 21 21 21 20 20 19 18 18 17 17 18 18 18 18 18 18
25 24 24 24 23 23 23 23 23 23 23 23 23 23 23 24 25 25 25 24 23 22 22 22 21 21 21 21 21 20 20 20 19 18 18 17 17 18 18 18 17 16 16
25 24 24 24 23 23 22 22 23 22 22 23 22 22 23 24 24 24 25 24 24 23 22 21 21 21 21 21 21 20 20 19 19 19 18 18 19 19 18 17 17 16 15
25 24 24 23 23 23 22 22 22 22 22 21 22 22 22 23 24 24 24 23 23 23 23 22 22 21 21 21 20 20 20 20 20 20 19 19 19 18 18 17 17 15 15
25 24 24 23 23 23 22 22 22 22 21 21 21 21 22 23 24 24 23 22 21 22 22 21 21 21 21 20 20 19 19 19 19 19 18 18 18 18 17 16 15 14 14
25 25 24 24 23 23 23 23 22 22 21 21 20 22 24 23 24 24 23 22 19 19 19 20 21 20 20 19 19 19 19 19 19 18 18 17 17 17 16 16 16 14 13
25 25 24 24 23 23 23 23 22 22 21 21 21 20 22 22 23 24 24 21 19 18 18 19 19 19 19 19 19 19 20 20 19 18 17 17 17 17 17 16 16 16 15
25 25 24 24 23 23 23 22 22 22 22 21 21 21 21 22 23 24 22 21 21 20 19 20 20 19 19 19 19 19 19 18 18 17 17 17 17 17 16 16 16 16 16
26 25 24 24 24 24 23 22 22 22 22 22 21 21 21 20 21 22 21 21 21 20 21 20 20 19 19 19 19 19 18 18 18 17 16 17 17 16 16 15 15 15 15
26 25 25 24 24 23 22 22 22 22 22 22 22 21 21 19 19 20 20 19 19 19 19 19 19 19 19 19 18 18 17 17 17 17 16 16 16 15 15 15 15 15 15
24 25 25 24 23 23 22 22 22 22 22 23 22 21 19 18 18 17 17 18 18 18 18 17 18 18 18 17 16 16 16 16 16 16 16 16 15 15 14 14 14 14 13
22 23 24 23 22 19 17 17 21 21 22 20 19 19 19 19 17 18 19 18 18 18 17 16 16 17 17 16 15 15 15 15 15 16 15 15 15 14 14 13 13 13 12
22 22 21 21 18 17 18 18 16 17 19 19 18 18 19 18 18 18 19 18 18 17 17 16 16 16 16 16 16 16 16 16 16 16 15 15 14 14 14 13 13 12 12
20 20 19 19 18 19 18 18 17 16 15 14 17 20 22 21 20 19 17 17 15 16 18 17 17 17 16 16 16 17 16 16 16 15 15 14 14 14 13 13 12 12 11
17 18 18 19 19 17 16 16 17 16 15 14 13 15 18 19 18 18 17 17 15 15 16 16 17 17 17 17 17 17 17 17 17 16 15 14 14 13 13 13 12 12 12
17 19 18 17 16 17 16 16 16 16 14 13 14 11 11 15 13 14 17 17 16 16 17 17 17 17 17 17 17 17 17 16 16 15 14 14 13 13 13 13 12 12 11
17 17 17 17 15 15 15 16 15 15 14 15 15 13 14 15 14 15 16 17 17 17 17 17 17 18 18 17 17 17 17 16 15 15 14 14 13 13 13 12 12 12 11
16 17 17 17 15 15 15 15 16 15 15 14 13 13 15 16 16 16 17 18 18 18 18 18 18 18 18 17 17 17 16 16 15 14 14 13 13 12 12 12 11 11 11
17 17 16 16 16 15 15 14 15 14 14 14 14 15 16 16 17 18 18 18 18 18 18 18 19 18 17 17 18 17 16 16 15 15 14 13 12 12 12 11 11 10 11
18 17 16 16 16 16 15 16 16 16 15 14 14 13 13 16 17 17 18 18 18 18 18 18 18 18 18 17 17 16 16 15 15 14 14 13 12 12 12 11 11 11 11
19 18 17 17 18 17 16 16 16 16 15 16 16 16 16 16 16 16 17 18 18 17 17 18 18 18 18 17 16 16 15 15 14 13 13 13 12 11 11 11 10 10 10
17 17 18 18 16 15 16 15 15 14 14 14 14 15 16 17 16 17 16 16 17 16 17 18 18 17 17 16 16 15 15 14 14 13 13 12 11 11 10 10 10 10 10

GFSGL_925_temp_027.txt.gz
Temp
23 23 23 23 23 23 23 23 24 25 25 24 24 24 24 25 24 23 23 22 22 21 21 20 20 20 21 21 21 21 21 21 23 23 21 21 21 21 20 21 21 21 20
24 24 23 23 23 23 23 23 24 24 24 25 24 24 23 23 24 24 22 22 22 21 21 20 20 20 19 19 20 20 21 20 22 22 22 21 20 20 20 20 20 20 20
25 24 24 23 23 23 23 23 23 23 23 24 23 23 23 23 23 24 23 22 22 22 21 20 21 20 19 20 20 20 21 20 20 21 22 21 20 20 20 20 19 19 19
26 25 24 24 24 23 23 23 23 23 23 23 24 24 24 23 22 24 23 22 21 21 21 21 21 20 20 21 19 19 20 20 20 20 21 21 20 20 19 20 20 19 19
26 25 25 24 24 23 23 23 23 23 23 24 23 23 24 23 23 22 23 22 21 21 21 21 21 22 22 22 20 20 20 19 20 20 20 20 20 19 18 20 20 19 18
26 25 25 24 24 23 23 23 23 23 22 22 23 23 23 23 23 23 25 22 21 21 21 21 21 21 22 22 22 21 20 20 20 21 21 21 20 18 18 19 20 19 20
26 25 25 24 24 23 23 23 23 23 22 22 23 23 23 23 24 25 25 23 22 22 22 21 20 20 22 22 21 21 20 20 20 19 20 20 18 19 18 17 18 18 18
26 26 25 24 24 23 23 23 23 23 23 23 22 23 23 23 23 25 26 25 22 22 22 21 20 20 20 22 19 19 19 19 20 19 19 19 20 18 18 18 17 17 17
26 25 25 24 24 24 23 23 23 23 23 23 23 22 22 23 22 24 25 23 22 21 21 21 20 20 21 22 19 19 18 18 19 19 19 19 18 18 18 17 17 17 19
26 25 25 25 24 24 24 23 23 23 23 23 23 22 22 23 22 23 24 23 22 22 21 20 20 20 21 21 19 19 19 19 18 18 18 17 17 17 18 17 18 18 19
27 26 25 24 24 24 24 23 23 23 24 23 23 23 22 21 22 23 24 22 23 22 21 19 20 21 20 20 19 19 20 20 18 18 17 17 16 16 16 17 16 17 18
26 26 25 24 24 24 23 23 23 23 23 23 23 22 22 22 22 21 23 23 21 21 19 20 20 21 20 19 19 19 19 19 18 18 18 18 17 18 17 16 15 15 16
25 25 25 24 24 25 23 23 23 22 23 23 22 22 22 21 21 21 22 21 20 20 19 20 20 21 19 19 19 19 18 18 18 19 19 18 18 18 16 15 15 16 16
26 25 25 24 24 24 24 24 23 22 22 23 22 21 22 21 21 20 20 20 19 19 19 18 19 18 18 18 18 18 17 18 18 19 18 18 17 16 16 16 16 16 16
25 25 25 25 24 24 24 24 24 23 24 23 24 22 22 19 18 18 17 16 17 17 17 17 17 16 15 16 16 15 17 16 17 17 17 17 17 17 16 15 15 15 16
24 25 25 26 26 25 24 21 23 24 23 23 23 22 21 20 18 18 20 19 17 18 18 16 16 16 16 17 16 16 16 16 17 16 17 17 17 17 16 15 15 15 16
20 21 23 23 26 25 19 20 19 19 21 22 22 22 22 18 17 18 19 21 18 17 16 16 16 16 17 17 17 17 17 16 15 16 17 17 17 16 15 15 15 15 15
19 19 18 20 22 19 19 19 17 17 16 14 16 18 18 17 19 19 18 17 16 17 16 16 16 16 16 16 17 17 17 16 16 16 16 16 16 16 15 16 15 15 15
19 18 17 17 17 17 18 18 18 16 16 15 14 15 16 18 19 17 16 15 15 16 17 17 16 16 16 17 17 17 17 17 17 16 16 16 16 15 15 15 15 14 14
18 17 17 17 17 18 17 16 16 16 15 14 14 13 13 13 13 13 15 15 16 16 16 16 17 17 17 17 17 16 16 15 15 16 16 15 15 15 16 15 15 15 14
18 19 17 18 17 17 16 16 16 16 15 16 14 12 12 14 13 14 15 15 15 16 17 18 17 17 16 16 16 16 17 17 16 16 16 15 15 15 14 15 15 15 14
18 18 18 17 17 16 15 16 16 15 15 14 13 13 14 15 15 15 16 17 17 17 17 17 17 17 17 17 16 17 17 17 16 16 15 15 14 14 14 14 14 14 14
17 17 17 16 16 16 15 15 15 14 14 13 13 13 15 15 16 16 17 18 17 16 17 17 17 17 16 16 16 17 17 17 16 16 15 15 14 14 14 14 14 14 14
18 17 17 16 16 16 16 15 14 14 14 14 13 14 16 16 16 16 17 17 17 17 17 17 17 18 16 17 17 17 17 17 16 15 14 14 14 13 14 14 14 14 14
17 15 15 17 17 16 16 15 14 14 14 13 13 13 14 15 16 17 17 17 17 17 16 16 17 17 17 17 16 16 16 15 15 14 13 13 13 13 13 13 13 13 13
16 15 14 15 15 15 16 16 15 15 14 13 13 13 14 14 14 16 16 16 16 16 17 17 17 17 17 17 16 17 16 15 15 14 13 13 13 13 13 12 12 13 13

GFSGL_925_temp_030.txt.gz
Temp
27 26 26 26 26 25 25 25 25 26 26 26 26 25 25 25 24 24 24 25 23 23 23 24 22 23 25 25 24 25 25 25 26 27 25 24 22 22 23 22 22 22 23
28 26 26 26 26 26 25 25 25 25 25 25 25 25 25 25 25 24 24 25 24 23 23 23 23 23 22 23 24 24 24 25 25 25 25 24 21 22 22 21 22 23 23
28 27 27 26 26 26 25 25 25 25 25 26 25 25 25 25 25 24 24 24 25 24 24 23 23 23 22 24 23 24 23 23 23 24 25 24 24 22 21 21 21 21 22
30 29 28 27 26 26 26 25 25 25 25 25 25 25 25 25 25 25 25 25 25 24 24 24 23 23 23 22 22 22 23 24 23 23 24 24 23 23 22 23 23 21 22
31 30 29 27 27 26 26 25 25 25 25 25 25 25 25 26 26 25 25 25 25 25 24 24 23 23 23 22 22 22 23 22 24 24 24 24 24 24 23 23 22 21 23
31 30 29 28 27 26 26 25 25 25 25 25 25 25 25 26 27 26 25 25 25 25 24 24 23 23 22 22 22 23 22 22 23 24 24 25 24 23 22 22 22 23 23
30 29 28 28 26 26 26 25 25 25 25 25 25 25 25 25 26 26 25 25 25 25 24 24 24 24 22 21 20 22 22 21 21 22 22 23 23 22 21 20 21 21 21
29 29 28 27 27 26 26 25 25 25 25 25 25 25 25 25 25 26 25 24 25 25 25 24 24 25 23 21 21 19 20 20 20 20 21 21 21 21 19 20 20 19 20
29 28 28 27 27 26 26 25 25 25 25 25 25 25 25 25 25 25 25 24 25 25 25 24 24 24 23 22 21 21 21 21 21 20 20 20 20 19 19 20 20 19 21
29 28 28 27 27 26 26 26 25 25 25 26 25 25 25 25 25 24 24 25 25 25 25 24 24 24 23 22 20 21 21 21 19 19 19 19 19 18 18 18 20 21 22
29 29 28 27 27 26 26 25 25 25 26 25 26 26 25 25 24 25 24 23 26 26 27 25 25 22 22 21 21 20 20 21 20 20 19 19 19 18 18 17 19 20 21
30 29 28 27 27 27 26 26 25 25 25 25 24 25 25 25 24 24 24 23 25 27 27 27 25 23 21 20 21 20 19 20 20 21 21 21 20 20 20 19 18 19 19
29 29 28 27 27 27 26 25 25 25 26 25 26 26 27 26 25 24 24 23 22 24 27 26 23 22 21 19 20 19 19 20 22 22 21 21 21 21 20 18 17 16 16
28 28 27 27 27 27 27 26 26 27 26 27 28 28 28 27 26 24 22 22 22 21 23 22 21 20 19 18 18 18 18 21 21 21 21 21 21 20 19 19 19 18 18
28 28 28 28 27 27 27 28 28 28 29 27 28 28 28 26 24 23 21 20 20 19 19 19 18 17 16 17 16 17 18 20 20 21 21 21 20 19 20 19 19 19 19
27 29 29 30 30 28 29 27 27 27 27 27 27 27 28 27 26 22 19 20 19 18 17 16 16 16 16 16 16 16 18 19 20 20 20 20 20 20 20 19 19 19 19
24 24 27 27 29 30 30 29 30 24 25 25 25 25 25 25 23 21 20 20 18 18 18 17 17 16 16 16 16 17 18 18 19 19 20 20 20 20 19 19 18 18 18
21 21 24 24 25 26 25 25 26 24 23 22 21 21 22 23 22 21 20 17 17 18 18 17 18 17 17 16 16 17 18 19 19 19 20 20 20 20 19 19 19 19 18
23 23 23 22 20 18 18 17 17 17 16 15 14 15 14 20 19 19 19 17 16 17 18 18 17 17 18 17 18 19 19 19 19 19 19 20 19 19 19 19 19 18 17
21 20 21 22 22 21 20 17 17 16 16 16 15 14 13 12 11 13 16 16 16 17 17 18 18 17 18 19 19 20 19 19 19 19 19 19 19 19 19 19 19 18 17
23 23 21 23 22 21 21 20 20 20 19 16 14 14 14 15 14 15 16 16 17 18 18 18 18 17 19 20 19 19 20 19 19 19 19 19 19 19 19 19 18 18 18
22 22 23 23 22 20 21 20 20 20 19 17 14 13 14 14 15 16 16 16 17 17 18 18 19 18 19 19 19 19 19 20 19 19 19 19 18 18 18 18 18 18 18
21 20 19 20 20 20 20 19 18 17 16 15 14 13 15 15 15 15 16 16 17 17 18 19 19 19 19 20 19 20 20 20 19 19 19 18 18 18 18 18 18 18 18
22 22 21 20 19 19 17 16 15 14 14 14 14 15 16 15 15 16 16 16 17 18 19 19 20 20 19 19 19 20 20 20 19 18 18 18 18 17 17 17 17 17 17
20 19 19 19 20 19 17 16 17 16 14 14 14 14 17 18 18 19 19 19 19 19 20 20 20 19 19 20 20 20 20 19 18 18 17 17 17 17 16 17 17 17 17
18 17 17 17 17 16 17 16 14 14 13 13 13 13 14 15 17 18 18 19 19 20 20 20 20 20 19 19 20 19 18 18 17 16 16 16 16 16 16 16 16 16 16

GFSGL_925_temp_033.txt.gz
Temp
27 27 27 26 26 26 27 27 27 27 28 28 27 27 26 26 25 25 25 27 25 24 25 25 24 24 27 27 27 27 27 27 27 28 28 25 24 23 23 23 23 23 23
28 28 27 27 27 27 26 27 27 27 27 27 27 26 26 26 26 25 25 27 26 25 24 25 25 24 23 25 26 26 26 27 26 26 27 25 24 23 22 22 22 24 24
29 29 28 28 28 28 27 26 27 27 27 27 27 27 26 26 26 26 25 25 26 26 25 24 24 24 24 25 25 26 26 25 25 25 26 26 25 23 23 22 22 22 22
32 31 30 29 28 28 28 27 27 27 26 26 27 26 26 26 26 26 26 25 25 26 25 25 24 24 24 23 24 24 25 25 25 25 25 26 26 25 24 24 23 22 23
33 32 31 29 29 28 28 28 27 27 26 26 26 27 26 26 27 26 26 26 25 25 26 25 25 24 24 23 23 24 24 24 25 26 25 25 26 26 25 24 24 24 23
34 33 32 30 29 28 28 27 27 27 27 26 26 26 27 27 27 27 26 26 26 25 26 26 25 25 24 24 23 24 23 24 24 25 26 26 25 25 25 24 24 23 23
33 33 32 31 29 28 28 27 27 27 27 26 26 26 27 27 27 28 27 26 26 26 26 26 26 26 24 23 23 23 23 23 23 23 23 24 25 24 24 22 22 22 22
32 32 31 31 30 28 28 27 27 27 26 27 26 26 26 27 27 27 28 27 26 26 26 26 26 26 26 23 23 22 22 22 22 22 22 22 22 23 21 21 21 20 20
32 31 31 30 30 29 28 27 27 27 27 26 26 26 26 26 27 26 27 26 26 26 26 26 26 26 26 24 23 23 21 21 21 21 22 22 22 22 21 21 21 20 20
31 31 30 30 29 29 28 27 27 27 27 27 26 26 26 26 26 26 26 26 27 26 26 26 26 25 25 25 23 23 23 21 21 21 20 20 20 21 20 20 21 21 20
32 31 30 29 29 28 28 27 27 27 27 26 27 27 26 26 26 26 26 25 27 27 27 27 26 25 25 25 24 23 23 22 21 21 19 19 18 19 19 19 19 20 22
33 31 30 29 29 29 28 27 27 27 26 27 26 27 27 26 26 25 25 26 26 27 28 28 28 26 25 24 24 23 22 22 21 20 19 20 20 20 21 20 19 19 20
31 30 30 29 28 29 28 27 27 27 27 27 28 28 28 29 27 26 25 25 25 25 27 29 28 28 26 24 23 22 21 21 20 19 20 21 22 21 21 20 19 19 18
30 30 29 29 28 28 28 28 28 29 28 28 30 29 30 29 29 29 26 25 24 24 24 26 27 28 27 22 22 21 20 19 20 20 21 22 21 21 20 20 19 18 18
29 29 29 29 29 29 28 30 30 29 30 30 30 30 31 31 31 30 30 27 22 21 22 21 20 18 18 18 19 19 18 18 19 20 20 19 20 21 21 20 20 19 19
29 30 31 31 31 29 30 28 28 28 28 29 29 28 28 29 29 29 29 28 24 22 21 19 18 18 18 17 17 17 18 18 18 18 19 18 19 20 21 20 20 20 21
28 27 30 30 32 33 32 31 31 29 29 28 28 27 25 25 26 25 25 26 25 22 20 19 19 18 18 17 17 17 17 18 18 18 19 19 20 21 20 20 20 20 20
24 24 28 28 29 29 29 29 29 29 29 27 21 22 22 23 23 22 22 23 19 20 20 19 18 18 18 17 17 18 18 18 17 18 19 19 20 21 20 20 21 20 20
26 26 26 25 23 23 23 22 22 20 19 18 19 19 20 20 20 19 17 19 17 17 19 18 18 18 17 17 18 18 18 18 19 18 19 20 21 21 21 21 21 21 20
23 23 24 25 25 25 25 24 23 22 21 20 20 19 16 15 16 14 13 14 15 17 19 19 18 17 17 18 18 18 18 19 19 19 20 21 21 21 21 21 21 21 19
26 25 24 25 24 24 24 24 24 24 22 22 20 16 14 16 18 18 16 16 16 17 17 18 18 18 18 19 19 19 20 20 20 20 21 20 20 21 21 21 21 21 20
25 26 26 26 25 24 24 23 23 22 20 20 21 17 15 16 17 17 16 17 17 17 17 18 17 18 18 19 19 20 20 20 21 21 21 20 20 20 21 21 21 20 20
24 23 23 22 23 23 22 21 19 18 18 17 17 18 16 17 17 17 16 17 17 17 17 17 18 18 18 19 20 20 21 21 20 20 20 20 20 20 20 20 20 20 20
21 21 23 22 22 22 22 21 17 15 15 15 16 16 16 15 15 16 16 16 17 17 18 17 18 18 19 19 19 20 20 20 20 20 20 20 20 20 20 20 20 20 20
21 22 20 19 20 17 17 16 16 15 14 14 14 14 16 18 18 17 18 17 16 17 17 17 17 18 19 19 19 21 21 20 20 20 20 20 20 19 19 19 19 19 19
20 19 19 19 19 18 15 13 12 11 11 11 12 12 12 14 15 18 20 21 20 20 20 20 20 20 19 20 20 21 21 20 20 19 19 19 19 18 18 18 19 19 19

GFSGL_925_temp_036.txt.gz
Temp
26 26 26 25 25 25 26 27 27 28 28 29 27 26 26 26 25 25 25 26 25 25 25 25 25 25 26 27 27 27 27 27 26 27 27 26 25 25 24 24 23 23 23
27 26 26 26 26 25 25 26 27 27 28 28 28 27 26 26 25 25 25 25 26 25 25 25 25 24 25 26 26 27 27 27 27 26 26 25 25 25 24 23 23 23 23
28 27 27 26 26 26 26 26 27 27 27 27 27 27 27 26 25 25 25 25 26 25 24 24 25 24 24 25 26 26 26 26 26 25 25 25 25 24 23 23 23 22 23
30 28 28 27 27 26 27 26 26 27 26 27 27 27 27 26 26 25 25 25 25 26 25 24 24 24 24 24 25 25 26 25 25 25 25 25 25 24 24 23 22 22 22
32 30 29 28 28 27 27 27 26 26 26 26 27 27 26 26 26 26 26 25 25 25 26 26 25 24 24 24 24 24 25 25 25 24 24 25 25 25 23 24 23 23 23
33 32 30 29 28 28 28 27 27 26 26 26 26 26 27 26 26 26 26 26 25 25 25 25 25 25 24 24 24 24 24 24 24 24 24 24 24 25 25 24 24 23 23
33 32 32 30 29 28 28 28 27 27 26 26 26 26 26 26 27 27 27 26 26 26 25 25 25 25 25 24 24 24 24 24 24 24 24 25 25 25 25 24 24 23 22
33 33 32 31 30 29 28 28 27 27 27 26 26 26 26 26 26 27 27 27 26 26 26 25 25 26 25 25 24 24 23 24 23 24 24 24 25 24 24 24 23 22 21
33 32 32 31 30 29 28 28 27 27 27 27 26 26 26 26 26 26 27 27 26 26 26 26 25 25 25 26 24 22 22 23 23 23 23 23 22 23 22 22 21 21 20
32 32 32 31 31 30 29 28 27 27 27 27 27 26 26 26 26 26 26 26 26 26 26 26 26 25 25 25 25 23 22 22 21 22 22 22 22 22 22 21 21 21 20
32 32 31 31 30 30 29 28 28 27 27 27 27 27 26 26 26 26 26 26 26 26 26 26 26 26 26 25 25 24 23 22 22 22 21 20 20 21 20 21 21 21 21
35 32 31 30 29 30 29 28 28 27 27 27 26 26 27 26 26 26 26 26 26 26 27 27 27 26 26 26 25 25 24 23 22 21 21 18 19 19 19 19 19 20 21
33 32 31 30 29 29 29 28 27 27 27 27 27 27 27 27 27 27 26 26 26 25 25 26 27 27 27 26 26 25 24 23 22 21 19 19 19 19 19 18 19 19 19
32 31 30 30 29 28 28 28 28 28 27 27 28 27 28 28 28 27 28 27 26 26 25 25 25 26 25 24 25 25 24 22 22 21 20 19 19 19 19 19 19 18 18
30 30 30 29 29 28 28 29 28 28 28 28 28 28 29 29 28 26 28 28 27 27 25 24 23 23 24 22 21 20 22 21 21 20 19 19 19 19 19 19 19 17 17
29 29 30 30 30 29 28 28 29 29 28 29 29 28 28 26 26 27 27 27 27 26 22 23 23 22 21 21 19 20 20 20 20 20 19 18 18 18 17 17 17 16 17
27 28 30 30 32 29 29 30 28 24 24 24 23 22 22 22 23 24 23 23 23 24 23 22 22 22 20 20 20 20 20 19 19 19 19 18 17 17 16 16 17 18 18
26 27 29 26 27 26 25 25 26 25 26 23 22 21 20 21 22 22 22 22 19 21 22 22 22 21 20 19 19 19 19 18 18 18 18 18 17 16 16 17 17 18 19
27 27 26 24 24 24 24 24 24 23 22 22 21 21 20 20 20 20 18 16 15 17 18 19 20 20 20 19 19 19 18 18 18 18 17 17 16 16 17 18 18 19 19
24 25 26 26 25 26 25 25 24 23 23 22 21 19 18 18 20 20 19 16 15 16 17 17 18 19 19 19 19 18 18 18 18 17 17 17 16 17 17 18 20 20 19
25 25 25 25 25 25 25 25 24 24 23 22 21 18 17 16 19 18 18 17 17 17 17 17 17 17 18 18 18 18 18 18 17 17 17 17 17 18 19 20 20 20 20
27 26 26 25 24 24 24 23 22 21 20 20 20 18 18 19 19 19 18 18 17 17 17 18 18 18 19 19 19 17 17 17 17 18 18 19 19 20 20 20 20 20 20
24 24 24 23 22 22 20 18 18 17 17 18 18 18 18 18 18 18 17 17 17 17 17 17 17 17 17 17 18 18 18 18 18 18 19 20 20 20 20 21 21 21 20
20 21 21 19 18 17 17 16 15 14 14 14 14 14 16 17 17 17 16 17 16 17 17 17 17 17 17 17 17 17 17 18 18 20 20 20 20 20 20 20 20 20 20
20 20 19 18 17 15 14 12 12 11 11 11 12 12 13 13 14 15 16 17 18 17 18 18 18 17 17 17 18 18 18 19 20 20 20 20 20 20 20 20 20 20 20
19 19 19 18 17 16 14 12 11 11 10 10 10 10 11 11 12 12 13 13 13 17 18 19 18 18 18 18 19 20 20 20 20 20 20 20 20 20 19 19 19 19 19

GFSGL_925_temp_039.txt.gz
Temp
24 24 24 24 24 24 25 26 27 27 28 28 28 27 26 26 25 25 25 25 25 25 24 24 25 26 26 26 26 27 27 27 25 26 26 26 25 25 25 24 23 23 23
25 24 24 24 24 24 24 25 27 27 28 28 27 27 26 26 25 25 25 25 25 25 25 24 25 25 25 26 26 26 27 27 26 26 25 25 25 25 25 23 24 23 23
25 25 24 24 24 23 24 25 26 27 27 28 27 27 27 26 25 25 25 25 25 25 25 25 25 25 25 25 26 25 26 26 26 26 26 25 25 25 24 23 24 24 23
26 25 25 24 24 24 24 24 25 26 26 27 27 26 26 27 26 25 25 25 25 25 25 25 25 25 25 25 25 26 25 25 26 25 25 25 25 24 24 24 23 23 23
27 26 25 25 25 25 25 24 24 25 25 26 26 27 27 26 26 25 25 25 25 25 25 25 24 25 25 25 25 25 25 25 25 25 24 24 25 24 23 23 23 24 23
29 27 27 26 25 25 25 25 24 24 25 25 26 25 26 26 26 26 25 24 24 24 24 25 25 24 24 25 25 25 26 25 23 23 23 23 23 24 24 23 22 22 20
30 29 28 27 26 26 25 25 25 25 25 25 25 25 25 25 25 26 25 25 24 24 24 24 24 24 24 24 24 24 24 25 25 24 23 23 23 25 25 23 23 22 23
30 29 29 27 26 26 26 26 25 25 25 25 25 25 25 25 25 26 26 25 25 24 24 24 24 24 24 24 23 23 23 23 24 24 24 23 24 25 25 25 25 24 22
30 29 29 28 27 26 26 26 26 26 26 26 25 25 25 25 25 25 25 26 25 25 24 24 24 24 24 24 24 23 22 22 23 24 24 24 24 24 24 24 23 22 20
30 30 30 29 28 27 27 27 26 26 26 26 26 25 25 25 25 25 25 25 25 25 25 25 24 24 24 24 24 23 22 22 22 22 22 22 23 23 23 23 23 21 20
32 32 32 31 30 29 27 27 27 26 26 26 26 26 25 25 25 25 25 25 25 25 25 25 25 25 24 24 24 24 24 23 22 22 22 22 21 21 22 22 22 22 20
31 32 32 32 31 29 28 27 26 26 26 26 26 25 25 25 25 25 25 25 25 25 25 25 25 25 25 25 25 24 24 24 22 21 21 20 20 19 21 22 21 21 20
33 32 31 31 31 30 29 28 26 26 26 25 26 25 25 25 26 26 25 26 26 25 25 25 25 25 25 26 26 25 25 24 23 22 21 21 19 20 20 20 20 20 20
30 30 30 29 29 29 29 28 27 26 26 26 25 25 26 26 26 26 26 26 26 26 26 26 25 25 25 25 26 26 24 22 23 23 23 21 19 18 17 17 17 18 17
29 30 29 29 29 28 28 28 27 27 26 26 26 26 26 25 26 25 25 25 26 26 25 23 22 23 22 23 22 22 23 22 21 22 22 21 18 18 17 17 17 17 17
27 29 29 29 28 28 27 27 26 26 27 27 27 27 24 25 23 23 24 24 24 24 23 22 21 22 23 23 23 22 20 20 21 21 21 20 19 18 18 17 17 16 16
26 27 29 29 28 28 27 26 20 19 21 21 22 22 22 22 22 23 23 24 24 24 22 22 21 21 22 23 22 22 21 20 20 20 21 19 19 18 17 17 16 16 16
26 25 26 25 25 25 26 24 22 20 20 20 20 20 20 20 20 20 21 22 20 18 17 18 18 19 20 21 21 21 21 20 20 20 20 19 18 18 17 16 16 16 15
25 24 24 24 24 24 23 23 22 22 21 20 20 19 20 20 19 19 19 19 17 17 16 16 17 17 17 17 18 19 20 20 20 20 20 19 18 17 16 16 16 15 15
25 24 25 24 24 24 23 23 22 22 21 19 19 18 19 19 19 18 18 18 18 17 17 17 17 17 17 17 17 17 18 18 19 19 19 19 17 16 16 15 15 14 15
25 25 25 24 24 23 22 21 20 20 20 19 18 18 18 18 18 19 18 18 18 18 17 17 17 17 17 17 18 17 17 18 18 19 18 16 16 16 15 15 15 15 16
25 24 23 20 19 18 18 18 18 18 18 18 18 18 18 18 18 18 17 17 17 17 17 17 17 17 17 17 17 17 17 17 18 17 18 17 16 15 15 15 16 16 17
19 19 18 18 17 16 15 15 15 15 15 15 16 15 15 16 16 15 15 16 16 16 17 17 17 17 17 17 17 18 17 17 17 17 16 15 16 16 16 17 18 18 18
18 16 15 14 14 14 13 12 12 12 12 12 12 12 13 13 13 13 13 14 16 16 16 17 17 17 17 17 17 18 18 18 18 17 17 16 17 18 19 19 19 19 19
17 16 15 13 13 12 11 11 11 10 10 10 10 10 10 11 11 11 11 12 13 15 15 15 15 16 17 17 17 18 18 18 18 18 19 19 19 19 20 20 20 19 19
14 16 15 14 13 12 12 11 11 10 9 9 8 8 8 8 9 10 10 10 11 12 12 13 14 16 16 16 17 18 18 19 19 20 20 20 20 20 20 20 20 20 20

GFSGL_925_temp_042.txt.gz
Temp
24 24 24 24 24 24 24 25 26 26 26 26 27 27 26 26 25 25 25 25 24 24 24 24 25 26 26 26 26 26 25 26 24 26 26 26 26 25 25 25 24 24 23
24 24 23 23 23 23 23 24 25 26 26 26 26 27 26 26 26 25 25 25 24 24 24 24 24 25 25 26 26 26 26 25 26 25 26 26 25 26 26 25 25 24 23
24 24 23 23 23 23 23 23 24 25 26 26 26 26 26 27 26 26 25 25 25 24 24 24 24 24 24 25 26 26 25 25 25 25 26 25 25 25 25 24 24 24 23
24 23 23 23 23 23 24 24 23 25 25 26 26 27 26 26 26 26 26 25 25 25 25 25 25 24 24 24 25 25 26 25 24 24 24 25 25 24 24 24 23 23 23
24 24 23 23 23 23 23 23 24 23 25 25 26 26 26 26 26 26 26 26 25 25 25 25 25 25 25 25 25 25 25 25 24 23 22 23 24 23 23 23 22 23 23
25 24 24 24 23 23 23 23 23 23 24 24 25 25 25 25 25 26 26 25 25 24 24 25 25 24 24 24 25 25 25 25 23 22 22 21 22 24 24 23 23 21 20
26 25 25 24 24 23 23 23 23 23 23 23 24 24 24 25 25 25 26 25 24 24 24 24 24 24 25 24 24 24 24 24 25 24 23 23 23 23 23 23 23 22 22
27 26 25 25 24 24 24 23 23 23 23 23 23 24 24 24 24 25 25 25 24 24 24 24 23 23 24 24 23 22 23 23 24 24 23 23 23 23 24 24 24 24 23
28 27 26 26 25 24 24 24 24 24 24 23 23 23 24 24 24 24 24 25 23 23 24 23 23 23 23 23 23 22 22 23 23 24 24 24 24 23 23 23 22 20 19
29 28 27 26 26 25 25 25 24 24 24 24 24 24 24 24 24 24 24 24 23 23 24 24 24 23 23 23 23 22 22 22 22 21 22 23 23 23 23 23 22 20 20
29 29 28 27 27 26 26 25 25 25 25 25 25 25 24 24 24 24 24 24 23 23 24 24 24 24 24 24 23 23 23 24 23 22 21 21 21 21 21 22 22 22 21
30 29 28 28 27 27 26 26 25 25 25 25 25 25 24 25 24 24 24 24 24 24 24 24 24 24 24 24 24 24 24 23 23 23 22 21 21 20 19 20 21 22 22
29 30 29 28 28 27 26 26 25 25 25 25 25 25 25 25 25 25 25 25 25 24 24 24 24 25 25 25 25 25 25 24 21 22 22 22 21 21 20 19 18 19 19
28 29 29 28 28 28 27 26 25 25 25 25 25 25 25 25 25 25 25 25 25 25 25 24 24 24 23 23 23 24 24 23 21 21 22 23 22 21 19 18 18 18 18
25 27 28 28 28 27 26 25 26 26 26 25 25 24 24 24 24 25 26 25 25 25 24 23 23 22 22 22 22 22 21 21 20 20 21 21 22 21 19 19 18 18 18
25 25 26 27 26 25 25 23 24 25 25 26 26 25 24 24 25 24 23 23 23 23 23 23 23 22 21 22 22 22 22 21 21 20 20 21 21 21 20 18 18 18 18
23 24 25 26 26 25 23 23 18 19 21 22 24 25 23 23 22 22 22 23 23 23 22 20 19 19 20 20 20 21 21 22 21 20 21 21 21 21 20 19 18 17 17
24 24 25 25 26 25 24 21 19 19 18 19 20 21 20 20 20 21 21 22 21 20 19 18 18 18 17 16 16 16 17 17 18 19 20 20 20 21 21 19 18 17 17
23 24 23 23 23 24 23 21 20 19 18 18 18 19 19 18 18 18 19 19 17 17 18 18 17 17 16 17 16 16 17 17 17 17 17 18 19 20 20 20 19 17 16
23 23 23 22 22 21 20 19 18 17 17 17 17 17 17 18 18 18 18 17 17 17 17 17 17 17 17 16 16 16 17 17 17 17 17 17 18 17 16 16 16 16 16
23 21 21 20 19 19 18 18 18 17 16 16 16 17 17 17 17 17 16 16 16 17 17 17 17 17 17 17 17 16 17 17 16 16 16 17 17 16 17 17 16 15 15
21 18 17 16 16 16 16 16 15 15 15 15 15 15 16 15 15 15 15 16 16 16 16 16 17 17 17 17 17 16 16 16 17 16 17 17 17 16 15 15 14 14 14
20 18 17 16 15 15 14 14 13 13 13 13 14 13 13 12 12 12 12 13 15 15 15 16 16 16 16 17 18 17 16 16 16 16 16 15 15 15 15 14 15 15 15
15 15 14 13 13 13 12 11 11 12 11 11 11 11 11 10 10 9 10 12 13 14 15 16 16 16 16 16 16 16 16 16 17 17 16 15 15 15 15 15 15 15 16
14 13 12 12 12 11 11 10 10 9 9 9 9 9 9 8 8 8 9 9 10 11 11 12 13 14 15 16 17 17 17 17 17 17 17 17 16 16 17 17 17 17 17
13 12 12 12 11 11 10 9 9 8 8 8 8 8 7 7 8 8 8 8 8 9 9 10 11 12 13 13 15 17 18 18 18 18 18 18 18 18 18 18 18 18 17

GFSGL_925_temp_045.txt.gz
Temp
23 23 23 23 23 23 24 25 25 25 25 25 26 26 26 26 25 25 24 24 24 24 24 24 24 25 25 25 25 25 24 24 22 25 25 26 25 25 26 25 25 24 24
23 23 23 23 23 23 24 25 25 25 25 25 26 26 26 26 26 25 25 24 24 24 24 24 24 24 24 24 25 25 24 24 23 23 25 26 26 26 26 25 25 25 25
24 23 23 23 22 23 23 24 24 25 25 25 25 25 26 26 26 25 25 25 25 24 24 24 24 24 24 24 24 24 25 24 24 22 23 25 25 25 25 25 25 24 25
24 24 23 23 23 23 24 24 23 24 25 25 25 25 25 25 26 26 26 25 25 25 25 25 24 24 24 24 24 24 24 24 24 23 23 23 24 24 24 24 24 24 24
24 24 23 23 23 23 23 23 24 23 24 25 25 25 25 25 25 26 26 26 25 25 25 25 25 25 25 25 24 24 24 24 23 23 21 22 22 22 22 24 24 24 24
24 24 23 23 23 22 23 23 23 23 23 23 24 24 24 25 25 26 26 26 25 25 25 25 26 25 25 25 25 25 24 24 22 21 21 21 21 21 22 23 23 21 20
24 24 23 23 22 22 22 22 22 22 22 22 23 23 23 24 24 25 26 25 25 25 25 25 24 25 25 25 25 25 24 24 23 23 21 22 22 22 23 22 22 22 22
24 24 23 23 22 22 22 22 22 22 22 22 22 22 23 23 24 24 25 25 24 24 24 24 24 24 24 24 24 23 24 24 24 23 22 22 22 22 22 23 22 21 21
24 24 24 23 23 22 22 22 22 22 22 22 22 23 22 23 23 24 24 24 23 23 23 23 23 23 23 23 23 22 22 22 22 23 23 24 24 23 22 22 21 20 20
25 25 24 24 24 23 23 23 23 23 23 22 22 22 23 23 23 23 24 23 22 22 22 23 23 23 23 23 22 22 21 22 22 21 21 22 22 23 22 21 21 20 20
27 26 25 25 25 24 24 23 23 23 23 23 23 23 23 23 23 24 24 23 23 23 23 23 23 23 23 23 23 22 22 23 23 23 22 22 21 20 21 22 21 20 20
28 28 27 26 25 25 24 24 24 23 23 23 23 23 23 23 23 24 24 24 24 23 23 23 23 23 24 24 23 23 23 23 22 22 22 22 22 21 21 20 21 23 20
27 28 28 27 26 26 25 24 24 24 24 23 23 23 24 23 24 24 24 25 24 24 23 23 23 24 24 24 23 23 23 23 20 20 21 21 22 22 22 21 20 19 20
25 26 26 26 26 26 25 25 25 24 24 24 24 24 24 24 24 24 24 24 24 24 24 24 23 23 22 23 22 22 22 22 21 20 20 21 21 21 21 21 20 19 18
25 25 25 25 24 24 24 24 24 25 25 24 24 24 24 23 24 25 25 25 25 25 25 23 22 22 22 22 22 22 22 21 21 21 20 20 20 20 21 21 21 20 19
23 24 25 25 25 24 23 20 21 23 24 25 25 25 24 24 24 24 24 24 24 24 22 22 21 21 21 21 20 20 20 20 20 20 20 20 20 20 20 20 21 20 19
23 24 24 25 24 23 21 19 18 19 22 24 24 24 23 24 24 23 22 22 22 22 22 21 20 20 19 19 18 17 16 17 17 17 17 17 17 18 19 19 20 19 20
23 23 23 24 24 23 22 20 20 20 19 19 20 21 21 21 21 21 21 21 20 20 19 18 18 17 17 16 16 16 16 16 16 16 16 16 17 17 17 18 18 19 19
22 22 21 22 23 22 22 20 20 19 18 17 18 18 18 19 19 19 19 19 18 17 17 17 17 16 16 16 16 16 16 16 16 16 16 16 16 17 17 17 17 17 16
22 22 21 21 19 20 19 18 17 16 16 17 17 17 17 17 17 17 17 17 17 17 16 17 17 17 17 17 17 17 16 16 16 17 17 16 16 17 16 16 16 15 15
22 21 20 20 18 17 17 16 16 16 15 15 15 16 16 16 15 15 15 15 15 16 16 16 16 16 16 17 17 16 16 16 16 16 16 16 16 17 16 15 15 15 15
22 20 19 18 17 16 15 15 15 15 14 14 13 14 15 14 13 13 13 13 14 14 15 15 15 15 16 16 16 16 16 16 16 16 16 16 16 15 15 15 14 14 14
19 18 17 16 15 15 14 14 13 13 13 12 12 12 11 11 11 10 10 11 12 14 14 15 15 16 16 16 16 15 16 16 16 16 16 16 15 15 15 14 14 13 13
16 15 14 13 13 13 12 12 12 12 12 11 11 10 9 8 8 8 8 9 10 11 12 12 13 13 14 15 16 16 17 17 17 16 16 15 15 15 14 15 14 14 14
13 13 12 12 11 11 10 10 9 9 9 9 8 8 8 8 7 7 8 8 8 9 9 9 10 11 12 13 13 15 17 17 17 17 16 16 15 15 15 16 16 16 16
12 11 11 10 10 10 9 8 8 8 7 7 7 7 6 6 6 6 7 7 7 7 8 8 8 9 10 12 12 13 15 17 17 18 18 17 17 17 16 17 17 17 16

GFSGL_925_temp_048.txt.gz
Temp
22 22 22 23 23 23 24 25 25 26 25 25 25 25 25 25 25 24 24 24 24 24 24 23 23 24 24 24 24 24 24 23 21 24 25 26 26 26 26 26 26 25 25
23 23 23 23 23 23 23 25 25 25 25 25 25 25 25 26 25 25 24 24 24 24 24 24 24 23 23 24 23 23 23 23 22 22 24 24 25 25 26 26 26 26 26
23 22 22 22 22 22 23 24 25 25 25 25 25 25 25 25 25 25 25 25 25 25 25 24 24 24 24 24 24 23 23 24 23 22 22 23 25 25 25 25 25 25 26
23 23 22 22 22 22 23 23 24 25 25 25 25 25 25 25 25 25 25 25 25 25 25 25 25 24 24 24 24 24 24 23 23 22 21 20 21 23 23 23 23 24 25
23 23 23 22 22 22 23 23 23 24 25 25 25 25 25 25 25 25 25 25 25 25 25 25 25 25 25 25 24 25 24 23 22 21 20 20 21 20 21 23 22 23 23
24 23 23 22 22 23 23 23 23 23 23 24 24 24 24 25 25 25 25 25 25 25 25 25 26 25 25 25 25 25 24 23 21 21 21 21 21 22 22 21 21 21 22
24 23 23 22 22 22 22 22 22 22 22 22 23 23 23 24 25 25 26 25 25 25 25 25 25 25 26 25 26 26 25 25 23 22 21 21 21 22 22 21 20 21 21
23 23 23 22 22 22 21 22 21 21 22 22 22 22 22 23 24 25 25 25 24 24 24 25 25 25 24 25 25 24 24 24 24 24 23 23 22 22 21 21 21 21 20
23 23 23 22 22 22 21 22 22 21 21 21 22 22 22 22 23 23 24 23 23 23 23 23 24 24 24 24 23 22 23 22 22 22 22 23 23 23 22 21 20 19 20
24 23 23 22 22 22 22 22 22 22 22 21 21 21 22 23 23 24 23 22 21 21 22 22 22 23 23 23 22 22 21 22 22 22 22 22 22 23 22 22 20 19 19
24 24 23 23 23 23 22 22 22 22 22 21 21 22 22 22 23 23 23 22 21 21 21 22 22 22 23 23 22 22 22 23 22 22 21 21 22 21 21 22 23 21 19
25 24 24 23 23 23 23 22 22 22 22 22 22 21 22 22 23 23 24 23 24 22 22 22 22 23 23 23 23 23 23 23 22 21 21 21 21 22 22 22 21 20 20
26 25 25 24 24 24 23 22 22 22 22 22 22 22 22 22 23 24 24 24 24 23 22 23 23 23 23 23 23 23 23 22 21 20 20 21 21 21 21 21 22 21 21
26 25 25 25 24 24 23 23 23 22 22 23 22 22 23 22 23 23 24 24 23 23 23 23 22 22 22 22 22 22 22 22 21 20 20 20 20 20 20 20 20 21 21
23 24 24 25 24 24 24 24 23 23 23 23 23 23 23 22 24 25 25 24 24 24 24 21 21 21 21 21 21 21 20 20 20 20 19 19 19 19 19 19 19 19 20
23 23 23 23 23 23 23 22 23 23 24 24 24 24 24 24 24 24 24 24 23 23 22 21 21 21 21 20 20 19 19 19 19 18 17 17 17 17 17 17 17 17 18
23 23 23 23 22 21 20 19 18 19 20 22 23 23 24 24 24 24 23 23 23 22 21 21 20 20 19 19 19 18 17 16 16 15 16 16 16 16 16 16 17 17 17
22 22 22 22 22 21 20 19 19 19 18 19 21 22 23 23 23 22 21 21 20 20 20 20 19 19 18 17 17 16 16 16 16 16 17 16 16 16 16 17 17 16 15
21 22 22 22 22 21 21 19 19 19 17 16 17 18 18 19 19 19 19 20 19 18 18 18 18 16 16 16 16 16 16 16 16 16 16 17 16 17 16 16 15 15 15
20 21 22 21 19 20 19 18 17 16 16 16 16 16 17 18 17 17 17 17 17 16 16 16 16 16 16 16 16 16 16 16 16 16 16 16 16 16 15 15 15 15 14
20 20 21 20 18 18 17 16 16 15 15 14 15 16 16 16 15 15 14 14 15 15 15 15 15 15 15 15 16 16 16 16 16 16 16 16 16 16 15 15 15 15 14
20 19 19 19 17 16 16 15 15 15 14 13 13 14 15 14 13 13 12 13 13 13 14 14 14 14 14 15 15 15 16 16 17 16 16 16 16 15 15 15 15 15 14
18 19 17 16 15 15 14 14 14 13 13 12 12 12 12 11 11 10 10 11 11 11 12 13 13 13 13 13 14 15 15 16 17 17 15 16 15 15 15 15 14 14 13
17 17 16 14 14 13 13 13 12 12 11 10 10 10 9 8 8 8 8 9 9 10 10 11 11 11 11 12 13 13 14 16 17 16 16 15 15 15 15 14 14 14 13
15 14 13 12 12 11 11 11 10 9 9 9 8 8 7 6 6 6 6 6 7 7 7 7 8 9 10 10 11 12 13 15 16 16 17 16 16 16 16 15 15 15 15
12 12 11 11 10 9 9 8 7 7 6 6 6 6 7 7 6 6 6 6 6 6 7 7 8 8 8 9 9 11 12 12 14 16 17 16 16 16 16 16 16 15 15

GFSGL_925_temp_051.txt.gz
Temp
23 23 23 23 22 22 22 23 24 25 26 25 25 25 25 25 24 23 23 23 22 22 22 22 22 22 23 23 23 23 23 23 25 26 24 24 25 26 26 26 26 26 25
23 23 23 23 23 22 22 22 23 24 26 25 25 25 25 24 23 23 23 24 23 23 23 22 23 23 22 22 23 22 23 23 23 24 25 24 23 24 25 25 25 24 25
24 23 23 23 23 23 22 23 23 23 25 26 25 25 25 24 24 23 23 23 23 23 23 23 23 23 22 23 22 23 23 22 22 22 24 24 24 23 23 23 24 23 24
25 24 24 23 23 23 23 23 22 23 25 25 25 25 24 24 23 23 23 23 23 23 23 23 23 23 23 23 23 23 23 23 23 23 24 24 24 23 22 23 24 24 24
25 24 24 23 23 23 23 22 23 22 23 25 25 24 24 24 24 23 23 23 23 23 23 23 23 24 25 25 24 24 23 23 24 24 25 25 25 25 25 25 25 25 24
24 24 24 23 23 23 23 22 22 22 23 23 23 23 23 24 25 24 24 24 23 23 23 23 23 24 26 26 26 26 24 23 23 24 25 26 25 24 25 24 25 24 25
24 24 24 23 23 22 22 22 22 22 22 22 23 23 23 23 24 25 26 25 24 24 23 24 24 25 24 24 24 26 26 25 24 23 23 24 24 24 23 23 23 23 23
24 24 24 23 23 22 22 22 22 22 22 22 22 22 23 23 24 25 25 25 23 24 24 24 24 24 24 24 23 24 24 23 23 23 22 23 23 22 22 22 22 22 21
24 24 23 23 23 23 22 22 22 22 22 22 22 22 22 23 23 25 25 23 23 23 23 23 23 23 24 23 23 23 23 24 24 23 23 23 23 22 22 21 20 20 20
25 24 23 23 23 23 23 22 22 22 22 23 23 22 22 23 23 25 24 23 23 23 23 23 23 23 23 23 22 23 23 24 24 24 24 23 22 22 23 22 21 19 20
25 24 24 23 23 23 23 23 23 23 23 22 23 23 22 22 22 23 24 22 23 24 24 25 24 24 23 23 23 22 22 23 23 23 22 22 22 22 22 21 22 22 20
25 24 23 23 23 24 23 23 23 23 23 23 23 23 23 23 22 22 24 23 22 23 24 25 24 23 23 24 23 23 23 23 21 21 21 21 21 21 21 21 22 21 21
24 24 24 24 23 24 23 23 23 23 24 24 24 24 25 25 23 23 24 24 23 22 23 24 24 23 23 22 23 23 22 22 21 20 20 20 20 21 21 21 21 22 21
24 24 24 24 23 24 24 24 24 25 24 25 25 26 26 26 25 25 23 22 22 22 22 22 22 22 22 22 22 22 22 22 21 20 20 20 20 21 22 22 22 22 22
24 24 24 24 23 24 24 25 25 25 25 26 26 26 26 26 26 25 25 24 23 22 23 21 21 21 21 21 21 21 21 21 20 20 20 20 21 20 20 20 20 20 20
24 24 24 25 23 24 25 21 23 24 24 24 25 25 25 25 25 25 25 25 24 23 21 21 21 21 21 21 20 20 20 20 20 18 18 18 18 18 18 18 18 18 18
20 22 23 23 24 24 23 24 23 19 20 22 23 23 24 24 24 24 24 23 23 22 21 21 21 21 20 20 19 19 21 20 18 19 19 18 17 17 17 17 17 18 19
21 22 23 24 24 21 21 22 23 23 23 19 20 22 23 23 23 24 23 23 22 20 20 20 20 20 19 19 20 20 20 19 18 18 17 17 18 17 16 17 19 19 17
21 22 22 22 21 22 21 20 21 23 23 17 17 19 21 22 22 21 21 21 20 18 18 18 18 18 19 19 18 17 17 17 17 17 16 16 16 16 16 18 19 18 16
21 20 19 22 20 20 19 19 20 22 20 20 19 17 16 17 18 18 18 19 19 17 16 16 16 16 16 16 16 16 16 16 16 16 16 16 16 16 17 17 17 17 16
18 21 21 21 20 19 18 18 19 19 18 18 17 16 16 16 15 15 16 16 16 15 15 15 15 15 16 16 16 16 16 16 16 16 16 16 16 16 16 16 16 16 17
16 19 21 21 20 18 18 17 16 16 14 14 13 14 16 16 14 14 14 14 14 14 14 14 14 14 15 15 15 15 15 15 15 14 15 15 16 16 15 16 16 16 14
17 19 20 20 19 17 17 17 15 14 13 12 12 12 12 11 10 10 10 11 11 11 12 12 12 12 13 13 13 13 12 12 13 13 13 14 16 16 16 17 18 17 15
16 17 19 18 16 17 16 16 14 13 12 11 10 10 10 9 8 8 8 8 8 8 9 9 9 9 9 9 9 10 12 14 15 15 13 14 17 17 16 18 19 18 18
14 15 15 14 14 13 12 12 11 11 10 10 9 9 8 8 7 7 7 8 8 7 7 7 8 7 7 8 9 11 11 12 14 15 15 14 16 17 17 18 19 18 18
12 12 11 11 11 10 10 9 8 8 8 8 7 7 7 7 7 8 8 9 9 8 8 7 7 6 6 6 8 9 11 12 13 14 13 14 15 16 17 17 17 17 18

GFSGL_925_temp_054.txt.gz
Temp
26 26 25 25 25 25 25 25 25 25 25 24 25 25 25 25 25 24 25 26 25 25 25 25 25 25 26 27 27 27 27 27 28 29 29 29 26 24 25 25 25 25 26
26 26 25 26 25 26 25 25 25 24 25 24 25 25 25 25 25 25 25 26 25 25 25 25 25 25 24 25 26 26 27 27 27 27 27 27 27 27 25 24 24 26 27
27 26 26 26 26 26 25 25 25 24 24 25 25 25 25 25 25 25 25 25 25 25 25 25 25 25 25 26 26 27 27 26 26 26 26 27 27 27 27 26 25 25 25
28 27 27 26 26 26 26 25 25 25 24 25 25 25 25 25 26 25 25 25 25 26 25 26 26 25 25 25 25 25 25 25 27 26 27 28 28 28 28 27 27 27 28
29 28 28 26 26 26 26 25 25 25 25 25 25 25 25 26 26 26 26 26 25 25 26 26 25 26 25 25 26 26 26 26 27 28 28 29 29 29 29 29 28 28 29
29 29 28 26 26 25 25 25 24 25 25 25 25 25 25 26 27 26 26 26 26 26 26 26 26 26 25 24 24 25 25 25 26 26 28 28 28 27 28 28 28 28 28
29 28 28 26 26 25 25 25 24 24 25 24 25 25 25 25 26 26 26 26 26 26 26 26 26 27 26 26 25 25 24 24 24 23 24 25 25 26 25 25 26 26 26
28 27 27 26 25 25 25 25 24 25 25 24 25 25 25 25 25 25 25 24 25 26 26 26 26 26 27 27 26 26 26 26 25 25 22 23 23 24 24 24 23 23 24
27 27 26 26 25 25 25 25 25 25 25 25 25 25 25 25 25 25 25 24 25 25 25 25 26 25 25 25 25 25 25 26 26 26 26 25 25 24 24 22 22 24 25
27 27 26 26 25 25 25 25 25 25 25 26 26 25 25 25 24 25 24 25 26 26 26 25 25 25 25 25 24 25 25 26 26 26 26 26 25 24 24 23 22 21 22
27 27 27 26 25 25 25 25 25 25 26 25 26 26 25 25 25 24 24 23 26 27 27 28 28 27 26 25 24 23 24 25 25 25 24 25 25 26 25 24 22 22 21
27 27 27 26 26 26 25 25 25 25 25 25 25 26 26 25 25 24 24 23 24 26 27 29 29 28 27 25 24 23 23 23 23 23 24 25 24 23 22 22 22 22 22
27 27 26 26 25 27 25 25 25 25 26 26 27 27 28 28 26 25 24 23 23 23 25 27 27 26 25 24 24 23 23 22 23 23 22 21 21 21 22 22 23 24 24
27 26 26 26 26 26 26 26 26 27 27 28 28 29 29 29 29 28 25 23 23 22 22 23 24 24 24 25 24 23 22 23 22 21 21 21 21 22 23 25 25 25 25
26 27 27 27 25 26 27 27 28 28 28 29 29 30 30 30 30 29 29 27 26 24 23 24 24 24 24 24 24 23 23 22 21 21 20 21 23 25 24 24 23 23 24
27 27 28 28 27 27 27 25 24 25 26 27 27 28 30 29 28 28 27 26 26 25 23 25 23 23 22 22 22 22 21 21 21 21 23 23 24 24 23 22 22 21 21
25 26 26 27 27 26 25 25 25 25 25 24 25 25 26 26 26 25 25 25 24 23 24 23 23 23 22 22 21 21 22 21 22 22 23 23 23 22 21 20 20 21 23
23 23 26 26 23 22 22 22 24 23 26 25 23 23 24 24 24 24 24 23 22 22 21 22 21 21 21 20 20 21 22 23 23 22 22 22 22 21 19 18 21 23 22
24 24 26 24 23 24 25 24 25 24 26 27 21 19 21 23 23 23 23 24 23 21 20 20 20 20 20 20 21 22 22 22 21 22 22 20 20 19 18 18 21 20 19
23 22 23 25 23 21 22 22 22 23 26 26 23 21 18 20 19 19 20 21 22 21 19 19 18 19 19 19 19 20 20 20 20 19 19 18 18 18 18 19 19 19 20
21 23 23 26 25 21 20 20 20 22 25 25 24 18 19 20 21 20 19 18 18 18 18 17 17 17 16 17 18 19 19 19 18 18 18 18 17 17 19 20 19 17 18
20 22 24 25 24 22 20 19 19 21 20 17 15 15 18 19 18 16 15 14 13 14 14 15 16 16 15 15 15 17 18 19 19 19 19 19 17 17 17 17 18 19 21
19 22 23 24 24 20 21 20 20 19 20 19 19 19 19 16 14 13 12 12 12 12 12 12 14 13 13 13 13 15 17 17 17 17 17 18 18 18 17 18 21 23 22
19 20 20 21 20 21 21 20 19 17 17 16 16 15 15 13 12 10 10 10 10 10 10 11 11 11 12 13 13 14 12 14 14 13 15 16 18 20 18 19 21 23 22
18 17 15 16 16 16 16 17 16 16 15 13 13 13 12 11 10 10 10 10 10 10 10 10 11 11 10 9 9 9 11 12 13 14 15 16 17 18 19 20 21 21 21
8 9 9 9 9 9 10 9 9 10 11 10 10 10 10 10 10 9 9 10 11 11 11 11 10 10 10 8 9 10 11 11 12 13 14 17 18 18 19 19 20 20 20

GFSGL_925_temp_057.txt.gz
Temp
26 26 26 25 25 25 26 26 26 27 27 26 27 26 26 26 26 25 26 27 26 26 26 27 26 26 27 29 29 28 29 29 29 30 30 30 29 27 27 26 26 26 27
27 27 26 26 26 26 26 26 26 26 26 26 26 26 26 26 26 25 25 27 27 26 26 26 26 26 25 26 27 28 28 29 28 28 28 28 28 28 28 27 26 26 27
28 27 27 27 26 27 26 26 26 26 25 26 26 25 25 26 26 26 26 26 26 26 26 26 26 26 26 27 27 28 29 28 27 27 28 29 29 29 29 28 28 28 27
29 29 28 27 27 27 27 26 26 26 25 25 26 26 26 26 26 26 26 26 26 26 26 26 26 26 26 26 26 26 26 26 28 28 28 29 30 30 30 30 30 30 30
31 30 29 28 27 27 27 27 26 26 25 25 25 26 26 26 26 26 26 26 26 26 27 26 26 26 27 26 27 27 27 27 28 29 29 30 31 31 30 29 29 29 30
31 30 30 28 27 27 27 27 26 26 26 25 26 26 26 27 28 27 27 27 27 26 26 26 27 27 26 26 26 26 26 25 25 27 28 29 28 28 29 28 28 28 28
31 31 30 29 27 27 27 27 26 26 26 26 26 26 26 26 28 28 27 27 27 27 26 26 27 28 27 26 26 26 25 25 25 24 24 25 25 25 25 25 26 26 26
31 31 30 29 27 27 27 27 26 26 26 26 26 26 26 26 26 27 27 27 27 27 27 27 26 27 27 28 27 27 26 25 25 26 25 25 23 24 24 25 25 24 24
31 30 30 29 28 27 27 26 26 26 26 26 26 26 26 26 27 27 26 26 26 26 26 26 27 27 26 26 26 26 26 26 27 27 27 27 26 26 26 25 24 25 26
31 30 30 29 28 27 27 27 26 26 26 27 27 26 26 26 26 26 26 26 27 26 26 25 26 26 26 26 26 25 25 25 26 26 26 27 27 27 26 25 24 24 23
30 30 29 28 28 27 27 26 26 26 27 26 27 27 26 26 26 25 26 25 27 28 28 29 28 28 27 27 26 25 25 25 25 25 26 26 26 26 26 26 24 23 23
30 30 29 28 28 27 27 26 26 26 26 27 26 27 28 27 26 26 25 25 25 27 29 30 30 30 30 29 28 27 26 25 24 24 25 25 26 27 26 25 23 23 23
30 29 28 27 27 28 27 26 26 26 27 27 28 27 29 29 28 27 26 25 25 24 26 29 29 29 28 27 27 26 25 24 23 24 25 26 25 24 23 23 24 25 25
29 28 28 27 27 28 27 27 27 28 27 29 29 30 30 30 31 30 27 26 25 24 24 25 26 26 26 26 26 25 24 24 24 25 25 23 22 22 23 25 25 26 26
28 28 28 27 27 27 28 28 28 29 29 30 31 31 32 32 32 31 31 27 25 24 24 24 25 25 26 26 26 26 25 24 24 25 23 21 22 23 25 26 26 25 25
27 28 28 29 27 28 29 25 26 27 27 28 27 27 27 27 29 31 31 29 28 26 24 26 27 27 28 28 28 26 25 24 23 22 21 22 24 26 26 25 24 24 24
26 28 30 30 29 30 29 28 27 24 26 26 27 27 26 25 25 26 27 28 27 26 27 27 28 29 27 26 24 23 23 22 22 22 23 24 25 25 24 24 23 23 24
25 26 29 29 29 30 29 29 28 28 28 27 26 26 26 26 25 24 24 24 25 24 27 27 26 25 25 24 23 23 22 22 23 24 24 25 25 25 25 23 23 23 24
22 24 25 25 26 26 25 26 27 25 26 26 24 23 24 25 25 23 24 24 26 27 25 24 23 23 23 22 21 21 22 23 24 24 24 24 24 24 23 22 22 21 21
21 23 24 25 25 24 26 26 27 25 24 25 30 28 23 23 20 21 21 23 24 24 21 21 22 21 21 21 21 22 22 22 22 22 23 22 21 20 21 21 21 21 20
19 24 25 25 23 24 23 23 23 24 25 26 26 23 23 22 21 21 18 19 20 21 21 21 20 19 18 19 19 20 21 22 21 20 19 19 18 18 20 20 22 21 20
20 23 25 25 25 25 23 22 22 22 25 23 21 19 20 20 19 17 17 17 17 17 17 18 19 18 18 17 18 19 20 20 21 20 21 21 20 20 18 18 19 21 21
19 22 25 26 24 23 25 23 21 22 23 23 22 20 19 19 20 19 17 17 16 16 17 17 18 17 17 17 17 18 20 20 19 18 19 19 20 21 18 18 20 22 24
18 19 20 22 22 21 19 20 19 18 17 18 19 21 21 19 18 16 15 14 13 14 13 14 14 15 15 16 16 16 14 14 15 15 16 17 19 20 21 21 21 22 22
15 18 15 13 15 18 18 16 15 15 14 13 14 14 14 14 14 14 14 14 14 14 14 14 13 13 12 10 9 9 12 12 13 14 14 16 18 19 20 21 21 21 20
6 7 7 7 7 7 7 8 8 9 9 10 10 11 11 10 10 11 11 12 12 12 12 12 12 12 10 7 9 10 11 12 13 14 15 16 18 18 18 18 19 20 20

GFSGL_925_temp_060.txt.gz
Temp
25 25 25 24 25 25 26 27 27 28 28 28 27 27 26 26 26 26 26 26 26 26 26 26 26 26 26 27 28 28 28 29 28 29 29 29 29 28 28 28 28 27 27
26 25 25 25 24 25 25 27 27 27 27 27 27 27 26 26 26 26 25 26 26 26 26 26 26 26 26 26 26 27 27 28 27 27 28 28 28 28 28 28 29 28 27
27 26 26 25 25 25 25 26 26 26 26 26 26 26 26 26 26 26 25 25 26 26 26 26 26 26 26 26 26 26 27 28 27 27 26 27 28 28 29 29 29 29 29
28 27 26 26 26 25 25 25 26 26 26 26 26 26 25 25 26 26 26 25 25 26 26 26 26 26 26 26 26 26 26 26 26 26 27 27 28 29 29 29 28 29 29
30 28 27 27 26 26 26 25 25 26 26 25 25 26 25 25 25 26 26 26 25 25 26 26 26 26 26 26 26 26 26 26 26 26 27 28 28 28 28 28 28 27 27
31 29 28 27 26 26 26 26 25 26 26 25 25 25 26 25 26 26 26 26 26 26 26 26 26 26 26 26 26 26 26 26 26 25 25 25 26 26 26 26 25 25 25
31 30 29 28 27 26 26 26 26 25 26 25 25 25 25 26 26 27 27 26 26 26 26 26 26 26 26 26 27 27 26 26 26 26 24 24 24 25 24 24 24 24 24
31 30 30 29 28 27 26 26 26 26 25 26 25 25 25 25 26 27 28 27 26 26 26 26 26 26 27 27 27 26 26 26 26 26 26 26 26 26 26 26 25 25 25
31 30 30 29 28 27 27 26 26 26 26 26 25 25 25 26 26 26 27 27 26 26 27 27 27 26 26 27 27 27 27 26 26 26 26 26 26 26 26 25 24 24 24
31 31 30 29 29 27 27 26 26 26 26 26 26 26 26 25 26 26 26 26 26 26 26 26 26 26 27 26 26 26 25 26 26 25 26 26 26 26 26 26 26 24 23
31 31 30 30 29 28 27 26 26 26 26 26 26 26 26 26 26 26 26 26 26 26 26 26 26 26 26 26 26 26 25 26 25 25 25 25 25 26 26 26 26 25 24
31 30 30 30 29 29 27 27 26 26 26 26 26 27 27 26 26 26 26 26 26 26 27 27 27 28 28 28 28 28 27 26 25 24 24 24 25 25 26 26 25 25 25
31 30 30 29 29 29 28 27 26 26 26 26 27 26 27 27 26 26 26 26 25 25 25 27 28 29 29 29 29 28 27 26 25 23 24 24 25 25 25 25 25 25 25
30 29 29 29 28 28 28 27 26 26 26 27 27 28 27 28 29 27 27 26 26 25 25 25 25 26 26 26 26 26 26 26 25 24 24 24 25 25 24 24 24 24 26
30 29 29 28 28 27 28 27 27 27 27 27 28 28 29 28 29 29 28 27 26 26 25 23 23 24 25 25 25 26 26 25 25 24 24 24 24 23 23 24 24 25 25
29 29 29 29 28 27 27 25 27 28 28 28 28 29 27 28 28 30 31 29 30 28 23 24 24 24 25 26 26 26 26 25 24 24 24 23 23 23 23 25 25 24 24
21 28 28 28 28 27 27 26 25 23 26 27 29 29 27 27 27 27 28 29 27 26 24 23 25 26 26 27 27 27 26 25 25 24 24 23 22 23 24 25 24 23 23
19 22 25 28 28 27 27 27 27 25 24 23 26 26 26 26 26 26 25 25 25 25 25 27 27 27 28 27 26 25 24 24 24 23 23 23 23 24 25 25 24 23 23
16 18 20 23 25 26 28 28 28 27 27 27 25 25 25 25 25 25 25 25 25 25 25 26 27 26 26 25 24 24 23 23 23 22 23 24 24 24 24 23 22 22 22
15 18 20 22 22 22 23 24 25 26 27 24 24 23 22 21 22 22 23 24 24 25 25 26 25 24 24 23 22 22 22 22 22 22 23 23 22 21 21 21 22 22 21
14 18 20 22 22 23 23 23 24 25 25 24 23 23 24 23 23 22 21 21 22 23 23 23 22 21 21 20 20 21 22 22 22 21 21 20 20 20 19 19 20 20 21
15 18 20 22 22 22 22 23 22 22 23 21 19 18 24 20 20 19 18 18 19 20 20 20 20 19 19 19 19 19 20 20 20 21 21 20 20 19 19 19 19 19 20
16 18 20 19 20 20 19 18 16 17 18 19 20 20 20 18 17 16 16 16 17 17 18 18 18 18 18 18 18 18 18 18 17 18 19 20 20 20 20 19 19 19 21
15 13 15 15 16 17 18 17 16 15 15 16 17 17 17 16 15 15 15 15 15 14 14 15 14 15 16 15 14 15 16 16 16 16 17 17 18 19 20 21 21 21 22
8 8 7 8 8 11 11 12 15 14 12 12 12 13 13 14 14 14 14 14 14 14 13 13 13 13 12 13 13 13 13 13 14 15 16 15 16 18 19 20 20 20 21
4 4 4 4 4 4 5 5 5 6 6 6 8 9 10 11 12 13 13 12 12 11 10 10 9 8 8 9 9 9 11 12 13 14 15 16 17 17 16 16 17 18 19

GFSGL_925_temp_063.txt.gz
Temp
23 23 23 24 25 26 26 27 27 28 27 28 26 26 26 25 25 25 25 25 25 25 25 25 25 26 27 27 26 26 27 28 26 28 28 28 28 28 29 28 28 28 28
23 24 23 23 24 24 26 26 27 27 27 27 27 26 26 25 26 25 25 25 25 25 25 25 25 25 26 26 26 26 26 26 26 26 27 28 27 27 28 28 28 28 28
24 23 24 23 23 24 24 26 27 27 27 27 26 26 26 26 26 26 25 25 25 25 26 26 26 26 25 25 26 26 26 26 26 25 26 26 26 27 28 28 28 28 28
25 24 24 24 23 23 24 24 26 27 27 27 27 26 27 26 26 26 25 25 25 25 25 25 26 26 26 26 26 26 26 26 26 26 26 26 26 27 27 26 27 27 27
26 25 24 24 24 23 23 24 25 25 26 26 26 26 26 26 26 26 25 25 25 25 26 26 25 26 26 26 26 26 25 25 25 25 25 25 25 25 25 26 25 25 25
28 26 25 25 24 24 24 24 24 24 25 26 26 26 25 25 26 26 26 25 25 25 25 25 26 26 26 26 26 26 26 25 25 25 25 24 25 25 26 25 24 23 23
29 27 26 25 25 24 24 24 24 24 24 24 25 24 25 25 25 25 25 25 25 25 25 25 25 25 25 26 26 26 26 26 26 26 25 25 24 26 25 25 25 24 23
28 28 26 26 25 25 25 24 24 24 24 24 24 24 24 24 25 25 25 25 25 26 26 26 26 25 26 25 26 26 26 26 26 26 26 26 26 26 25 26 25 23 23
25 27 27 26 25 25 25 25 24 24 24 24 24 24 24 24 24 25 25 26 26 25 26 26 26 26 26 26 26 26 26 26 26 26 26 25 26 26 25 25 23 22 22
28 28 28 27 26 25 25 25 25 25 25 24 24 24 24 24 24 25 25 25 26 25 25 26 26 26 26 26 26 26 25 26 26 26 26 26 25 25 25 25 25 23 22
28 29 28 27 27 26 26 25 25 25 25 25 24 24 24 24 24 24 25 25 24 24 24 25 26 26 26 26 26 26 25 26 25 25 25 25 25 25 25 25 25 25 24
29 29 29 28 27 26 26 25 25 25 25 25 25 25 24 24 24 24 25 25 25 24 24 25 25 26 26 26 27 26 26 26 25 25 24 24 25 25 25 25 25 25 24
22 28 29 28 28 27 26 25 25 25 25 25 25 25 25 25 25 25 25 25 25 25 25 25 25 26 26 26 26 27 27 26 25 23 24 24 25 25 24 24 24 25 25
19 25 29 27 27 28 26 26 25 25 25 25 25 25 25 25 25 25 25 25 25 25 25 25 25 26 26 26 26 26 27 27 26 25 25 25 25 24 24 24 24 24 24
18 23 27 28 27 27 27 26 26 26 26 25 26 25 26 25 26 26 25 26 26 26 25 23 23 24 24 24 24 24 25 26 25 25 25 24 24 24 24 24 24 24 23
16 20 26 27 27 27 27 26 26 26 26 26 26 26 26 27 26 26 27 27 28 27 23 22 22 22 22 23 23 24 25 25 25 25 24 24 24 24 23 24 23 24 24
14 16 19 26 27 27 26 26 23 24 26 26 26 26 27 27 27 28 28 27 28 27 23 22 23 22 22 23 23 24 24 25 26 25 25 24 24 24 23 23 24 24 23
14 15 16 19 25 26 26 26 24 23 22 23 26 27 27 26 26 27 28 28 25 22 23 23 23 23 23 23 24 25 25 25 25 25 24 24 23 23 23 23 23 23 22
13 14 15 18 22 25 26 25 24 23 23 22 22 23 24 25 25 25 26 26 23 22 23 23 23 23 24 25 25 26 26 25 25 24 25 23 23 23 23 23 23 22 22
12 14 14 17 20 23 25 25 24 23 23 21 20 21 22 22 23 23 24 24 24 23 22 23 23 26 26 26 25 25 25 24 23 23 22 22 23 23 22 22 21 21 21
12 12 14 19 20 21 22 23 23 22 21 20 19 20 20 22 22 22 22 21 21 23 24 23 22 19 19 21 21 21 22 22 22 22 22 21 21 22 22 21 20 20 20
12 13 15 17 19 19 20 19 20 20 20 20 19 20 21 20 20 19 19 18 18 19 20 20 20 18 18 19 19 20 20 20 20 20 20 21 21 20 20 19 19 20 19
10 11 12 13 16 15 15 15 16 17 17 18 18 18 18 17 17 17 17 17 17 16 16 17 16 16 16 17 18 18 18 17 17 18 19 19 19 19 19 19 19 19 19
7 7 7 8 9 10 13 13 12 13 14 14 15 15 14 15 14 15 15 15 14 14 14 14 14 14 14 15 15 15 15 16 17 17 17 18 19 19 19 18 19 19 19
4 4 4 5 5 5 6 7 8 9 9 9 11 12 13 13 13 13 13 12 12 12 11 11 11 12 13 13 12 13 13 15 15 15 16 16 16 16 16 17 17 18 18
3 3 3 3 3 3 3 3 3 4 5 8 9 9 8 9 10 10 10 10 10 9 10 9 8 9 10 11 10 11 12 14 14 14 15 14 14 15 15 15 16 17 17

GFSGL_925_temp_066.txt.gz
Temp
23 23 24 25 25 25 25 26 26 26 26 26 26 26 25 25 25 24 25 25 25 25 25 25 25 26 26 26 26 26 26 25 24 26 27 27 27 27 27 27 27 27 27
23 23 23 25 25 25 25 26 26 26 26 26 27 26 26 25 25 24 25 25 25 25 25 25 25 25 26 26 25 26 26 26 25 25 26 26 27 27 27 27 27 27 27
23 23 23 23 23 24 24 25 26 26 26 26 27 27 26 26 25 25 25 25 25 25 25 25 25 25 25 25 25 25 25 25 25 24 24 25 26 26 26 26 27 27 27
24 23 23 23 23 23 24 24 25 25 26 26 26 26 26 26 25 25 25 25 25 25 25 25 25 25 25 25 25 25 25 25 25 25 24 25 25 25 25 25 25 26 26
24 23 23 23 23 23 23 24 24 25 25 26 26 26 26 26 26 25 25 25 25 25 25 25 25 25 25 25 25 25 25 25 25 25 24 24 24 24 24 25 24 24 25
24 24 23 23 23 23 23 23 23 24 24 25 25 26 25 26 26 26 26 25 25 25 25 25 25 25 25 25 25 25 25 25 25 24 24 23 24 24 25 24 24 23 22
25 24 24 23 23 23 23 22 23 23 23 23 24 25 25 25 25 25 26 25 25 25 25 25 25 25 25 25 25 25 25 25 25 25 24 24 24 25 25 24 24 23 22
26 25 24 24 23 23 23 22 22 22 22 23 23 24 24 25 25 25 25 25 25 25 25 25 25 25 25 25 25 25 25 25 25 25 25 25 25 26 25 25 24 22 22
24 24 25 25 24 24 23 23 23 22 22 22 23 23 23 24 24 24 24 24 24 24 25 25 25 25 26 26 25 25 25 25 26 26 26 26 25 25 25 24 24 22 21
21 21 23 26 25 24 24 23 23 23 23 22 23 23 23 23 24 24 24 24 23 23 23 24 25 25 26 26 25 25 24 25 25 26 25 25 25 25 25 24 24 22 22
19 21 23 24 26 25 24 24 24 23 23 23 23 23 23 23 23 24 24 24 23 23 23 23 24 25 26 26 26 25 25 26 25 25 25 25 25 25 25 24 24 24 23
17 19 23 25 26 25 25 24 24 24 24 24 23 23 23 23 23 23 23 24 24 23 23 23 24 24 25 26 25 25 25 25 25 24 24 24 24 24 25 25 24 24 24
16 20 21 22 24 25 25 25 24 24 24 24 24 24 24 23 23 23 24 24 24 24 23 24 24 25 25 25 25 25 26 25 24 22 22 23 24 26 25 24 24 24 24
15 15 18 18 22 25 26 25 25 24 24 25 24 24 24 24 23 23 23 23 24 24 24 24 24 24 24 24 25 25 25 25 25 24 23 24 24 24 25 24 23 23 23
14 14 15 18 22 25 26 25 25 25 25 25 25 25 24 24 24 24 24 23 24 24 24 22 22 23 23 24 24 25 25 25 25 26 25 24 24 24 24 23 23 23 22
13 13 14 15 18 24 26 25 26 26 25 25 25 25 25 25 25 25 24 24 24 25 22 21 21 22 21 22 22 23 23 23 24 25 25 25 24 24 23 23 23 22 22
12 12 13 14 16 21 26 25 23 24 25 25 25 25 25 25 25 25 25 25 25 25 22 21 21 21 22 21 22 22 21 22 23 24 24 25 24 24 23 23 22 22 22
11 12 12 13 15 17 22 25 24 24 22 23 25 25 25 25 25 25 25 25 24 22 21 22 21 22 22 22 22 22 21 22 22 22 23 24 24 24 23 22 22 22 22
11 11 11 12 14 15 18 22 24 24 23 23 22 24 25 25 25 25 25 24 23 22 22 21 22 21 21 21 21 21 21 21 22 22 23 24 24 23 22 23 23 22 22
11 12 11 12 13 15 17 20 22 23 22 22 21 22 24 23 21 23 22 21 22 22 22 21 21 21 21 22 22 23 21 19 21 22 22 24 23 22 23 23 22 22 21
9 10 11 13 15 17 18 19 21 22 22 21 20 20 20 22 20 21 20 20 20 21 20 21 21 22 22 23 24 23 21 22 17 18 20 21 21 22 22 21 21 20 20
9 9 9 9 12 16 17 19 20 22 20 19 18 18 18 19 19 18 18 18 19 20 19 19 20 20 19 19 19 19 22 18 19 18 19 19 20 21 21 21 20 19 19
9 7 7 9 7 11 14 16 16 18 18 17 17 17 17 17 16 15 15 15 16 17 16 16 17 18 17 16 17 18 19 18 17 17 18 19 19 19 19 19 19 19 19
7 5 5 7 6 6 7 7 9 12 15 15 15 15 15 14 13 12 12 11 13 13 13 13 12 13 14 13 13 14 15 15 15 16 17 18 18 18 18 18 18 18 18
4 3 3 4 4 4 4 5 5 6 7 7 9 12 12 12 11 10 9 9 10 9 9 11 11 11 11 12 13 13 12 14 15 15 15 17 16 16 16 17 17 17 17
3 3 2 2 2 2 3 3 3 3 3 5 5 6 7 6 6 5 5 5 7 8 5 5 6 7 8 8 9 10 12 13 14 15 15 15 15 15 15 16 16 16 16

GFSGL_925_temp_069.txt.gz
Temp
23 24 24 25 26 25 25 25 25 25 25 25 25 25 25 25 24 24 24 24 24 24 24 24 25 25 25 25 25 25 25 24 23 25 25 26 26 26 27 27 27 26 26
23 23 24 25 25 26 25 25 25 25 25 25 25 25 25 25 25 24 24 24 24 24 24 24 24 24 24 25 25 25 25 24 24 23 25 25 25 26 26 26 26 26 26
23 23 23 23 24 25 25 26 25 25 25 25 25 25 25 25 25 25 25 24 24 24 24 24 24 24 24 24 24 25 25 24 24 24 24 25 25 25 25 25 25 25 26
23 22 22 23 23 24 26 26 26 26 25 25 25 25 25 26 26 26 25 25 24 24 24 24 25 25 25 25 25 25 25 24 24 24 24 24 24 24 24 24 25 25 25
23 22 22 22 23 24 24 25 26 26 26 26 25 25 25 25 25 26 26 25 25 25 24 24 24 25 25 25 24 24 25 24 24 24 24 24 24 24 24 24 23 24 25
23 23 23 22 22 23 23 24 24 25 26 25 25 25 25 25 25 25 26 25 25 25 25 25 25 25 25 25 24 24 24 24 24 24 23 23 23 24 24 24 23 22 22
23 23 22 22 22 22 23 23 23 24 24 24 24 24 24 25 25 25 25 25 25 25 25 25 25 25 25 25 25 24 24 24 24 24 23 23 23 24 24 24 24 23 22
23 23 23 23 22 22 22 22 22 22 23 23 23 23 23 24 25 25 25 25 25 25 25 25 25 25 25 25 25 24 24 24 25 24 24 24 24 25 24 24 23 22 23
21 22 23 23 22 22 22 22 22 22 22 22 22 23 23 23 23 24 25 25 24 24 25 25 25 25 25 25 24 24 24 25 25 25 25 25 25 25 24 23 23 22 21
18 19 21 22 23 22 22 22 22 22 22 22 22 22 23 23 23 23 23 23 23 23 23 23 24 25 25 25 24 24 23 25 25 25 25 25 25 25 25 24 24 22 21
16 17 19 20 22 23 23 23 22 22 22 22 22 22 22 23 23 23 23 23 23 23 22 23 22 24 25 25 24 24 24 25 25 25 25 25 25 24 24 24 24 23 23
16 16 16 17 19 21 23 24 23 23 22 22 22 22 22 22 23 23 23 23 23 23 23 23 22 23 24 24 24 25 25 24 23 23 22 23 23 24 25 25 24 24 23
14 16 16 17 17 19 21 24 24 23 23 23 22 22 22 22 22 23 23 23 23 23 22 23 23 23 23 23 24 24 24 24 23 22 21 22 23 25 25 24 25 24 23
12 14 15 16 16 17 20 21 24 23 22 22 22 23 23 23 22 22 23 23 23 23 23 22 23 23 23 23 23 23 23 24 23 23 23 24 24 24 24 24 23 24 23
12 13 14 16 15 16 17 20 21 23 23 23 23 24 23 23 24 23 23 23 23 23 22 21 21 21 21 21 22 22 23 23 23 23 23 23 24 24 24 24 23 23 22
10 11 12 13 14 14 16 18 21 23 24 24 24 24 24 24 24 24 24 23 23 23 21 20 21 21 21 21 21 20 21 22 23 24 24 24 24 24 24 24 23 23 22
10 10 11 12 13 14 14 16 19 23 24 25 25 24 25 25 25 24 24 24 24 23 21 21 21 21 21 21 21 21 21 22 22 23 23 22 22 23 24 23 23 23 22
10 11 11 11 12 13 13 14 16 20 23 22 24 25 25 25 25 25 25 24 22 21 21 21 21 21 21 21 21 21 21 21 21 21 21 21 20 21 21 21 21 22 22
9 10 10 10 11 12 13 13 15 17 21 23 23 23 24 24 24 24 24 24 21 20 20 20 21 21 21 21 21 21 21 21 21 21 21 20 20 20 20 21 21 22 22
8 9 9 10 11 12 13 14 15 17 20 21 22 22 22 22 20 21 22 22 20 21 21 20 21 21 21 21 21 21 21 21 21 20 21 20 19 20 20 18 18 20 21
7 8 9 9 10 10 11 15 16 17 19 21 21 21 23 22 20 20 20 19 20 21 22 22 21 20 20 21 21 21 20 20 20 21 21 22 23 24 27 25 22 17 20
6 7 8 8 8 9 9 11 14 17 18 20 21 20 20 20 19 20 19 19 19 20 20 20 20 19 19 18 19 19 18 18 19 21 21 23 22 21 21 18 17 17 19
6 6 6 6 6 7 8 8 9 11 17 19 19 18 18 17 16 15 15 15 16 16 16 17 17 16 16 16 17 18 17 17 17 18 19 19 20 18 18 17 17 18 18
4 4 4 5 5 5 5 5 6 8 11 14 16 15 14 14 13 11 9 10 10 10 11 11 10 12 13 13 14 14 14 14 15 16 17 18 17 16 17 17 18 18 18
3 3 3 3 4 4 3 4 5 5 6 8 9 9 8 7 6 6 6 6 6 8 7 7 10 7 9 10 10 13 14 14 15 16 17 16 15 16 16 17 18 18 18
2 2 2 2 2 2 2 3 3 3 3 4 5 5 5 3 4 3 3 4 5 5 5 4 4 5 8 9 8 9 10 12 13 13 14 14 14 13 15 15 15 15 16

GFSGL_925_temp_072.txt.gz
Temp
23 23 24 25 25 25 25 25 25 25 25 25 24 24 25 25 25 25 24 24 23 23 23 23 24 24 24 24 24 24 24 24 23 24 25 25 25 25 26 26 26 25 25
23 23 24 25 25 25 25 26 25 25 25 25 24 24 24 25 25 24 24 24 24 24 24 23 24 24 24 24 24 24 23 24 23 23 24 25 25 25 25 25 26 25 25
22 22 23 24 25 25 25 25 25 25 25 25 25 24 24 25 25 25 24 24 24 24 24 24 24 24 24 24 24 24 24 24 23 22 23 23 24 25 25 25 25 25 25
23 22 23 23 23 25 26 25 25 25 25 26 26 25 25 25 25 25 25 24 24 25 24 24 24 24 24 24 24 24 24 24 24 23 23 23 24 24 24 24 24 24 24
23 22 23 23 23 23 23 24 25 25 25 25 26 26 25 25 25 25 25 25 24 25 25 25 24 24 24 24 24 24 24 24 24 23 23 23 22 23 23 23 23 24 24
22 22 23 22 22 23 23 23 24 24 24 24 25 25 26 25 26 26 26 25 25 24 25 25 25 25 24 24 24 24 24 24 23 23 22 22 22 23 23 23 22 22 22
21 22 22 22 22 22 23 22 22 23 24 23 24 24 25 25 26 26 26 25 25 25 25 25 25 25 25 25 25 25 24 24 24 23 22 22 22 23 23 23 22 21 21
20 21 22 22 22 22 22 22 22 22 22 23 23 24 24 24 25 25 26 25 25 25 25 25 25 25 25 25 25 25 25 25 24 24 24 24 24 24 24 23 22 22 22
18 19 21 21 21 21 21 21 21 21 22 22 22 23 23 24 24 24 24 24 24 25 25 25 25 25 25 25 24 24 24 25 25 25 24 24 25 24 24 23 22 21 22
16 17 19 20 20 21 21 22 22 21 21 21 22 22 23 23 24 24 23 22 22 22 23 24 25 25 25 25 24 24 22 24 25 25 25 25 25 25 24 24 23 21 21
16 16 18 19 19 20 20 21 21 21 21 21 21 22 22 22 24 23 23 22 21 22 22 22 22 24 24 24 24 23 23 25 24 24 24 24 24 24 24 24 24 23 21
15 16 16 18 19 20 21 21 21 21 21 21 21 21 21 22 22 23 23 22 22 21 22 22 22 23 23 24 24 24 24 24 22 21 21 22 21 23 25 25 24 24 24
13 15 16 15 17 18 19 18 19 20 21 21 21 21 21 21 21 22 22 23 23 22 22 22 23 23 23 23 23 23 23 22 22 20 20 21 22 23 24 23 24 23 23
12 12 14 16 15 16 16 18 19 20 21 22 22 22 22 22 22 22 22 22 22 22 22 22 22 22 22 22 22 22 22 22 22 22 21 23 22 22 23 23 23 23 21
10 11 12 13 13 14 14 16 18 20 20 21 22 22 22 21 22 22 22 22 23 23 21 20 20 20 20 21 21 21 22 22 22 22 22 21 22 22 23 23 23 22 21
8 10 11 11 12 14 14 15 17 18 21 21 21 22 22 23 23 23 23 22 23 23 20 20 20 20 21 21 21 21 20 20 21 21 22 22 21 21 22 23 23 22 21
7 8 10 10 11 11 13 13 14 17 19 22 21 22 22 23 23 23 23 23 22 22 20 20 20 21 21 21 21 21 21 20 21 21 20 20 20 20 21 21 21 22 21
7 8 8 9 9 10 12 12 13 14 15 17 22 21 23 23 23 23 24 23 22 20 20 21 21 21 21 21 21 21 21 21 20 20 20 21 21 20 20 20 20 21 20
6 6 7 8 9 10 11 12 12 14 15 16 18 21 22 23 23 23 23 22 21 20 20 20 21 21 21 21 21 21 21 21 21 20 20 21 21 21 20 20 20 21 20
6 6 7 8 9 9 11 12 13 14 15 16 17 19 21 21 21 20 21 22 21 21 21 20 20 21 21 21 21 21 21 21 21 21 21 21 21 20 20 20 20 20 19
5 6 7 7 8 9 10 10 11 14 15 16 17 18 20 21 20 20 20 20 20 20 21 21 20 20 20 21 21 21 21 21 21 20 20 20 20 19 19 19 19 19 19
6 6 6 7 8 8 8 8 9 11 12 13 16 18 19 20 20 20 20 20 20 19 20 20 20 20 20 20 20 20 20 20 20 19 19 18 19 19 19 18 17 18 18
5 5 5 6 6 6 6 7 7 8 9 11 12 16 17 18 19 19 19 18 17 17 17 17 18 17 16 16 16 17 17 17 17 18 18 18 17 17 17 18 19 18 17
3 4 4 4 4 4 5 5 5 6 6 8 11 14 14 13 12 13 12 11 11 12 11 12 12 12 13 13 14 14 15 15 15 15 16 16 17 16 17 17 18 18 18
3 3 3 3 3 3 3 3 4 4 5 5 5 6 6 7 6 6 6 7 6 6 7 8 8 9 10 9 10 11 11 13 14 14 14 15 16 17 17 17 16 17 17
2 2 2 2 2 2 2 2 2 3 3 3 3 3 3 3 3 3 3 3 3 3 3 5 6 7 7 7 7 8 10 11 12 12 12 13 13 12 14 14 15 15 14

GFSGL_925_temp_075.txt.gz
Temp
23 23 23 23 23 22 22 24 24 25 25 25 24 24 24 24 24 24 24 22 22 22 22 22 22 22 24 24 23 24 24 24 26 27 24 24 25 24 25 25 25 25 26
23 22 22 23 23 22 22 23 24 24 25 25 25 24 23 23 24 24 24 23 24 23 23 22 23 23 22 23 23 23 24 24 24 25 25 25 24 23 23 23 24 25 24
23 22 22 22 22 23 22 23 24 24 24 24 24 25 24 23 23 24 24 24 23 23 23 23 23 23 23 24 23 24 24 24 23 24 25 25 24 24 24 25 24 24 25
24 23 22 23 23 23 23 23 23 25 24 23 24 24 25 24 23 23 23 23 23 23 23 23 23 23 23 23 23 23 23 23 24 24 25 25 25 25 24 25 26 26 25
24 24 24 22 23 24 23 23 23 23 24 24 23 23 23 24 24 24 24 23 23 23 23 23 23 23 24 24 24 24 23 23 25 25 25 26 26 26 25 25 25 25 26
20 23 23 23 22 22 22 22 23 23 22 23 22 23 23 24 25 25 25 24 24 23 24 23 23 24 25 25 24 24 24 23 23 24 25 26 25 24 25 25 25 25 26
20 21 22 22 22 22 22 22 22 22 22 22 22 22 22 23 24 24 25 25 24 24 24 24 24 25 25 24 24 25 25 24 24 23 23 24 24 24 24 23 24 24 24
20 20 21 21 22 22 22 22 21 22 22 22 22 22 22 23 24 25 25 25 24 24 24 24 24 24 24 24 24 24 24 24 24 25 24 23 23 23 23 23 23 22 23
17 18 18 19 21 22 22 22 22 21 21 21 22 22 21 22 24 25 24 22 24 23 23 23 24 24 24 26 25 24 24 24 25 24 25 24 25 25 24 23 24 25 26
14 14 15 17 18 20 22 22 22 21 22 22 22 22 22 22 23 24 24 22 23 24 24 23 23 24 24 25 25 24 24 24 24 25 24 24 25 25 25 24 23 24 26
14 14 15 16 17 18 19 21 21 21 21 22 22 22 22 22 22 23 23 22 23 24 24 24 24 23 24 24 24 23 24 24 24 23 24 25 25 24 24 23 23 23 25
13 14 14 14 15 16 18 19 19 20 20 21 21 22 23 22 21 22 23 23 22 23 24 25 24 24 23 23 24 24 24 24 23 24 25 25 25 25 25 24 23 22 23
12 12 13 14 14 15 16 17 19 20 21 22 23 22 23 24 23 22 21 23 22 21 23 24 24 23 23 23 23 23 23 22 22 23 24 24 25 25 24 23 22 21 21
12 12 12 13 14 14 14 15 16 18 21 22 22 23 24 24 24 24 22 21 21 21 21 22 22 22 22 22 22 22 22 21 22 23 24 24 24 24 24 23 24 24 23
12 12 12 13 13 14 15 15 16 17 17 19 20 21 23 24 24 24 24 23 21 21 21 21 22 22 22 22 22 22 22 22 21 22 23 23 24 24 24 24 23 23 23
12 12 13 12 12 13 12 15 15 16 19 18 18 18 20 22 23 23 23 22 21 21 20 22 22 23 23 22 22 22 21 22 23 23 23 23 24 24 24 24 23 23 24
10 10 11 11 12 12 13 13 13 15 16 17 18 20 20 20 21 22 22 21 21 20 20 22 22 22 21 21 22 22 22 22 21 22 23 23 23 24 24 23 24 23 24
8 7 7 10 11 12 12 13 13 14 15 15 17 17 20 19 21 21 20 21 20 20 20 21 21 21 22 22 22 23 23 22 21 22 23 23 23 23 23 23 23 24 24
7 7 7 7 8 9 9 10 11 12 13 14 15 17 17 19 20 21 20 19 20 20 19 20 22 22 21 22 23 23 23 22 21 21 22 23 23 23 23 24 24 23 23
7 6 6 7 7 8 8 9 10 11 12 13 14 15 16 18 18 19 19 19 19 22 22 21 21 22 22 22 22 22 22 22 21 21 21 21 21 21 21 21 21 21 20
6 7 7 6 7 7 8 9 9 10 10 12 14 16 16 17 18 19 20 20 19 20 22 22 22 22 22 21 21 21 21 21 21 21 21 21 21 21 21 21 21 20 20
5 5 6 6 6 7 8 8 8 9 9 10 11 13 14 15 16 17 19 20 20 20 20 21 21 21 21 21 21 21 21 21 21 21 21 21 20 20 20 19 19 19 20
5 5 5 6 6 6 7 7 7 7 8 8 8 9 10 14 16 17 18 19 19 19 19 18 19 19 19 19 19 20 20 20 20 19 19 19 19 18 18 17 18 19 19
3 3 4 4 5 5 5 5 5 5 5 6 6 8 9 10 13 13 14 14 13 13 13 14 14 14 15 15 15 16 16 16 17 17 17 17 17 17 18 19 19 20 21
2 3 3 3 3 3 4 4 4 4 4 4 4 5 5 6 6 7 7 8 7 7 8 7 8 9 9 9 11 11 12 13 14 15 15 15 15 16 16 17 18 19 19
1 2 2 2 2 2 2 3 2 3 3 3 3 3 3 3 3 3 4 5 5 4 4 4 4 6 7 7 7 8 10 11 12 13 14 14 14 13 12 12 13 14 14

GFSGL_925_temp_078.txt.gz
Temp
26 25 25 25 25 24 24 24 24 25 25 25 25 25 24 25 25 24 24 25 24 24 25 25 24 25 26 27 27 27 27 28 28 29 29 29 26 26 26 26 27 27 29
26 25 25 25 25 25 24 25 24 24 25 25 25 24 25 25 25 24 25 26 25 25 25 25 25 25 24 25 26 26 27 27 27 27 28 28 27 26 26 25 27 28 28
25 25 24 25 25 25 25 25 25 24 24 25 25 25 25 25 25 25 25 25 25 25 25 25 25 25 25 26 26 27 27 27 27 27 28 28 28 27 27 27 27 28 29
28 26 24 24 24 24 25 25 25 24 24 25 25 25 25 25 25 25 25 25 25 26 25 25 25 25 25 25 25 25 25 26 27 27 28 28 29 28 28 28 29 29 29
25 27 27 25 24 24 23 24 25 25 24 24 25 25 25 25 26 25 26 26 25 26 26 25 25 25 25 25 26 26 26 26 27 28 29 29 29 29 28 28 28 29 29
22 23 25 26 25 24 23 22 24 25 24 24 24 25 25 26 27 26 26 26 26 26 26 26 25 25 24 24 25 25 25 25 25 26 28 29 28 27 28 28 28 28 28
19 22 22 23 24 24 24 24 23 24 24 24 24 25 25 25 26 26 25 25 26 26 26 26 26 27 26 25 25 25 25 24 24 24 25 25 26 26 26 25 26 26 26
16 17 17 20 22 23 23 23 24 24 24 24 24 24 24 25 25 25 25 25 25 25 26 26 26 26 27 26 26 26 25 25 25 24 23 24 25 25 25 25 25 25 25
16 15 15 16 18 20 23 23 23 23 23 24 24 24 24 24 24 24 24 24 25 24 25 25 26 26 26 25 25 26 26 26 27 26 25 25 25 25 25 24 26 27 29
18 17 15 15 16 17 19 20 22 23 23 23 24 24 24 24 23 23 23 24 25 25 25 25 25 25 25 25 24 25 25 26 27 27 26 25 25 25 25 24 24 26 28
17 17 16 16 15 16 17 18 19 21 22 23 24 24 24 24 23 23 23 23 25 26 26 27 27 26 25 24 24 24 25 26 26 26 26 27 27 27 26 25 23 25 28
16 16 16 16 16 16 16 17 17 19 20 21 22 22 24 24 24 23 23 22 23 25 26 28 28 27 26 25 25 24 23 23 25 27 28 28 29 29 29 29 27 25 26
16 16 16 16 16 17 17 17 17 17 20 22 21 21 22 25 26 25 24 23 22 21 24 26 26 26 26 25 24 24 23 22 23 25 27 28 28 29 29 28 27 26 24
15 15 16 16 17 17 17 19 20 19 20 20 24 23 23 24 25 27 26 24 23 22 22 22 23 24 24 24 24 23 22 22 24 25 26 27 28 28 28 28 27 27 27
15 16 16 17 17 17 17 18 17 18 18 17 17 19 20 20 23 22 23 24 23 21 22 23 23 24 25 25 25 25 25 24 23 24 26 27 27 27 27 27 28 28 28
13 15 16 16 16 17 17 18 17 17 16 16 16 15 18 17 18 20 21 21 21 22 20 23 25 26 26 27 27 26 26 26 26 26 26 26 27 27 27 27 27 28 27
9 12 13 14 16 16 16 17 18 18 17 16 16 17 17 17 17 18 19 20 20 20 21 22 24 26 27 26 26 25 26 26 25 25 26 27 27 27 27 27 28 28 27
8 9 10 12 14 15 16 16 17 17 18 18 17 16 17 17 17 18 18 20 20 19 20 22 24 25 25 24 23 25 25 25 25 24 24 24 26 27 27 27 27 27 27
8 10 11 12 13 13 13 13 14 14 14 16 17 17 18 18 17 17 19 20 18 20 20 21 23 24 24 24 24 24 25 25 26 25 25 25 25 27 27 27 27 27 27
7 7 7 9 10 12 13 13 13 13 13 14 16 17 18 18 18 20 19 19 19 18 21 23 23 24 24 24 24 24 24 24 25 25 24 24 24 23 25 26 27 27 26
5 7 7 8 10 11 11 10 10 11 11 12 12 14 14 14 16 17 19 19 19 18 19 21 23 23 23 23 23 23 23 23 23 23 23 23 23 22 22 22 22 23 22
5 5 6 6 7 8 9 9 9 9 10 10 11 13 12 12 14 16 17 19 19 20 20 20 20 21 22 22 23 23 22 22 22 21 21 22 22 21 21 21 21 21 21
4 4 4 5 5 6 6 8 9 9 9 10 10 10 11 12 13 13 14 15 16 18 18 18 19 19 20 20 20 21 21 21 21 21 21 21 21 21 21 21 20 20 19
2 2 3 3 4 4 5 6 7 7 7 7 8 8 8 9 8 8 9 11 12 14 14 15 15 16 17 17 17 17 17 18 18 18 19 19 19 19 19 19 18 18 18
1 1 1 2 3 3 3 4 4 5 5 5 5 5 5 5 5 6 6 7 8 8 9 9 10 11 12 12 13 14 14 15 16 15 15 16 16 17 17 17 17 17 18
1 0 0 0 1 2 2 3 3 3 3 4 4 3 3 3 3 4 4 4 5 5 5 6 6 7 8 9 9 10 11 12 12 14 14 14 14 14 14 14 14 14 13

GFSGL_925_temp_081.txt.gz
Temp
27 27 27 26 26 25 26 26 26 26 26 27 26 27 26 26 26 25 25 25 25 25 25 26 26 26 27 29 29 29 29 29 30 30 30 30 28 28 27 26 27 28 30
28 27 27 27 27 27 26 26 26 25 25 26 26 25 25 26 26 26 26 27 26 26 26 26 26 27 25 26 27 28 28 28 28 28 28 28 29 29 28 27 27 28 29
29 28 27 27 26 27 27 26 26 25 25 26 26 25 25 26 26 26 26 26 26 26 26 26 26 26 26 26 27 28 28 27 28 28 28 29 29 29 29 29 29 29 30
26 28 28 26 26 26 27 27 26 26 25 25 26 26 26 26 26 27 26 25 25 27 27 27 27 27 26 26 26 26 26 27 28 28 28 29 30 30 30 30 30 30 30
23 25 28 27 26 26 26 26 26 26 25 25 25 26 26 26 27 26 27 26 25 26 27 27 26 27 27 26 26 27 27 27 28 29 29 30 30 30 30 29 29 30 30
18 20 22 24 25 26 25 25 24 25 26 26 25 25 26 27 28 27 27 27 27 27 26 26 27 27 26 26 25 26 26 25 26 27 28 29 28 28 29 29 29 28 28
17 17 18 19 21 23 24 25 25 24 25 25 25 25 25 25 27 27 27 27 27 27 27 26 27 28 27 26 25 25 25 26 25 25 25 26 26 26 26 26 27 27 27
17 17 17 17 18 19 21 23 23 24 24 24 25 25 25 25 26 26 26 26 26 26 27 27 27 27 27 27 26 26 25 25 25 25 24 24 24 25 25 25 26 25 26
19 17 16 16 16 17 19 19 20 22 23 23 24 24 24 25 25 25 25 25 26 26 26 26 26 26 27 26 27 26 27 27 28 27 27 26 26 26 26 25 26 27 28
20 19 19 17 16 16 16 17 18 20 21 22 23 23 24 24 25 24 24 24 25 26 26 25 25 25 26 26 26 26 26 26 27 27 27 26 26 25 25 25 24 25 27
18 19 19 18 18 17 17 17 17 18 19 21 22 22 23 24 24 24 24 24 25 26 27 28 27 27 26 26 26 25 25 26 26 26 26 27 27 28 27 26 26 25 26
17 18 18 18 18 19 18 18 18 18 18 19 20 21 22 23 23 24 24 24 24 24 26 28 29 29 28 28 27 26 25 25 25 25 27 28 29 29 30 30 29 27 26
16 16 17 17 18 18 18 19 20 22 20 20 21 21 22 23 23 24 24 24 23 23 24 25 26 27 27 27 27 27 26 24 24 25 25 26 27 29 29 30 30 29 27
15 16 17 18 18 18 19 20 21 22 22 23 22 21 21 20 21 22 19 20 19 20 21 21 23 24 25 26 26 25 25 24 24 25 25 26 27 28 29 29 29 29 30
14 14 17 18 19 19 19 20 20 20 20 19 19 19 20 20 20 19 18 16 18 19 18 19 23 25 24 25 26 26 26 25 24 24 25 26 27 28 28 29 29 29 29
12 13 15 16 17 18 19 19 20 19 19 19 18 17 17 17 17 18 18 18 17 18 16 19 22 24 26 27 27 27 27 27 27 26 26 26 27 28 29 29 29 29 29
9 10 12 13 15 16 18 18 19 19 20 20 19 19 18 17 18 18 17 18 18 18 17 18 20 23 25 26 28 28 28 28 28 27 27 28 28 28 28 28 29 29 29
9 9 10 12 13 14 16 17 18 19 19 20 20 19 19 18 18 18 18 18 18 17 17 18 20 22 23 25 27 28 27 27 27 27 28 27 28 27 27 29 29 29 29
10 10 9 9 10 10 12 14 16 16 17 18 19 19 19 19 19 19 18 18 17 18 20 20 21 23 24 24 25 26 26 26 27 26 26 26 26 25 26 27 28 29 29
9 9 8 8 8 9 10 12 14 16 17 17 17 18 19 19 19 20 20 19 19 19 19 21 20 21 23 23 23 24 24 25 24 24 25 24 24 24 24 25 25 26 27
8 8 7 7 8 8 8 9 10 12 14 15 15 16 16 15 16 17 18 19 19 19 20 21 21 21 22 22 23 23 23 24 24 25 24 24 24 24 24 23 24 24 24
8 7 7 6 6 6 6 7 7 8 9 11 12 13 14 14 15 16 17 18 19 20 20 17 18 19 19 20 21 21 21 23 23 23 23 23 23 23 23 23 23 23 23
6 5 4 4 3 4 5 5 6 7 7 8 9 10 12 14 15 16 17 18 16 14 13 13 14 15 17 17 18 19 19 20 21 22 22 22 22 22 22 22 22 22 22
4 3 2 1 2 2 3 4 4 5 5 6 7 8 9 10 10 10 10 10 9 9 10 11 12 13 14 14 15 16 17 18 18 18 19 19 20 20 20 21 21 20 20
3 3 2 1 1 1 2 2 3 3 4 4 5 5 6 7 7 7 7 6 6 7 8 9 9 10 10 11 12 12 13 14 16 16 16 17 17 18 18 18 18 18 18
4 3 2 1 0 0 0 1 1 2 3 3 3 3 4 5 4 4 4 4 4 5 5 5 6 7 8 8 9 10 11 12 13 14 14 15 15 15 15 15 15 15 15

GFSGL_925_temp_084.txt.gz
Temp
26 26 26 25 25 25 25 26 27 26 25 25 26 25 26 26 26 25 25 25 25 25 25 25 26 26 26 26 26 27 29 29 28 29 28 28 29 29 29 28 28 27 29
27 27 26 26 26 25 25 25 26 26 26 26 25 26 26 25 26 25 25 26 25 25 25 25 26 26 26 26 26 27 27 28 28 27 28 29 29 28 29 29 29 28 29
28 27 27 27 27 27 26 26 26 25 25 25 26 25 25 25 26 25 25 25 26 26 26 26 26 26 26 26 26 26 26 27 27 27 27 27 28 29 29 29 29 29 29
24 23 27 27 27 26 27 26 26 26 25 25 25 26 25 25 25 26 26 26 26 26 26 26 26 26 26 26 26 26 26 26 27 27 27 28 28 29 29 29 29 29 29
19 19 21 23 26 26 26 26 26 26 25 25 25 25 26 25 26 26 26 26 26 26 26 26 26 27 27 26 26 26 26 26 26 26 27 28 28 27 28 29 29 28 28
17 18 19 20 23 23 24 25 25 25 25 26 25 25 25 25 27 27 27 27 26 26 26 26 27 27 27 27 27 26 26 26 25 25 25 26 26 27 27 27 26 26 26
18 17 17 18 19 20 21 22 23 24 25 25 25 25 25 25 25 26 27 27 26 26 26 26 26 26 27 27 27 27 26 26 26 26 25 25 25 26 25 25 25 26 25
18 18 18 17 17 18 19 20 21 22 22 23 24 24 24 25 25 25 26 26 26 26 27 27 26 26 27 27 26 26 26 26 26 26 26 26 26 27 26 25 25 25 25
20 19 18 18 18 18 17 18 19 20 21 21 22 23 24 24 24 25 25 25 25 25 26 26 26 26 26 26 27 27 26 26 26 26 27 27 27 27 27 25 24 24 25
19 19 19 19 19 18 17 17 18 18 19 20 21 21 23 24 24 24 24 24 24 25 25 25 25 25 26 26 26 26 25 26 26 26 27 27 26 26 26 25 25 24 24
17 17 18 18 18 19 19 18 18 18 18 19 20 21 22 22 22 23 24 24 24 24 25 25 26 26 26 26 26 25 25 25 25 26 26 26 26 26 26 27 27 25 24
16 16 17 17 18 18 18 18 19 19 19 20 20 21 22 21 22 22 22 23 23 23 23 24 25 26 25 25 27 27 27 26 25 25 25 25 26 26 27 27 27 28 28
14 14 16 16 17 18 18 19 19 21 22 21 22 22 22 20 20 20 19 18 19 19 19 20 22 24 24 25 25 25 25 25 23 24 24 25 25 25 26 26 27 28 28
13 14 14 15 17 18 18 19 20 21 22 21 21 21 20 19 20 20 20 20 20 20 19 19 19 21 22 23 23 24 24 25 24 24 24 24 25 25 25 26 26 27 28
11 12 14 15 15 16 18 19 19 20 20 20 19 19 19 19 19 19 19 18 18 17 19 19 20 19 21 22 24 24 24 24 24 24 24 24 24 25 25 26 26 27 28
10 11 11 12 13 15 16 17 18 19 19 19 19 19 19 19 19 18 18 18 18 17 17 17 18 19 20 21 21 23 24 24 25 24 24 24 24 24 25 26 27 27 27
10 10 11 11 12 13 15 15 16 17 17 18 19 20 20 19 19 18 18 18 18 17 17 17 17 18 19 20 21 23 21 23 24 25 25 25 25 24 25 26 26 27 28
10 11 11 12 11 11 12 12 12 13 15 17 18 18 17 18 18 19 19 18 18 19 18 17 17 18 19 21 21 23 22 22 24 25 26 26 26 26 26 26 26 26 27
10 10 10 10 10 10 10 10 11 12 13 14 16 17 18 18 19 19 19 18 18 18 19 19 20 20 20 21 21 22 22 23 24 21 21 26 26 26 26 26 25 25 26
10 10 9 9 9 9 9 9 9 10 10 12 13 14 15 17 17 17 18 18 19 19 20 20 20 21 21 20 21 21 21 21 23 23 24 25 25 24 25 25 25 24 25
10 10 9 9 8 8 7 7 7 7 8 9 10 10 10 10 11 13 15 15 16 17 18 19 20 20 20 19 19 19 20 21 22 23 24 24 24 24 24 24 24 24 24
9 8 7 6 6 6 5 5 5 6 6 7 7 8 9 9 10 11 13 14 15 16 17 18 15 14 15 15 15 15 17 17 18 19 21 22 23 23 24 24 24 24 23
8 7 6 5 4 3 4 4 4 4 4 5 5 6 7 8 9 10 11 12 12 11 11 10 10 10 11 11 12 12 13 15 17 16 17 18 20 21 21 22 23 23 22
8 6 5 4 3 2 2 1 1 2 2 3 4 4 5 5 6 7 8 9 9 9 9 8 8 8 8 8 9 10 11 12 14 15 16 16 17 18 19 20 21 21 21
8 7 5 4 3 2 1 1 0 1 1 1 2 3 3 4 4 5 6 6 7 7 7 6 6 6 7 7 8 9 10 11 12 14 15 15 16 17 16 17 18 18 19
8 6 6 5 3 1 1 0 0 -0 -0 -0 0 1 2 2 3 3 4 4 4 4 4 4 4 4 5 6 6 7 9 10 12 13 13 13 13 14 14 15 15 16 16

GFSGL_925_temp_087.txt.gz
Temp
25 25 25 25 25 25 26 26 26 26 26 25 25 25 25 25 25 25 25 25 25 25 25 25 25 25 26 26 27 27 27 26 26 27 28 28 28 29 29 29 29 29 29
25 25 25 25 25 25 25 26 25 25 26 26 25 26 25 25 25 25 25 25 25 25 25 25 26 26 26 26 26 26 26 26 25 26 27 28 27 28 28 28 29 28 29
23 25 26 25 25 25 25 25 26 25 25 25 25 25 25 25 25 25 25 25 25 25 25 25 25 26 26 26 26 26 26 26 26 25 26 27 27 28 28 28 28 28 29
19 23 23 23 23 25 25 25 25 25 25 25 25 25 25 25 25 25 25 25 25 25 25 25 26 26 26 26 26 26 26 26 26 26 26 26 27 27 27 27 27 27 28
19 20 21 23 22 24 25 25 25 25 25 25 25 25 25 25 25 25 25 25 25 25 25 25 25 25 26 26 26 26 26 26 25 25 25 25 25 26 26 26 26 26 27
19 19 19 21 21 22 22 24 25 25 25 25 25 25 25 25 25 25 25 26 26 26 26 26 26 26 26 26 26 26 26 26 26 25 25 24 25 25 25 25 25 25 24
17 17 17 19 18 19 19 21 22 22 23 24 24 24 24 24 25 25 25 25 26 26 26 26 26 26 26 26 26 26 26 26 26 26 25 25 25 26 26 26 26 25 24
18 18 18 18 18 18 19 19 19 20 21 22 23 23 23 24 24 24 24 25 25 25 25 25 26 26 26 26 26 26 26 26 26 26 25 26 26 26 26 26 25 24 24
17 18 18 18 18 18 18 18 18 18 20 21 21 22 22 23 23 23 24 24 25 25 25 25 26 26 26 26 25 26 26 26 26 26 26 26 26 26 26 25 24 23 23
16 17 17 17 18 19 18 19 19 19 19 19 20 21 21 22 22 23 23 23 23 24 24 24 25 25 25 25 25 25 25 25 25 25 25 25 26 26 26 25 25 22 22
15 16 16 17 17 18 18 18 18 19 19 20 20 21 21 21 21 21 22 22 22 22 23 23 23 24 24 24 25 25 24 24 24 24 24 24 25 25 25 25 25 25 23
14 14 15 15 16 17 17 18 19 19 20 21 21 21 20 20 20 20 20 19 19 19 20 21 22 22 22 23 23 24 24 24 24 23 23 24 24 24 24 25 25 25 26
12 12 13 14 16 16 16 18 19 19 20 20 20 20 20 19 19 19 19 19 19 19 20 19 19 20 21 22 22 23 23 23 23 22 22 23 24 24 24 24 24 25 25
11 11 12 12 13 14 15 15 16 17 18 19 19 19 19 19 19 19 19 19 19 18 18 19 20 21 21 22 21 22 23 23 23 23 23 24 24 23 24 24 24 24 24
10 10 11 11 11 12 13 14 14 15 15 16 17 17 18 18 19 19 18 18 18 18 18 18 19 19 20 20 21 21 22 22 23 23 22 22 23 23 23 24 24 23 23
9 10 10 11 11 12 12 11 13 13 14 15 16 16 17 18 17 17 18 18 18 18 17 17 17 17 17 18 19 19 20 21 22 22 22 22 22 23 23 23 23 23 23
9 10 11 10 10 10 10 10 10 10 11 12 13 14 15 16 17 17 18 18 18 17 17 18 17 16 17 17 18 18 19 20 21 21 21 22 22 22 22 21 22 21 23
10 10 10 9 9 9 9 10 10 9 9 9 10 11 12 14 14 15 16 17 18 18 18 18 17 17 17 18 18 18 19 20 20 20 20 21 20 21 20 19 21 21 22
10 10 9 9 9 9 9 8 8 8 8 8 8 9 9 10 11 12 12 13 14 15 16 17 17 18 18 19 19 19 20 20 20 20 21 22 21 19 20 22 19 21 23
9 9 8 8 7 7 7 7 6 6 6 6 6 7 7 7 8 8 9 10 12 13 14 15 15 16 17 18 18 18 18 18 18 19 19 20 21 21 20 20 20 22 23
9 8 7 6 5 5 5 4 4 4 5 5 5 5 6 6 6 7 8 9 10 12 12 13 13 14 14 14 14 14 14 14 14 14 16 17 18 20 20 20 21 22 23
8 7 6 5 4 4 3 3 3 3 3 3 3 3 4 4 5 6 6 7 8 9 10 11 11 10 10 10 10 10 9 10 10 11 12 12 14 16 18 19 20 20 21
8 7 6 5 4 3 3 2 2 2 1 1 1 2 2 3 4 4 5 5 6 7 8 9 9 9 9 8 8 8 7 8 8 9 10 11 12 13 15 17 18 20 20
9 7 6 6 5 4 3 2 1 1 1 0 0 1 1 1 2 2 3 4 4 5 6 6 7 7 7 7 6 6 7 7 7 8 9 9 10 11 13 15 16 17 19
9 8 7 6 5 4 3 2 1 1 0 0 -0 -0 -0 -0 -0 1 2 2 3 3 4 5 5 5 6 5 5 5 5 7 8 9 8 9 10 11 11 12 14 16 17
10 9 8 6 6 5 3 2 1 0 -0 -0 -1 -1 -1 -1 -1 -0 0 1 2 2 2 3 3 4 4 3 4 4 5 5 7 9 8 8 9 10 10 12 13 14 15

GFSGL_925_temp_090.txt.gz
Temp
24 24 25 25 25 25 25 25 25 26 25 25 25 25 25 24 24 24 24 24 24 25 25 25 25 25 25 25 25 26 26 25 24 26 26 27 27 27 28 28 28 28 28
23 24 25 25 25 25 25 25 25 25 25 25 25 25 24 25 24 24 24 25 25 25 25 24 25 25 25 25 25 25 25 25 25 24 25 26 26 27 27 27 28 28 28
23 24 25 25 25 25 25 25 25 25 25 26 25 25 25 25 25 24 24 25 25 24 25 25 25 25 25 25 26 25 26 25 25 24 25 25 26 27 27 27 27 27 27
21 21 21 22 25 25 25 25 25 25 25 25 25 25 25 25 25 25 25 25 25 25 25 25 25 25 25 25 25 25 25 25 25 25 24 25 25 26 25 25 26 26 27
20 20 19 19 22 23 25 25 25 25 25 25 25 24 24 24 24 25 25 24 24 25 25 25 25 25 25 25 25 25 25 25 25 25 24 24 25 25 25 25 25 26 26
19 19 20 20 20 20 22 23 24 24 24 24 24 24 24 24 25 25 24 25 25 25 25 25 25 25 25 25 25 25 25 25 25 25 25 24 25 25 25 25 25 24 23
18 18 19 18 18 18 19 20 21 20 21 24 24 25 24 24 24 24 24 24 24 24 25 25 25 25 25 26 26 26 25 25 25 25 25 25 25 25 25 25 25 24 23
16 16 16 17 18 18 17 18 19 19 19 20 21 22 23 23 23 23 23 24 24 24 24 25 25 25 25 25 25 25 25 26 26 26 25 25 25 26 25 25 25 24 23
16 16 16 17 17 17 17 16 17 18 18 19 19 20 21 22 22 22 22 23 23 23 24 24 24 24 24 25 25 25 25 25 25 25 25 25 25 25 25 24 24 22 22
15 15 16 16 16 17 17 18 18 18 18 19 19 20 20 20 21 21 22 21 21 22 23 23 23 23 23 23 23 24 24 24 24 24 24 24 24 24 24 24 24 22 21
14 15 15 15 16 16 17 18 18 18 19 20 20 19 19 19 19 20 20 20 19 20 20 21 21 21 22 22 22 22 23 22 22 23 23 23 24 24 24 24 24 24 22
13 13 14 14 14 15 16 17 17 18 18 18 19 19 19 19 18 19 19 19 19 19 19 20 20 19 20 20 21 21 21 22 22 22 23 23 22 23 24 24 24 24 24
12 12 12 13 13 14 14 15 15 15 14 15 16 16 17 18 18 19 19 19 19 19 18 18 19 20 20 21 21 21 21 21 21 21 21 22 23 23 24 24 23 24 24
10 11 11 11 12 12 12 13 13 12 12 12 12 13 14 16 16 16 17 17 17 18 18 18 19 19 19 20 21 21 21 21 21 20 20 21 22 22 22 23 23 23 22
10 10 10 10 10 11 11 10 10 11 11 11 11 12 11 12 12 13 14 16 16 17 17 18 18 18 18 19 19 19 19 19 20 20 21 20 21 21 21 22 22 22 22
10 10 10 10 9 9 9 10 10 10 10 10 10 10 11 11 11 12 14 15 16 17 17 17 17 17 17 17 17 17 18 18 19 19 19 20 20 21 21 21 21 22 21
10 9 9 9 9 9 8 8 8 8 9 9 10 10 9 9 10 10 12 13 14 15 15 15 15 16 16 16 16 17 17 18 18 18 19 19 19 19 20 20 20 20 20
9 9 9 8 8 8 7 7 7 6 6 6 7 7 7 8 8 9 10 11 11 12 11 12 13 14 14 15 15 16 17 17 18 18 19 19 20 19 20 20 20 20 19
9 8 8 8 7 7 6 6 6 5 5 5 5 6 5 5 5 5 6 7 7 8 9 10 11 12 13 14 14 15 15 16 16 16 16 17 17 18 18 18 18 18 18
8 8 8 7 7 6 6 5 4 4 3 3 3 3 3 3 3 4 4 5 6 6 7 8 10 10 11 11 11 12 13 13 12 12 12 13 14 15 16 16 17 17 18
9 8 8 7 6 5 5 4 3 3 2 1 2 2 1 2 2 3 3 4 4 5 5 6 7 8 9 9 10 10 11 11 11 11 10 10 10 11 12 13 15 16 19
9 8 8 7 6 5 4 4 3 2 2 2 1 1 1 1 1 1 1 2 3 3 4 4 5 5 7 7 8 8 8 8 8 9 9 8 8 9 9 10 12 14 16
8 8 8 7 6 6 5 4 3 2 1 1 1 1 1 0 0 0 0 0 0 1 2 3 3 4 5 6 7 7 7 6 6 6 6 7 7 8 8 9 9 11 13
9 8 8 7 7 6 5 4 3 2 1 0 0 0 -0 -1 -1 -1 -1 -1 -0 0 1 2 2 3 3 4 5 5 6 5 5 5 5 5 5 6 7 8 9 10 12
9 8 8 8 7 7 6 5 4 3 2 0 -0 -1 -1 -1 -1 -1 -1 -1 -1 -1 -1 0 1 1 2 2 3 4 4 4 4 3 3 3 3 4 5 6 8 9 10
9 9 8 8 7 7 6 5 4 3 2 -0 -1 -1 -1 -1 -2 -2 -2 -2 -2 -2 -2 -1 -0 0 1 2 2 2 2 2 2 2 3 3 2 2 4 5 7 8 9

GFSGL_925_temp_093.txt.gz
Temp
24 24 24 24 24 24 25 25 25 25 25 25 25 25 24 24 24 24 24 24 24 24 24 24 24 24 24 24 25 25 25 25 24 25 25 26 26 26 27 27 27 27 27
23 24 24 24 24 24 24 25 25 25 25 24 24 24 24 24 24 24 24 24 24 24 24 24 24 24 24 24 24 24 25 24 24 24 25 25 26 26 26 26 27 27 27
22 23 23 23 23 24 24 24 25 25 25 25 24 24 24 24 24 24 24 24 24 24 24 24 24 24 24 24 24 25 25 24 24 23 24 24 25 25 25 25 26 26 27
21 20 21 21 22 23 23 24 24 25 25 25 24 24 24 24 25 24 24 24 24 24 24 24 24 24 24 25 25 25 25 24 24 23 23 24 24 24 25 25 26 26 26
20 19 20 20 20 21 21 23 25 24 24 24 24 24 24 24 24 24 24 24 24 24 24 24 24 24 25 25 25 25 25 25 24 24 24 24 24 25 25 24 24 25 26
19 18 19 20 20 20 20 19 21 22 23 24 24 24 24 24 24 24 24 24 24 24 24 24 24 24 24 24 24 25 25 25 25 24 24 23 24 24 25 24 24 23 22
18 17 18 18 19 20 19 19 19 19 19 20 22 23 24 24 24 24 24 23 24 24 24 24 24 24 24 25 25 25 25 25 25 24 24 24 24 25 25 24 24 23 23
16 16 16 16 17 19 18 19 19 19 19 18 20 19 20 20 22 23 23 24 23 23 23 23 23 24 24 24 24 24 25 25 25 25 25 25 25 25 25 24 24 23 23
15 15 15 15 16 15 16 17 16 16 17 19 19 18 19 19 20 21 22 23 23 22 23 21 22 22 22 22 22 23 23 23 24 24 24 24 24 24 24 23 22 22 21
14 14 15 16 16 16 16 16 16 17 18 19 19 18 18 18 18 19 20 20 20 20 20 20 19 20 20 21 20 20 21 21 21 21 22 23 23 23 23 23 23 21 21
13 14 15 15 15 16 17 17 17 18 18 18 18 17 17 18 17 17 18 19 19 19 19 19 19 18 18 19 19 19 19 20 21 20 21 21 22 23 23 24 23 23 21
13 13 13 14 14 15 15 15 16 17 16 16 16 16 16 16 16 17 18 17 17 17 18 18 18 18 19 19 20 20 20 20 20 20 20 20 20 22 22 23 23 23 23
11 12 12 12 13 13 14 13 14 14 13 13 13 13 13 13 15 16 16 16 17 17 17 17 18 18 19 19 20 20 20 20 19 19 20 20 20 20 20 21 22 22 22
10 10 10 11 11 11 11 11 12 11 11 11 11 11 11 11 12 12 13 15 16 17 17 17 18 18 18 18 19 19 19 18 18 17 17 19 19 19 20 20 20 21 21
10 10 10 10 10 10 9 9 9 9 9 9 9 9 9 8 8 9 10 12 13 15 16 16 17 17 17 17 17 17 17 17 17 18 18 18 18 19 19 20 20 20 20
9 9 9 9 9 8 9 9 8 8 8 8 7 7 7 7 7 9 11 13 14 14 14 13 13 13 13 14 14 15 15 15 16 17 17 17 18 18 19 19 19 19 19
9 8 8 8 8 8 7 7 7 8 8 7 7 7 6 7 8 9 9 10 10 11 10 10 10 11 11 12 13 13 13 14 15 16 17 17 18 19 18 19 19 19 19
8 8 7 7 7 7 7 6 6 6 6 7 7 5 4 5 6 6 7 9 9 8 7 7 8 8 9 10 11 11 12 13 13 14 14 14 14 14 16 17 18 18 18
8 8 7 7 7 6 6 6 5 5 4 4 5 6 5 5 5 5 4 3 3 4 5 5 6 6 7 8 8 8 9 10 11 12 12 12 12 11 12 12 12 14 16
8 8 8 8 7 6 6 5 5 4 4 3 2 2 1 1 1 1 1 2 2 2 3 3 4 4 4 5 6 6 8 9 9 10 10 11 10 10 10 10 10 11 12
8 8 8 8 7 7 6 5 4 4 3 3 2 1 1 1 1 0 0 0 0 0 0 1 2 2 3 4 4 4 5 7 8 8 8 8 8 8 8 9 9 9 10
9 8 8 8 7 7 6 6 5 4 4 3 2 2 1 1 0 0 -0 0 -0 -0 -0 -0 0 1 2 2 3 3 4 5 6 7 7 7 6 7 7 8 8 9 9
9 9 8 8 8 7 7 6 5 4 4 3 2 1 1 0 -0 -1 -1 -1 -1 -1 -1 -1 -1 -1 -0 1 2 2 2 3 4 5 6 6 5 5 6 6 6 6 7
9 9 9 9 8 7 7 6 5 5 4 3 2 1 0 -1 -1 -1 -1 -1 -1 -1 -1 -2 -2 -2 -1 -1 -0 0 1 2 2 3 4 4 4 4 4 4 5 5 7
9 9 9 9 8 8 7 6 6 5 4 4 3 1 -0 -0 -0 -1 -1 -2 -2 -2 -2 -2 -2 -2 -2 -1 -1 -1 -0 0 1 1 1 2 2 3 3 3 3 3 4
9 9 9 9 8 7 7 6 6 5 5 4 3 2 0 -0 -1 -1 -1 -2 -2 -2 -2 -2 -2 -2 -2 -2 -2 -2 -1 -1 -1 -0 -0 -0 -0 0 1 2 2 2 3

GFSGL_925_temp_096.txt.gz
Temp
24 24 24 24 23 24 24 24 24 24 25 25 25 24 24 23 23 23 23 23 23 23 23 23 24 24 24 24 24 24 24 24 23 25 25 26 26 26 26 26 26 26 26
23 24 23 23 23 23 24 24 24 24 24 25 25 24 24 24 23 23 23 24 24 24 24 24 24 24 23 24 24 23 23 23 23 23 24 24 25 25 25 25 25 25 26
22 24 22 21 22 22 23 24 24 24 24 24 25 25 25 24 24 24 24 24 24 24 24 24 24 24 24 24 24 24 24 23 23 22 22 23 24 25 25 25 25 25 25
20 20 20 21 21 21 22 23 23 24 24 24 24 24 24 24 24 24 24 24 24 24 24 24 24 24 24 24 24 24 24 23 23 23 22 23 23 24 24 24 24 25 25
19 19 19 20 21 21 21 22 23 23 23 23 23 23 24 24 23 24 24 24 24 24 24 23 24 24 24 24 24 24 24 23 23 23 22 22 23 24 23 24 23 24 25
19 18 19 19 21 21 21 20 20 21 21 20 21 22 23 23 23 23 23 23 23 23 23 24 24 24 24 24 24 24 24 24 23 23 22 22 23 24 24 24 23 22 23
17 17 18 18 19 19 20 20 20 20 20 20 20 19 19 20 22 24 23 23 23 23 23 23 23 23 23 23 23 24 24 24 23 23 23 23 23 23 23 23 22 22 21
15 16 16 16 17 17 18 19 19 19 20 19 19 19 19 19 19 21 23 23 23 21 21 21 21 22 21 22 23 23 23 23 24 23 23 23 23 23 23 22 22 21 22
15 15 15 15 16 16 16 16 17 19 19 19 18 18 18 17 17 18 20 19 19 20 19 19 19 18 17 19 20 20 21 21 22 22 22 22 23 23 22 22 22 20 22
14 15 15 16 16 16 16 16 16 16 17 17 17 16 16 16 16 17 18 18 17 17 19 18 18 18 17 17 18 19 19 20 20 21 21 21 22 22 22 22 22 20 22
14 15 15 15 15 15 16 16 16 16 16 15 15 15 15 16 16 16 17 17 17 17 17 18 18 18 18 18 19 19 18 19 20 20 20 21 21 21 22 22 22 22 21
13 14 14 15 15 15 15 15 16 16 16 15 14 13 14 14 15 15 15 15 16 17 17 17 17 17 18 18 18 19 18 18 18 19 19 19 19 19 20 21 20 20 20
12 12 12 13 13 14 14 14 14 14 14 13 12 12 11 12 14 15 15 16 16 16 16 16 17 17 17 18 18 18 18 17 17 16 16 17 18 18 18 19 20 21 21
11 10 11 11 11 11 12 12 12 12 11 10 10 9 9 10 11 12 13 14 14 15 15 15 16 16 16 16 17 17 17 16 16 15 16 16 17 18 18 19 18 19 19
10 9 9 10 10 10 9 9 9 8 8 8 7 8 8 7 7 8 10 11 12 12 14 13 14 14 13 13 13 13 13 14 14 14 15 16 16 16 17 18 18 19 19
9 9 8 8 8 8 8 8 7 7 7 6 6 6 6 6 7 9 10 11 11 11 11 10 9 9 10 10 11 11 11 12 12 14 14 15 15 15 14 16 17 17 18
9 8 8 8 8 8 7 7 7 6 6 6 5 5 6 6 6 7 8 8 8 10 8 6 6 7 7 8 9 9 9 9 10 11 12 12 12 12 13 13 13 13 13
8 8 8 8 7 7 7 6 6 6 5 5 5 5 6 6 7 7 7 8 6 5 4 4 5 5 5 5 6 6 6 7 7 8 10 10 11 11 11 11 11 11 11
8 8 8 7 7 7 7 7 6 6 5 4 4 4 4 4 5 4 4 3 2 3 3 3 3 3 4 4 4 4 4 4 5 7 8 9 9 9 10 10 10 10 9
8 8 8 7 7 7 7 6 6 5 5 4 4 3 3 3 2 1 1 1 1 1 1 0 1 1 2 2 3 3 2 3 4 5 6 7 8 8 8 8 8 8 9
8 7 7 7 7 7 6 6 6 6 5 4 3 3 2 1 1 1 0 0 0 0 0 -0 -0 -0 0 1 1 2 2 3 3 3 3 4 6 7 7 7 6 7 7
8 8 7 7 7 6 6 6 5 5 5 4 4 3 2 1 0 -0 -0 -0 -0 -1 -1 -1 -1 -1 -1 -1 -1 -0 0 1 1 2 2 3 4 4 5 6 6 6 6
8 8 7 7 7 7 6 6 6 5 5 4 4 3 2 1 -0 -0 -1 -1 -1 -1 -1 -1 -1 -1 -2 -2 -2 -1 -1 -1 -0 -0 0 1 1 2 3 4 5 5 5
9 9 8 8 8 7 7 7 6 6 6 5 5 4 3 3 0 -0 -1 -1 -1 -2 -2 -2 -2 -2 -2 -2 -2 -2 -2 -2 -1 -1 -1 -1 -1 -0 0 2 4 4 4
9 9 8 8 8 8 8 7 7 6 6 5 5 5 4 3 3 1 0 -1 -1 -1 -1 -1 -2 -2 -2 -2 -2 -2 -2 -2 -2 -1 -1 -1 -1 -1 -1 -0 1 2 3
9 9 9 9 9 8 8 8 7 7 6 6 6 5 5 4 3 3 1 -0 -1 -1 -1 -2 -2 -2 -2 -3 -2 -2 -2 -2 -1 -1 -1 -1 -1 -2 -2 -1 -0 0 1

GFSGL_925_temp_099.txt.gz
Temp
22 22 23 23 23 24 24 24 24 24 24 24 24 24 24 23 23 23 23 22 23 23 23 23 22 23 24 24 24 24 24 24 26 27 25 25 25 24 25 25 25 25 26
23 22 23 24 23 23 24 24 23 24 24 24 24 24 24 24 23 22 22 23 23 23 23 23 24 23 22 23 23 23 24 23 24 24 25 25 24 23 24 24 25 25 25
21 21 23 23 23 22 22 22 23 24 24 24 24 24 24 24 23 23 24 23 24 24 24 24 23 24 24 23 24 24 24 24 23 24 25 24 24 24 24 24 24 24 25
20 21 22 23 22 21 22 23 23 23 24 23 23 23 23 23 23 23 23 22 24 24 24 24 24 23 24 23 23 23 23 24 24 24 25 25 25 24 23 25 25 26 25
19 19 20 19 20 20 20 21 22 22 22 23 23 22 22 22 22 22 22 22 22 23 23 23 23 24 24 24 23 24 23 23 23 24 25 25 25 26 25 25 25 25 26
18 18 19 19 19 18 18 20 20 21 21 21 22 22 21 21 22 23 23 22 22 22 23 23 23 23 23 23 23 23 23 23 23 24 25 25 24 24 25 25 24 25 25
18 18 18 18 18 19 19 20 21 20 20 19 19 19 19 20 21 23 23 23 24 23 22 22 22 22 21 21 21 23 23 23 23 22 22 23 23 23 23 23 24 24 24
17 17 17 17 17 18 18 18 19 19 19 19 18 18 19 18 19 20 22 21 20 20 20 19 19 19 18 19 19 21 21 21 22 21 21 21 22 22 21 22 21 21 22
15 16 16 16 16 16 16 17 17 18 17 18 17 15 17 17 18 19 19 18 17 17 18 18 18 19 19 20 20 19 19 20 20 20 20 20 21 21 21 21 22 23 25
14 15 16 16 15 16 15 15 15 16 16 15 15 15 16 16 17 18 18 16 16 17 17 18 18 18 18 18 19 17 18 19 18 19 20 20 20 20 21 20 21 23 24
13 14 14 15 15 15 16 16 15 15 15 14 14 14 14 14 14 16 17 17 16 15 16 16 17 18 19 18 18 17 17 18 18 19 20 21 21 22 22 22 21 21 22
12 14 14 14 13 15 15 15 15 15 14 13 13 13 13 13 14 15 15 16 16 16 16 16 16 17 18 18 17 18 18 18 19 20 21 21 21 21 21 21 20 20 20
12 12 12 12 13 14 14 14 13 14 13 12 12 12 11 12 13 15 15 15 15 14 14 15 16 16 17 16 16 17 17 17 18 19 18 18 18 17 18 18 18 20 21
10 10 10 11 11 11 11 11 12 12 12 12 11 10 9 9 10 11 13 14 14 14 15 14 15 14 14 14 15 15 15 15 16 17 17 15 15 16 18 18 17 17 19
10 10 10 10 10 9 8 9 8 7 9 10 9 9 10 8 6 8 10 11 12 12 12 11 12 12 13 14 14 14 14 14 15 13 13 14 16 16 16 15 16 15 16
10 10 10 10 10 10 8 6 6 6 7 8 8 7 6 6 7 8 9 9 10 11 10 10 10 10 11 10 11 11 12 11 11 12 13 14 14 14 14 15 16 15 15
10 9 9 9 10 9 9 9 8 5 5 6 6 7 7 7 8 8 9 9 9 9 9 8 8 8 8 8 8 9 9 9 8 10 11 12 13 13 14 14 15 14 14
8 8 9 9 9 9 9 9 9 9 9 7 6 5 6 6 6 7 7 8 8 8 8 8 8 8 8 7 7 7 7 7 7 7 8 9 10 11 11 10 10 10 11
9 9 8 8 8 8 8 8 8 8 8 7 7 6 5 5 5 5 5 6 7 7 6 6 5 6 6 6 6 6 6 6 6 6 7 8 8 9 10 11 11 9 8
8 7 8 8 7 8 8 8 8 8 8 7 7 6 6 7 6 6 5 5 5 5 5 5 4 4 4 3 4 4 5 5 6 6 6 6 6 7 7 7 8 8 8
8 7 8 8 8 8 8 8 8 8 8 7 6 4 5 6 5 5 5 4 4 4 4 3 3 3 3 2 2 3 3 3 3 3 4 4 5 5 5 4 4 5 6
8 8 8 8 8 7 8 8 8 8 7 7 7 5 5 5 5 5 4 4 3 2 2 2 2 2 2 1 0 0 0 1 1 1 1 1 1 2 2 3 3 4 4
9 9 8 8 8 7 7 7 8 7 7 7 6 6 5 5 5 4 4 3 2 2 1 1 0 1 1 -1 -1 -1 -1 -1 -1 -1 -1 -1 -1 -1 -0 0 1 2 3
9 9 9 8 8 8 8 8 7 7 7 7 6 6 5 5 5 4 3 3 2 2 1 -0 -1 -1 -1 -1 -2 -2 -2 -2 -2 -2 -2 -2 -2 -2 -1 -1 -0 0 1
9 9 9 8 8 7 8 8 8 8 7 7 7 6 6 5 5 4 4 3 3 2 1 0 -1 -1 -2 -2 -2 -2 -2 -3 -2 -2 -2 -2 -2 -1 -1 -1 -1 -1 -0
9 9 9 9 9 8 8 8 8 8 8 7 7 7 6 6 5 5 4 4 3 2 1 0 -1 -1 -1 -2 -2 -2 -2 -2 -2 -2 -2 -1 -1 -1 -1 -1 -1 -1 -1

GFSGL_925_temp_102.txt.gz
Temp
25 25 25 25 24 24 24 25 24 24 24 24 24 24 24 24 24 24 24 25 24 24 24 24 24 24 26 27 27 27 28 28 28 29 29 28 26 26 26 26 27 27 29
25 24 24 25 24 25 24 24 24 24 24 24 24 25 24 24 24 24 24 25 24 24 24 24 24 25 24 25 26 26 27 26 26 27 27 27 27 26 26 25 27 28 27
24 24 23 24 24 25 25 25 24 24 24 24 24 24 24 24 24 24 24 24 25 25 25 25 24 25 24 25 24 26 27 27 27 27 27 28 28 27 27 27 27 27 28
21 23 24 24 25 24 24 24 24 23 24 24 24 24 24 24 24 24 24 24 24 25 25 25 25 25 24 24 25 24 25 25 26 26 27 28 29 28 28 28 29 28 28
20 20 20 21 21 22 23 23 23 23 24 24 24 24 24 24 25 24 24 24 24 24 24 25 25 25 24 23 23 23 24 25 26 27 28 28 29 27 27 28 28 28 28
20 19 20 20 20 20 21 21 22 22 23 22 23 23 23 24 24 23 23 24 24 24 25 24 25 23 24 22 22 22 22 23 24 24 26 27 26 26 27 27 27 27 27
19 18 18 19 19 19 19 20 21 21 21 22 22 22 19 18 21 22 23 22 23 24 24 24 24 22 21 21 21 22 23 23 23 22 23 24 24 24 23 23 24 25 25
18 18 18 17 18 18 18 19 20 20 21 22 19 19 18 18 18 20 22 22 21 20 19 21 20 20 20 20 21 22 23 23 22 22 22 22 22 21 22 22 22 22 24
17 17 17 17 17 17 17 18 18 19 20 19 18 17 16 18 18 19 19 19 19 18 18 17 18 18 19 20 20 20 21 22 22 21 21 21 21 21 21 21 23 23 25
15 16 16 16 17 18 18 16 17 18 17 16 16 13 14 16 17 18 19 20 19 19 18 17 18 18 18 19 19 20 20 20 19 20 21 22 22 23 23 22 23 21 22
15 16 15 15 16 16 16 16 16 16 16 13 13 14 14 14 15 17 18 16 18 19 19 18 17 17 18 18 18 17 18 20 20 22 23 24 24 24 24 23 22 22 23
15 15 15 16 16 16 15 15 14 14 14 14 13 14 13 14 14 16 16 16 16 16 16 16 16 17 17 17 17 17 18 19 22 22 23 23 22 22 22 21 20 20 21
15 14 14 14 15 15 15 14 14 16 16 17 17 16 13 13 12 14 15 15 15 15 15 14 16 16 17 17 16 17 19 19 20 21 22 21 19 19 19 21 19 19 20
14 14 14 14 14 15 16 16 17 17 17 17 16 16 15 12 11 13 12 12 13 13 14 15 14 15 16 16 17 18 18 17 18 18 17 17 19 20 20 20 20 20 20
14 14 14 15 14 13 11 12 12 9 12 15 15 14 15 14 9 10 11 12 13 13 12 14 15 14 15 15 16 15 15 15 15 15 16 17 18 18 18 18 18 19 20
14 15 16 15 15 13 12 8 7 8 10 11 10 11 9 9 10 10 10 11 12 12 13 14 12 12 13 13 12 12 12 12 12 13 14 14 16 16 17 17 18 18 18
14 13 14 14 15 14 13 12 10 6 8 9 9 9 9 9 9 9 9 10 10 12 14 14 14 13 12 12 12 12 11 10 9 10 11 12 13 14 14 15 15 15 15
12 11 13 14 14 14 14 14 14 13 12 8 6 6 8 8 9 9 9 11 13 13 13 12 12 12 11 11 11 11 11 11 11 10 11 11 11 11 11 12 13 13 13
11 12 12 13 13 13 13 13 14 13 13 12 9 7 7 7 8 8 10 12 12 12 11 11 10 10 9 9 9 9 9 9 9 9 10 10 10 10 11 11 11 10 10
11 11 12 12 11 12 12 13 13 13 13 13 12 12 11 10 11 11 10 10 10 10 10 10 9 8 8 7 7 7 8 8 8 8 8 8 8 8 9 9 9 9 10
11 10 11 12 12 13 13 13 13 13 13 12 11 8 8 10 11 10 10 9 9 9 8 8 7 7 7 7 6 6 6 6 6 6 6 5 5 5 6 6 6 7 7
12 11 11 12 12 12 12 12 12 12 12 12 11 7 7 9 10 10 9 9 8 7 7 6 7 6 6 5 4 4 4 5 4 3 2 2 2 3 3 4 4 4 5
12 12 12 12 12 11 11 12 12 12 12 12 11 11 10 10 10 9 9 8 7 7 6 6 6 6 5 4 3 3 2 2 1 -0 -1 -1 -0 0 1 1 1 1 2
13 12 12 12 12 11 11 12 12 11 12 11 11 11 10 10 10 9 8 8 7 7 6 5 5 4 4 3 2 1 1 0 -1 -2 -1 -1 -1 -1 -1 -1 0 0 1
12 13 12 12 12 11 12 12 12 11 11 11 11 10 10 9 9 9 8 8 7 7 7 6 5 4 3 2 1 1 0 -1 -1 -1 -1 -1 -1 -0 -0 0 1 0 0
9 11 12 12 12 11 11 12 11 11 11 11 11 11 10 10 10 9 9 8 8 7 7 6 5 3 2 2 2 1 -1 -1 -1 -0 -0 -0 -1 -0 0 -0 -0 -0 0

GFSGL_925_temp_105.txt.gz
Temp
27 27 27 27 26 26 26 25 26 25 24 25 24 25 25 25 25 24 25 25 25 25 25 26 26 26 26 27 28 29 29 29 30 30 29 29 28 28 27 27 27 28 29
27 27 26 27 27 27 26 26 26 25 25 24 25 25 25 25 25 24 25 27 26 26 26 25 26 26 26 26 27 28 28 27 27 27 28 28 29 29 28 27 28 29 29
27 27 26 26 26 27 27 26 26 25 25 25 25 24 25 26 25 24 25 26 26 26 26 26 26 26 26 26 25 26 27 27 27 27 27 29 29 29 29 29 29 29 30
23 24 24 25 26 26 26 26 26 25 25 25 25 25 25 26 26 25 25 25 26 26 26 26 26 26 26 25 26 25 26 25 27 27 27 28 29 28 29 29 30 30 29
21 22 23 23 25 25 25 25 26 26 25 24 25 25 26 26 26 25 25 25 25 26 26 26 26 26 25 24 24 25 24 25 26 27 27 29 29 27 28 28 29 29 28
20 21 22 22 22 23 23 23 23 24 25 25 25 25 24 25 24 24 25 25 25 24 25 26 26 25 24 23 23 23 23 22 24 24 25 27 26 26 26 26 25 26 26
20 20 19 19 20 21 21 21 22 22 22 23 22 22 21 20 22 23 23 23 24 24 24 24 24 22 22 22 23 23 23 24 23 23 23 23 23 23 22 23 24 23 24
21 20 19 19 19 19 20 21 21 21 21 21 21 20 19 18 18 20 23 22 22 21 21 21 21 20 21 21 21 23 23 23 23 22 22 22 22 22 22 22 22 23 24
20 20 19 19 18 18 18 18 19 20 20 20 19 18 17 17 18 19 22 21 20 19 19 19 20 18 20 20 20 21 22 22 23 22 22 22 22 22 23 22 24 22 23
17 17 18 18 18 18 18 18 18 18 19 18 17 16 16 17 18 19 21 23 21 21 19 19 19 19 19 19 19 20 21 21 20 21 22 24 24 24 24 22 22 23 23
15 16 16 17 17 17 17 17 16 17 16 16 15 14 16 16 17 18 19 20 20 22 22 21 17 17 18 18 19 18 19 20 21 21 24 25 25 24 24 22 22 22 23
15 16 16 17 17 17 17 15 15 15 15 14 14 15 14 14 15 16 16 17 17 18 17 16 17 18 18 18 17 18 19 20 21 23 24 24 23 22 22 21 21 21 21
15 16 16 17 17 16 16 15 15 15 16 16 18 18 17 15 14 16 16 16 16 15 16 16 16 17 17 18 17 18 19 20 20 20 20 20 20 21 21 21 21 21 22
15 15 16 16 17 17 18 17 18 19 19 20 19 19 17 15 15 13 13 14 14 15 14 16 16 16 17 18 18 18 18 17 18 18 18 19 19 20 20 20 20 20 21
15 15 16 16 17 14 14 14 14 14 14 14 19 18 17 18 13 13 14 13 13 13 14 15 14 15 15 15 14 15 15 15 14 15 16 16 17 17 18 18 18 19 19
15 16 17 18 17 16 14 11 11 11 12 13 14 14 12 13 13 13 13 12 13 14 16 17 16 15 16 14 14 13 13 12 11 12 12 13 14 15 14 16 16 17 17
15 15 17 17 18 17 16 15 13 9 10 11 11 11 11 12 11 11 12 13 13 14 17 16 16 16 15 15 15 14 14 13 12 13 13 13 13 13 13 13 13 14 14
14 14 16 17 17 17 17 17 16 15 14 12 10 9 10 11 11 11 12 12 14 15 16 15 15 14 14 13 13 13 13 13 12 12 12 12 12 12 12 13 13 13 12
14 16 15 16 16 16 16 17 17 17 17 15 10 8 9 10 10 11 12 14 16 16 15 14 14 13 12 12 11 11 11 11 11 11 11 11 10 10 11 11 11 10 10
13 12 13 14 14 14 15 15 16 16 16 16 15 15 12 9 12 13 13 13 14 14 13 13 12 11 11 10 10 10 10 10 10 10 9 9 8 8 8 8 9 9 9
13 12 11 13 14 14 15 14 15 15 15 15 15 12 11 12 15 14 14 13 13 12 11 11 10 10 10 9 9 9 9 9 9 8 7 6 6 6 6 6 7 7 7
13 13 11 12 13 13 14 14 14 14 15 14 14 10 10 11 14 13 12 12 11 10 10 9 10 10 9 8 8 8 8 8 7 6 5 4 4 4 4 5 4 5 5
14 14 13 12 13 13 13 13 14 14 15 14 14 12 11 13 13 13 12 12 11 10 10 9 9 10 9 8 7 6 6 6 4 3 3 2 2 3 2 1 1 2 2
15 15 15 14 14 14 13 13 14 14 14 14 14 13 13 13 13 12 11 11 10 10 9 9 9 8 7 7 7 6 6 4 2 2 1 1 0 1 1 1 2 2 2
14 15 14 14 14 14 14 14 14 14 13 13 13 13 13 12 12 12 11 11 10 10 10 9 8 8 7 6 5 5 3 3 2 1 -0 0 1 1 1 2 2 2 2
13 13 14 13 13 13 14 14 14 14 14 14 13 13 13 12 12 12 11 11 10 10 10 9 9 8 6 6 6 5 4 3 2 1 0 0 1 1 1 1 0 0 0

GFSGL_925_temp_108.txt.gz
Temp
26 26 26 25 25 25 25 25 25 25 24 25 24 25 25 25 25 25 25 25 25 25 25 25 26 26 26 26 26 27 28 28 27 27 28 28 28 29 28 28 28 28 29
27 27 27 26 27 26 26 26 26 25 25 24 24 24 25 25 25 24 24 24 25 26 26 26 25 26 26 26 25 26 26 27 26 26 27 27 28 28 28 28 28 29 29
27 26 27 27 27 27 26 26 26 26 25 25 25 24 25 25 24 25 24 25 25 26 26 26 25 26 25 25 25 25 25 26 26 26 27 27 28 27 28 28 29 29 28
24 26 25 25 26 26 27 27 26 26 25 25 24 24 25 25 25 25 25 25 25 26 26 26 26 26 25 25 25 24 25 24 25 26 26 27 27 26 26 26 27 27 27
24 24 23 24 25 25 25 26 26 25 25 25 25 24 25 24 26 25 25 25 25 25 25 26 26 26 25 25 24 24 24 24 24 24 25 25 26 25 24 24 24 25 25
22 23 24 23 24 24 24 24 24 24 24 25 24 24 24 23 24 24 25 25 24 24 25 25 24 24 24 24 23 23 23 23 23 23 23 24 24 23 22 22 23 23 23
21 21 21 21 22 23 23 23 23 23 23 23 23 22 22 21 21 22 24 24 24 24 23 23 24 22 23 22 22 23 23 23 23 22 21 22 21 21 22 22 22 22 22
21 21 20 20 21 21 21 21 22 22 21 22 20 19 19 20 21 22 23 23 23 22 22 22 21 20 21 22 22 22 22 23 22 22 22 22 23 23 23 22 22 22 23
21 20 20 19 19 19 19 19 20 21 21 19 19 19 19 19 19 21 21 21 21 20 19 20 19 20 20 21 20 21 21 21 22 22 22 23 23 23 22 22 21 22 23
20 20 20 19 18 18 18 18 18 19 18 18 18 19 20 19 18 20 21 22 20 20 19 19 19 19 19 20 20 19 20 21 21 22 23 24 24 23 22 21 21 21 22
17 18 18 18 18 18 18 18 17 17 17 17 17 17 17 17 18 19 20 20 19 19 19 17 19 18 19 19 19 19 19 19 21 22 23 22 21 21 21 21 21 21 21
15 16 16 17 17 17 17 17 17 16 16 16 16 16 16 16 16 17 18 19 19 18 18 18 18 18 18 18 19 19 19 20 20 20 19 20 20 20 21 21 20 20 21
15 16 16 17 17 16 16 16 15 15 15 15 16 17 16 15 15 16 16 17 17 17 17 17 17 17 17 18 18 17 17 18 18 18 18 18 18 19 19 18 19 19 19
14 15 15 16 15 16 16 16 16 15 16 17 18 19 17 16 15 15 14 15 15 16 16 16 16 16 16 16 16 16 16 15 14 15 15 16 16 16 16 16 17 17 18
15 15 16 16 16 15 14 14 13 14 15 16 16 17 17 16 15 15 16 16 15 15 15 15 15 15 15 15 15 15 14 14 14 13 13 14 14 13 14 14 14 14 15
15 15 16 16 16 16 14 13 12 13 13 14 15 16 16 15 15 15 15 15 15 15 15 17 16 16 15 15 14 14 13 12 13 13 13 13 13 13 13 13 13 13 13
15 15 16 17 17 16 16 15 13 12 12 13 14 14 14 14 14 14 14 14 14 15 16 17 16 16 15 15 15 14 14 12 13 13 13 12 12 12 12 12 12 11 11
15 15 16 16 17 17 17 17 17 15 13 11 12 12 12 13 13 13 13 14 15 16 16 16 15 14 14 13 13 12 12 12 11 12 11 11 10 10 10 10 10 10 10
14 14 15 16 16 16 17 17 17 17 17 13 12 11 11 12 12 13 13 14 15 16 15 15 14 13 12 12 11 11 11 11 10 10 10 9 9 8 9 9 9 8 8
13 14 14 14 15 15 16 16 16 17 17 15 14 13 12 11 11 13 14 14 15 15 14 13 12 12 11 10 10 10 10 10 10 9 8 7 7 7 7 7 7 7 7
13 13 13 14 14 14 14 15 15 15 16 16 15 13 12 12 12 15 14 13 14 13 13 12 11 11 10 9 9 10 9 9 8 7 6 6 5 5 5 6 5 5 5
13 13 12 12 13 13 14 14 14 15 15 16 13 13 13 13 13 14 13 13 12 12 11 11 11 11 10 9 8 8 9 8 7 5 5 4 4 4 4 3 3 3 3
14 14 14 13 12 13 13 13 14 14 14 15 14 13 13 13 13 14 13 12 12 11 10 10 10 11 9 9 8 7 7 6 5 4 3 3 3 3 2 2 3 3 3
15 15 15 14 13 14 14 14 13 14 14 15 15 13 13 13 13 13 12 12 11 11 10 10 9 9 8 8 8 7 7 5 5 3 3 2 2 2 2 2 2 2 3
14 15 16 15 15 14 14 14 14 14 14 14 14 14 13 13 13 12 12 11 11 11 10 10 9 9 8 8 7 6 6 5 4 4 2 2 2 2 2 2 2 2 1
14 14 14 15 15 14 14 14 14 14 14 14 14 14 13 13 13 12 12 11 11 11 10 10 10 9 8 7 7 6 6 5 4 4 3 2 1 2 2 2 2 1 1

GFSGL_925_temp_114.txt.gz
Temp
24 24 24 24 24 24 24 24 24 24 24 24 25 24 24 25 24 24 24 24 25 24 25 25 25 25 25 25 25 25 25 25 24 25 25 25 25 25 26 26 26 26 26
24 24 24 24 24 24 24 25 25 25 25 24 24 24 24 24 24 24 24 24 25 25 25 25 25 25 25 25 24 24 24 25 25 24 24 25 25 25 25 25 25 25 25
24 24 24 24 24 24 24 24 25 25 25 24 25 24 24 24 24 24 24 24 24 24 25 25 25 25 25 24 24 24 24 24 24 24 23 24 24 24 25 24 24 25 25
23 24 24 24 24 24 25 24 24 25 25 24 24 24 24 24 24 24 25 24 24 24 24 25 25 24 24 25 24 24 24 23 23 23 23 23 22 22 22 22 23 24 24
24 24 23 25 25 25 24 24 24 24 24 24 24 24 24 24 24 24 25 24 24 24 24 24 24 25 24 24 24 24 23 23 23 22 22 22 21 21 21 21 22 22 22
26 23 22 24 24 25 24 23 23 23 23 24 24 24 23 23 23 23 23 23 24 24 24 24 23 23 24 23 23 22 22 22 22 21 21 20 21 21 21 21 21 21 20
22 22 21 23 23 23 24 23 23 23 21 22 23 22 22 22 22 22 23 23 23 23 23 24 23 22 23 22 22 22 22 22 22 21 21 21 20 21 21 21 21 21 20
21 22 22 22 21 21 22 23 23 22 22 20 21 21 20 21 21 22 22 22 22 22 22 22 22 21 21 21 21 21 21 21 22 21 22 22 21 21 21 20 21 21 21
21 22 21 21 20 20 21 22 22 22 21 20 20 19 19 20 21 22 22 21 20 20 20 20 20 20 20 20 21 21 21 21 20 20 20 20 20 20 20 21 21 21 20
19 20 20 20 20 20 20 20 21 21 20 19 18 18 18 20 21 21 20 20 19 19 18 19 19 19 19 20 21 21 20 20 20 20 20 20 20 19 20 20 20 20 18
19 19 19 19 19 18 19 19 19 19 18 17 17 17 18 19 19 20 18 19 19 18 18 18 18 18 19 19 19 20 19 19 19 19 19 19 19 18 18 18 18 18 16
18 18 18 18 18 18 18 18 18 18 17 16 17 16 17 17 17 18 18 18 18 18 18 18 18 18 18 18 18 18 18 18 18 18 18 16 16 16 16 16 16 15 14
16 16 16 17 17 17 17 17 16 16 16 16 15 15 15 15 16 16 16 16 16 17 17 17 17 17 17 17 17 17 17 17 17 16 15 14 14 14 15 15 14 14 14
14 14 15 15 15 14 15 15 15 15 15 15 15 15 15 15 15 16 16 16 16 16 16 16 16 16 16 16 16 16 16 15 15 14 13 13 13 13 13 13 14 14 13
14 14 14 14 14 14 14 13 13 13 14 14 15 16 15 15 15 16 16 16 16 16 15 15 15 15 15 14 14 14 13 13 13 12 12 12 12 11 11 11 11 10 9
14 14 14 15 14 14 14 13 13 13 13 14 14 15 15 15 15 15 16 16 16 16 15 15 14 14 14 13 13 12 12 12 11 11 11 11 10 10 9 9 9 8 8
15 15 15 14 14 14 14 14 14 12 14 13 14 15 15 15 15 15 15 15 14 14 14 14 14 14 13 12 12 12 11 11 11 11 10 9 9 9 8 8 7 7 6
15 15 15 15 15 15 14 14 14 14 14 13 13 13 14 14 14 14 14 14 13 14 14 14 13 13 12 12 11 11 10 10 10 9 9 8 8 7 7 6 6 5 5
14 15 15 15 16 15 15 15 15 14 14 13 13 13 13 13 13 13 13 14 14 14 13 13 13 12 12 11 11 10 10 9 9 9 8 7 7 6 5 5 5 4 4
14 14 14 14 14 15 15 14 15 15 14 13 14 14 14 13 13 13 13 13 14 13 13 12 12 12 11 11 10 10 9 9 8 8 7 6 5 5 5 4 4 4 3
13 13 14 14 14 14 14 14 14 14 14 13 13 14 14 14 14 13 13 13 13 12 12 12 11 11 11 10 10 9 9 8 8 7 6 5 5 5 4 4 3 3 3
13 13 13 13 13 13 13 13 13 13 13 14 14 14 13 13 14 14 13 13 13 13 12 12 11 11 10 10 9 9 8 8 7 7 6 5 4 4 3 3 3 3 3
13 13 13 13 14 13 13 13 13 13 13 13 13 13 13 13 13 13 13 12 12 12 12 11 10 10 10 9 9 8 8 7 7 7 6 5 4 3 3 3 3 3 3
13 13 13 13 13 13 14 14 13 13 13 13 13 13 13 13 13 13 12 12 12 12 12 11 10 10 9 9 8 8 7 7 7 7 6 5 5 4 3 3 3 3 3
13 13 13 13 13 13 13 13 13 13 13 13 13 13 13 13 13 13 13 12 12 12 11 11 10 10 9 9 8 8 7 7 7 7 6 6 5 4 4 3 3 3 3
13 13 13 13 13 13 13 13 13 14 14 14 14 14 13 13 13 13 13 12 12 11 11 10 10 10 9 9 9 8 8 8 7 7 6 6 5 5 4 3 3 3 3

GFSGL_925_temp_117.txt.gz
Temp
24 24 24 24 24 24 24 25 24 24 24 23 23 23 24 24 24 24 24 24 24 24 24 24 24 24 24 24 24 24 23 23 22 24 24 25 24 24 25 25 25 25 25
25 24 24 24 24 24 24 24 25 24 24 24 23 23 24 24 24 24 24 24 24 24 24 24 24 24 24 24 24 24 24 23 23 23 24 24 24 23 24 24 24 25 24
24 24 24 23 23 24 24 24 24 24 24 24 23 23 23 24 24 24 24 24 24 24 24 24 24 24 24 24 24 24 24 23 23 23 23 23 23 22 23 24 24 23 23
24 25 24 24 23 23 24 24 24 24 24 24 24 24 23 23 23 23 24 24 24 24 24 24 24 24 24 24 23 23 23 23 23 23 23 22 22 21 22 22 23 22 23
24 24 24 24 24 24 23 23 23 23 23 23 23 23 23 23 23 23 24 24 24 23 24 24 24 24 24 24 24 23 23 23 22 21 21 21 20 20 20 20 21 21 21
23 24 24 24 23 24 24 23 23 23 24 22 23 23 22 22 23 23 22 22 23 24 23 23 24 24 24 24 23 23 22 22 21 21 21 20 20 21 21 21 20 20 19
21 23 24 24 24 24 24 24 23 23 23 22 23 22 21 22 22 22 22 23 23 24 24 23 23 23 23 22 22 22 22 22 22 21 21 21 21 21 21 21 21 20 19
20 20 22 23 21 22 22 22 22 22 21 22 21 20 20 20 21 22 22 22 22 22 22 21 21 22 21 21 21 21 21 21 21 22 22 21 21 21 21 20 20 20 18
19 20 20 21 21 21 21 21 20 21 21 21 20 19 19 20 20 21 21 21 21 20 20 19 19 19 20 20 20 21 21 20 20 20 20 20 20 20 20 20 21 21 19
19 20 20 21 21 19 19 19 19 18 19 18 18 18 18 18 18 19 20 20 20 20 20 19 18 19 19 19 20 20 20 19 18 18 18 19 19 20 20 20 20 20 18
18 19 19 19 18 19 19 18 18 18 18 17 17 16 16 17 18 18 18 19 19 18 18 17 18 18 19 19 20 20 19 18 18 19 18 18 18 18 18 18 17 17 17
18 18 18 18 18 18 18 18 17 17 17 16 16 16 16 16 17 17 17 18 18 18 17 17 17 17 18 18 18 18 18 18 18 18 17 16 16 15 15 15 15 14 13
16 16 16 17 17 17 17 17 16 16 16 15 15 16 15 16 16 17 17 16 16 17 17 17 17 17 17 17 17 16 17 17 17 17 15 14 14 14 13 13 13 13 12
15 14 15 15 15 15 15 15 15 15 15 15 14 14 14 15 15 15 16 16 16 16 16 16 16 16 16 16 16 16 16 15 15 14 13 12 12 13 13 12 12 12 12
13 13 14 14 14 14 14 13 13 13 13 14 14 14 14 14 15 15 16 16 16 16 15 15 14 14 14 14 14 13 13 13 13 12 12 11 11 11 11 11 11 10 8
14 13 13 13 13 13 13 12 12 13 12 14 13 13 14 14 15 15 15 16 16 16 14 14 14 14 13 13 13 12 12 12 11 11 11 10 10 9 9 8 8 8 7
14 14 14 14 13 13 13 13 13 12 13 13 13 13 13 13 13 13 14 15 14 14 14 14 14 13 12 12 12 12 11 10 10 10 10 9 9 8 8 7 7 6 5
15 15 15 14 14 14 14 14 14 14 13 13 14 14 14 14 13 13 12 13 13 13 13 13 13 13 12 12 11 11 10 10 10 9 9 8 8 7 6 6 5 5 5
14 14 14 14 14 14 14 14 14 14 14 14 14 14 14 14 13 13 12 12 13 13 13 13 13 13 12 11 11 10 10 9 9 8 8 7 6 6 5 5 4 4 4
13 13 14 14 14 14 14 14 14 14 13 13 14 14 13 13 12 12 13 13 13 13 12 13 12 12 12 11 11 10 9 9 8 7 7 6 6 5 5 4 4 4 3
14 13 13 14 14 14 13 13 13 13 13 13 13 13 13 13 13 13 13 13 13 13 13 13 12 11 11 11 10 9 9 8 8 7 6 5 5 5 4 3 3 3 3
14 13 13 13 13 13 13 13 13 13 13 14 14 14 13 13 13 13 14 13 13 13 13 12 12 11 11 10 10 9 8 8 7 7 6 6 5 4 4 4 3 3 3
13 13 13 13 13 13 13 13 13 13 13 13 13 13 13 13 13 13 13 13 12 12 12 12 12 11 10 9 9 9 8 8 8 7 6 6 5 4 4 4 3 3 3
13 13 13 13 13 13 13 13 13 13 13 13 13 13 13 13 13 12 13 12 12 12 12 12 11 11 10 9 9 9 8 8 7 7 7 6 5 5 4 4 3 3 3
13 13 13 13 13 13 13 13 13 13 13 13 13 13 13 13 13 13 12 12 12 11 11 11 11 10 10 9 9 9 8 8 7 7 7 6 6 5 4 4 3 3 3
13 12 12 12 12 12 12 12 13 13 13 13 14 13 13 13 13 13 13 13 12 12 11 11 11 10 10 9 9 8 8 8 7 7 7 6 6 5 5 4 3 3 3

GFSGL_925_temp_120.txt.gz
Temp
24 24 24 24 24 24 24 24 24 24 23 23 23 23 24 23 23 23 23 23 23 23 23 23 24 24 24 24 23 23 23 22 21 23 24 24 24 24 24 24 24 24 23
25 24 24 24 24 24 24 24 24 23 23 24 23 23 23 23 23 24 24 24 23 23 23 23 23 23 23 23 23 23 23 23 22 22 23 23 23 23 23 23 23 23 22
24 24 24 24 23 24 24 24 23 23 23 23 23 23 23 23 23 23 24 24 23 24 24 24 24 23 23 23 23 23 23 22 22 22 22 22 22 22 23 22 22 22 21
24 24 24 24 24 23 24 24 24 24 23 23 23 22 22 22 22 23 24 23 23 23 23 23 24 24 24 23 23 23 22 22 22 21 21 21 21 21 21 21 21 21 21
23 23 24 25 25 24 23 23 23 23 23 23 22 22 22 22 23 23 23 23 23 23 24 23 24 24 24 24 24 23 23 22 22 21 21 20 21 21 21 21 20 20 21
21 22 22 23 24 24 24 23 23 23 23 23 22 22 22 22 22 22 23 22 23 23 23 23 23 24 24 24 23 24 23 23 22 21 21 20 21 21 20 20 21 20 20
20 20 21 22 23 24 24 23 23 23 23 23 23 21 21 22 21 21 21 22 22 22 23 22 22 23 23 23 22 22 22 22 21 21 21 21 21 21 20 20 20 20 19
19 19 19 19 21 21 23 23 22 23 20 20 21 20 20 20 20 21 21 21 21 21 22 22 22 22 22 21 21 21 21 21 21 21 21 21 21 21 20 20 19 19 18
19 19 19 18 18 19 21 23 21 22 19 20 19 19 19 19 20 20 20 21 20 20 21 21 21 21 20 20 19 20 19 19 20 21 21 21 21 20 20 20 20 19 18
20 20 19 19 19 19 19 20 19 19 19 19 18 18 17 18 18 19 19 20 19 19 19 20 19 20 20 19 19 19 19 18 18 18 18 18 19 19 20 20 20 19 17
19 18 18 18 19 19 18 18 18 19 18 18 17 17 16 16 17 18 17 18 19 19 17 17 17 18 19 19 19 19 18 18 17 18 18 18 18 18 18 18 18 18 17
17 18 18 18 18 18 18 18 18 17 16 15 14 14 15 15 17 17 17 17 17 17 17 16 17 18 18 18 18 18 18 17 17 17 17 16 16 16 15 15 15 15 15
16 16 17 17 17 17 17 17 17 15 15 13 14 14 14 15 15 16 16 16 16 17 17 17 17 17 17 17 17 17 17 17 16 16 15 14 13 13 13 13 13 13 13
14 13 13 13 15 15 15 15 14 14 13 13 13 13 13 14 14 14 14 15 15 15 16 16 16 16 16 16 15 15 15 15 15 14 13 12 12 11 11 11 11 11 11
13 12 12 12 12 12 12 12 13 12 13 13 13 13 13 13 13 14 14 15 15 15 15 15 15 15 14 14 14 14 14 14 14 13 12 12 11 11 11 10 11 10 9
14 14 14 13 13 12 12 11 11 12 12 13 13 12 12 12 13 13 13 14 15 14 14 13 13 13 13 13 13 12 12 12 12 11 11 10 10 10 9 9 9 8 6
14 14 14 14 14 14 13 13 12 11 12 12 12 12 13 13 12 13 13 14 14 14 13 13 13 13 12 12 12 12 11 10 10 10 10 9 9 8 8 7 7 6 5
15 14 13 14 14 14 13 13 14 14 13 13 14 14 14 13 14 14 14 13 13 13 12 13 13 13 12 12 12 12 11 11 10 10 9 8 8 8 7 6 5 5 4
14 14 14 14 14 14 14 14 14 13 13 13 13 13 13 13 13 13 12 13 13 13 13 13 13 13 12 12 12 11 10 10 10 9 8 8 7 7 6 5 4 5 4
14 14 14 14 14 14 14 14 14 14 13 13 13 13 13 13 13 13 13 13 13 13 13 13 13 13 12 12 11 11 9 9 8 8 8 7 7 6 6 5 4 4 4
14 13 13 13 13 13 13 14 14 14 14 14 13 13 13 13 13 13 13 13 13 13 12 12 12 12 12 12 11 10 9 8 8 8 7 6 6 6 5 5 4 3 3
13 13 13 13 13 13 13 13 13 13 13 13 13 13 13 13 13 13 13 13 13 13 12 12 12 12 12 11 11 10 9 8 8 7 7 6 5 5 4 4 4 4 3
13 13 13 13 13 13 13 13 13 13 13 12 12 13 13 13 12 13 13 13 12 12 12 12 12 12 11 10 10 10 9 9 8 8 7 6 5 5 4 4 3 3 3
13 13 13 13 13 13 13 13 13 13 13 13 13 13 13 13 13 13 13 13 12 12 12 12 12 11 11 10 9 9 9 8 8 7 7 6 5 4 4 4 3 3 3
13 13 12 12 12 12 12 12 12 12 12 12 13 13 13 13 13 13 13 13 12 12 12 12 11 11 10 10 9 9 8 7 7 7 6 6 5 5 4 4 3 3 3
12 12 12 11 11 11 11 11 12 12 12 11 11 12 12 12 13 13 13 13 13 12 12 11 11 11 11 10 9 9 8 7 7 7 6 6 6 5 5 4 4 3 2

GFSGL_925_temp_123.txt.gz
Temp
23 23 23 22 24 24 24 23 23 24 24 24 23 23 23 22 22 23 23 23 22 23 22 23 23 23 24 24 23 23 23 23 25 26 24 23 23 23 22 22 23 22 20
23 22 22 22 22 22 23 24 24 23 23 23 23 23 23 22 21 23 23 23 23 23 23 22 23 23 23 23 23 23 23 23 24 24 24 23 23 23 21 21 23 22 19
23 23 23 23 22 22 22 23 24 24 23 23 23 22 22 22 22 22 23 23 23 23 23 23 23 23 23 24 23 23 24 22 23 22 24 23 23 22 22 21 21 21 20
22 22 23 23 23 23 23 23 23 23 23 23 23 23 22 22 21 22 22 23 23 23 23 23 23 23 24 24 23 23 23 23 22 23 24 24 23 22 22 23 22 21 21
22 21 22 22 22 22 22 23 24 23 23 22 23 23 22 21 21 21 22 23 23 23 22 23 22 24 24 24 24 24 23 23 23 22 24 24 23 23 23 22 22 21 19
22 21 21 21 22 21 21 22 23 23 23 21 22 22 22 21 22 22 22 20 20 21 21 22 22 23 23 23 23 23 23 23 22 22 23 23 22 22 21 22 23 21 23
21 20 21 20 20 22 22 22 23 22 23 23 22 20 20 21 22 22 22 21 20 20 20 22 22 21 22 22 22 22 22 23 23 22 22 22 21 21 21 20 21 22 21
19 19 19 19 20 19 20 20 20 21 23 22 20 21 21 21 21 20 21 21 21 19 20 19 19 19 21 20 20 20 20 20 21 21 20 20 19 19 19 20 20 19 18
20 20 20 19 20 20 21 19 19 19 20 22 21 20 21 20 19 19 19 21 20 19 19 20 19 19 20 20 19 19 19 19 20 21 21 21 21 20 20 20 21 21 22
18 19 20 20 19 19 19 19 19 20 19 19 19 18 19 19 18 17 17 20 21 20 19 19 19 19 19 19 18 19 19 18 17 17 17 18 19 19 19 20 19 22 22
18 18 18 19 19 18 18 18 18 18 18 18 17 17 17 16 17 17 17 18 18 19 19 19 19 19 19 19 18 18 18 18 17 17 16 16 16 17 18 18 19 18 19
17 18 18 18 18 18 18 18 17 17 16 15 16 15 15 15 16 16 17 17 17 17 17 17 17 17 16 18 18 18 18 17 17 16 15 15 14 14 13 16 16 16 16
15 15 16 16 17 17 16 17 16 16 15 13 14 13 12 14 14 15 16 16 16 16 16 16 16 15 16 17 17 17 16 16 16 16 15 14 13 12 13 14 14 14 14
13 14 14 15 15 15 15 15 14 13 12 12 12 11 11 12 13 13 13 13 13 14 15 15 15 15 15 16 15 15 15 15 14 14 14 12 12 12 11 11 12 12 13
12 12 13 12 12 13 13 12 13 12 13 12 12 11 11 10 10 12 12 13 13 14 14 13 13 14 14 14 13 13 13 13 14 13 13 13 12 12 12 11 11 11 12
13 13 13 13 12 12 12 12 12 12 13 12 12 12 12 12 12 11 13 13 12 12 13 13 13 13 13 14 14 14 13 13 12 12 12 12 12 12 11 10 10 11 10
13 13 13 13 13 13 12 12 12 11 11 11 11 12 12 12 12 13 13 13 13 14 14 13 13 13 13 13 13 12 11 12 11 10 11 11 11 10 10 10 10 10 10
14 14 13 13 13 13 13 13 13 12 12 12 12 12 12 13 13 13 13 13 13 14 14 13 13 13 12 12 11 12 12 11 10 9 9 10 10 10 10 10 10 10 10
14 14 14 13 13 13 13 13 14 14 13 13 12 13 14 14 13 13 13 13 13 13 12 12 12 13 13 13 12 12 11 10 10 9 9 9 8 9 9 8 8 7 8
13 14 14 13 13 13 14 14 14 13 13 13 13 13 12 13 13 13 13 12 12 13 13 12 12 12 11 11 11 10 11 9 9 8 8 8 7 8 9 8 8 8 8
14 13 14 13 13 13 13 13 13 14 14 13 13 12 13 13 13 13 13 13 13 12 12 12 11 11 11 11 11 10 10 9 8 8 8 7 7 7 7 7 7 7 7
14 14 13 13 13 13 13 13 13 13 13 13 13 12 13 12 13 13 12 12 12 12 11 11 11 12 12 11 10 10 10 9 8 8 7 6 6 6 6 6 6 6 6
14 14 13 13 13 13 13 13 13 13 13 13 13 13 13 13 12 12 13 13 12 12 12 11 12 12 11 11 10 10 10 9 9 8 7 7 7 6 6 6 6 6 6
14 14 14 13 13 13 14 14 13 13 13 13 13 13 13 13 13 13 12 13 12 12 12 11 12 12 11 11 10 9 9 9 8 7 7 7 7 6 6 6 6 6 6
14 14 13 12 12 12 12 13 13 13 13 13 13 13 13 13 13 13 13 13 12 12 12 12 12 11 11 10 10 10 9 9 8 7 7 7 7 6 6 6 6 6 6
13 13 13 13 13 13 13 12 12 12 12 13 13 12 11 12 11 11 12 12 12 12 12 12 11 11 11 10 10 9 9 9 8 7 7 7 7 6 6 6 6 6 6